GFSCGP_sfc_thetae_000.txt.gz
Theta_e
306 299 295 297 298 300 300 297 296 298 300 298 296 295 299 301 303 301 300 300 301 303 306 309 312 316 318 318 314 315 312 314 316 314 313 315 315 317 319 322 324 325 326 329
301 296 302 303 302 300 299 296 296 298 300 297 296 296 299 301 303 303 301 300 301 302 304 308 311 311 315 316 316 315 314 312 314 315 315 316 316 318 318 320 322 325 327 328
298 301 306 303 300 298 297 296 296 296 299 298 296 294 297 301 303 305 302 302 302 302 303 306 310 308 312 314 312 316 316 311 313 315 316 316 317 319 318 319 322 324 328 328
300 304 303 301 299 299 293 300 300 299 295 289 297 285 294 298 300 303 301 300 300 302 304 307 309 307 310 315 316 316 316 315 314 311 313 313 313 314 317 319 323 326 329 328
300 301 300 299 300 301 296 301 298 299 293 291 293 287 293 298 298 302 301 300 301 302 304 307 308 309 311 314 318 318 317 317 313 314 312 314 314 315 318 321 322 324 326 329
302 306 304 303 303 301 302 298 298 295 291 285 291 290 290 294 299 302 302 301 302 302 303 307 310 311 312 311 318 317 315 316 319 316 313 313 315 316 317 316 316 315 319 324
300 301 304 302 297 300 298 293 286 283 283 283 294 291 294 299 301 305 302 302 302 304 302 306 308 308 310 311 314 317 316 315 316 319 315 312 312 312 312 312 314 315 316 319
293 292 301 304 298 295 294 294 287 281 282 288 298 290 294 306 305 307 306 303 303 302 304 306 307 307 310 312 312 317 316 314 314 315 314 314 316 315 313 313 312 313 315 316
293 294 303 303 302 300 294 292 296 290 292 288 293 301 305 307 305 306 304 302 301 302 305 305 306 308 307 312 312 314 314 312 313 313 312 311 313 314 314 314 313 312 314 318
298 293 300 304 307 305 298 300 291 289 282 282 289 298 295 302 302 304 301 301 301 302 305 305 307 308 308 310 311 314 314 312 313 311 311 312 313 314 313 314 312 313 313 317
301 295 296 304 301 297 299 297 298 295 292 284 282 292 304 305 305 303 302 302 302 303 304 305 307 308 310 310 311 313 313 314 313 312 313 313 313 313 312 312 313 313 313 315
300 296 293 300 306 308 306 303 301 293 292 293 293 292 308 308 307 306 303 304 303 305 305 306 308 308 310 310 311 311 312 314 314 315 313 313 314 311 310 310 311 313 313 314
301 294 291 293 300 304 299 303 304 302 299 293 290 292 308 309 308 307 304 304 304 304 304 306 307 309 310 310 310 311 311 312 315 315 313 313 312 309 308 309 310 311 311 312
307 295 296 292 295 301 298 301 303 301 294 294 295 299 303 307 306 309 305 304 304 304 306 307 307 309 310 311 310 311 308 310 316 315 314 312 309 308 307 309 310 310 309 309
302 295 297 299 301 303 301 301 301 300 300 296 298 300 302 306 309 311 309 306 304 303 306 307 308 308 310 310 310 311 308 312 316 316 314 312 311 308 307 309 309 309 308 309
304 294 300 300 303 302 300 302 302 302 302 301 301 300 307 310 312 311 309 307 305 304 306 307 309 309 310 311 309 310 309 312 316 316 315 316 313 310 307 308 308 308 307 305
300 298 294 293 301 299 294 300 301 303 303 302 297 302 308 307 309 309 309 309 307 306 306 307 309 310 311 312 311 310 310 312 315 317 319 318 315 310 308 308 308 305 303 303
299 295 294 293 297 287 299 306 306 303 304 304 304 305 307 309 311 311 312 310 309 309 307 308 309 310 312 312 312 313 312 313 315 318 319 319 315 311 309 308 307 306 302 301
303 298 293 291 287 295 299 304 303 301 300 307 305 306 308 310 313 311 314 314 312 311 310 309 311 311 312 312 313 313 312 314 316 318 318 320 317 314 310 308 307 307 304 302
303 301 295 288 286 285 296 304 310 307 295 306 307 306 306 307 303 306 314 316 314 313 312 310 310 311 312 312 313 313 313 313 315 317 319 321 319 316 312 309 308 309 307 306
295 295 291 287 284 293 302 306 309 294 296 310 309 308 306 305 307 310 313 314 316 314 313 312 310 310 311 313 313 312 314 313 317 319 320 320 320 318 316 313 310 310 310 309
295 290 290 289 286 288 308 305 299 303 306 310 311 311 310 310 311 312 312 313 315 315 314 311 310 311 311 313 313 313 313 316 318 320 320 320 320 321 319 316 314 311 311 309
295 297 293 294 294 303 308 307 309 308 307 311 310 313 312 312 312 312 311 312 314 316 315 312 311 310 311 312 313 312 313 316 318 318 318 319 320 321 320 318 316 314 312 311
301 303 298 298 301 302 306 307 310 312 311 313 313 313 314 312 311 311 312 310 314 317 315 313 312 310 310 312 313 313 314 315 316 316 314 317 318 319 320 321 320 318 315 313
301 303 299 298 301 304 305 307 311 311 313 314 316 316 315 315 313 312 312 313 313 316 317 314 312 311 311 313 313 313 313 315 315 315 315 312 316 317 319 321 321 320 320 317
299 300 298 296 302 302 305 309 312 313 313 314 314 315 317 316 316 313 313 316 313 316 317 314 313 313 312 315 314 314 314 316 314 313 313 314 313 315 318 320 320 307 307 304

GFSCGP_sfc_thetae_003.txt.gz
Theta_e
303 297 294 297 298 299 298 296 295 298 300 297 295 295 297 301 300 299 299 299 301 302 305 308 312 314 315 315 312 312 309 311 313 313 312 314 315 316 317 318 321 323 325 326
299 294 300 302 301 298 297 294 294 297 300 296 295 295 297 300 300 299 299 299 300 300 303 307 309 311 312 313 314 313 310 311 312 313 313 313 315 317 317 319 321 325 326 327
297 301 304 301 299 297 296 294 294 294 298 296 294 292 295 299 301 301 300 300 300 301 302 305 307 306 311 310 311 314 312 309 309 313 315 316 316 318 320 321 321 322 326 327
299 302 302 299 298 298 292 298 298 297 293 287 295 284 292 296 298 300 299 298 299 300 303 305 305 304 310 312 313 313 313 311 311 309 314 313 313 314 317 321 322 324 326 327
299 299 298 298 299 300 297 301 297 296 292 288 291 286 291 296 295 299 298 299 298 300 302 305 305 306 308 313 314 314 313 313 312 311 315 316 316 317 320 321 322 321 324 326
301 304 302 301 303 302 303 296 295 293 289 283 289 288 288 293 297 299 299 300 300 300 302 306 306 307 307 309 314 313 313 315 312 312 314 316 315 315 314 313 317 319 322 325
298 299 301 303 297 298 295 290 283 282 282 283 292 289 291 297 300 302 302 300 300 301 301 305 305 306 307 309 314 313 313 312 314 312 313 313 312 310 312 312 314 316 319 322
292 291 299 302 298 296 293 292 285 280 280 286 294 288 294 301 306 303 306 302 301 300 300 304 305 306 307 309 312 314 313 311 312 311 311 312 312 311 310 310 311 313 317 322
292 293 301 301 301 298 293 290 293 288 288 286 289 295 302 303 304 303 300 300 300 300 301 305 305 305 306 308 309 314 313 310 310 310 310 311 312 312 310 311 310 311 314 321
296 290 298 301 301 300 295 297 289 287 281 280 286 291 293 300 302 303 299 298 300 300 302 304 304 305 306 308 309 313 312 309 311 309 309 310 310 311 311 310 310 312 313 315
297 294 294 299 297 295 295 294 294 290 288 283 280 288 301 302 304 303 301 300 300 301 303 304 304 306 306 307 308 312 311 309 309 307 309 310 310 310 310 310 310 311 312 314
298 293 290 296 302 304 298 296 295 289 287 290 288 290 303 305 308 306 303 302 302 303 304 304 304 305 305 307 309 311 311 310 309 310 310 310 309 308 308 309 310 310 311 312
297 291 288 291 298 301 297 301 300 297 295 291 289 291 304 308 305 305 301 302 302 302 302 302 304 305 307 307 309 310 310 311 311 312 311 310 308 306 306 307 309 310 311 311
304 292 293 289 292 298 296 300 301 297 291 294 294 296 300 305 305 307 302 301 302 303 304 304 305 305 307 308 309 310 309 311 312 312 311 310 307 306 306 307 308 309 309 309
299 293 294 297 298 300 298 299 300 296 296 294 297 297 302 305 306 309 304 301 301 302 303 305 305 306 308 307 308 310 308 309 313 312 311 309 307 305 306 307 306 306 307 308
298 292 298 296 298 300 298 300 301 300 299 298 299 298 307 309 311 308 306 302 302 302 304 306 307 307 308 309 308 309 307 309 313 312 312 310 308 306 306 306 305 305 305 304
297 294 293 291 298 299 293 298 299 300 302 300 295 302 306 306 309 308 309 305 303 304 305 306 307 308 310 310 309 307 306 309 313 313 313 313 310 307 306 306 306 303 301 301
298 296 295 292 295 287 298 305 305 302 303 302 302 303 305 306 309 311 310 307 307 306 305 307 308 309 310 311 308 308 306 310 313 313 315 314 310 306 306 305 304 301 300 299
302 297 292 293 285 294 298 302 301 300 299 305 304 304 306 307 307 307 312 311 310 308 307 308 310 310 310 311 309 308 307 309 313 314 316 315 311 307 306 305 303 302 300 299
300 299 296 287 287 288 295 303 308 305 294 305 306 305 304 306 299 306 312 313 312 312 310 308 310 310 310 311 310 309 307 309 311 314 316 317 313 309 306 305 304 304 301 300
294 293 292 286 285 292 300 306 306 292 295 305 308 307 304 303 306 309 310 313 313 312 311 309 309 309 311 311 311 309 308 308 312 316 317 318 315 311 308 306 305 306 304 302
293 290 289 289 286 288 305 305 299 302 305 309 307 306 307 308 308 309 311 310 312 310 311 309 308 309 311 312 311 310 309 311 312 315 317 317 316 316 311 308 306 307 306 304
294 296 292 294 293 301 307 306 308 305 306 308 308 309 310 309 309 310 311 311 312 312 312 310 309 309 309 312 312 311 312 312 312 314 315 316 318 317 315 310 308 306 306 306
300 302 297 297 299 301 306 307 306 307 306 310 309 309 311 310 311 311 311 311 312 311 312 311 309 308 308 311 312 313 313 314 313 313 315 316 316 317 317 315 313 311 309 308
301 301 297 297 298 302 302 306 306 308 311 312 312 313 312 311 312 312 312 310 311 310 313 313 310 309 309 310 312 313 314 315 314 314 315 316 317 315 317 317 316 315 314 311
301 301 298 296 301 301 302 305 308 308 309 311 311 312 315 314 313 310 309 312 313 312 313 311 312 310 310 310 311 312 314 314 314 314 314 315 316 316 317 317 317 305 304 302

GFSCGP_sfc_thetae_006.txt.gz
Theta_e
301 296 293 295 297 298 297 294 294 297 299 296 295 295 299 299 299 298 298 298 299 301 305 308 312 313 314 314 312 311 310 311 312 314 314 315 315 317 319 322 323 324 325 324
297 294 298 300 299 297 295 293 292 296 298 295 295 294 296 298 299 299 298 298 299 300 303 307 310 311 311 311 313 312 311 312 313 314 314 315 316 319 320 322 324 325 326 327
295 298 302 300 298 296 294 292 292 293 296 295 292 291 293 297 298 300 298 299 300 300 302 305 307 308 310 309 309 314 312 310 309 313 316 317 319 321 322 322 322 325 327 327
297 301 300 297 297 297 292 298 297 295 292 287 293 283 291 294 296 299 297 297 299 300 302 304 305 305 310 310 312 312 312 311 313 313 317 316 316 318 320 322 323 324 326 327
298 297 297 296 298 298 296 299 296 295 290 287 289 284 289 294 295 296 298 297 298 299 302 304 305 306 309 312 312 312 313 313 313 315 319 319 318 319 321 321 322 323 325 327
300 302 301 300 301 300 301 295 293 291 288 282 288 287 287 291 296 297 298 298 299 299 301 304 305 306 307 311 313 311 314 314 313 315 318 317 314 315 316 318 319 321 323 326
296 296 300 302 297 296 295 289 283 281 281 282 290 287 290 296 299 300 300 298 299 300 300 303 304 304 306 309 312 312 313 313 313 315 316 316 313 314 315 316 319 320 322 325
291 290 297 300 298 295 291 290 284 279 278 282 291 286 292 299 303 303 303 300 299 299 301 303 304 305 306 308 312 313 312 312 312 313 314 313 313 312 311 314 319 320 323 324
290 291 299 300 300 299 292 288 291 286 286 284 287 292 299 302 302 302 299 299 298 299 300 303 304 305 306 307 310 313 313 311 311 312 313 314 314 313 312 312 315 319 322 325
295 289 297 300 299 297 296 296 287 285 280 279 284 288 291 296 299 302 299 297 298 299 300 303 304 305 305 307 309 314 314 311 311 311 311 312 313 313 312 312 314 317 317 320
295 293 292 297 295 293 292 291 291 288 286 281 278 285 296 299 304 304 302 298 299 300 301 302 304 305 306 306 308 312 313 310 310 309 311 312 312 312 312 312 313 315 316 317
296 292 289 294 297 301 297 294 294 286 285 287 285 287 300 303 306 308 305 300 299 301 302 303 304 304 304 306 308 311 312 310 309 309 311 311 311 311 311 312 312 313 315 316
296 289 285 286 295 299 296 298 295 293 291 289 287 288 301 305 305 307 304 299 300 300 301 302 302 303 305 306 308 310 311 310 310 311 311 310 309 310 310 311 312 313 314 315
302 290 290 288 289 297 294 298 298 294 288 290 291 294 299 303 304 306 302 300 300 301 302 303 302 303 305 307 308 311 311 311 312 312 311 310 308 309 309 310 311 312 313 314
295 289 291 292 294 297 296 297 298 294 295 292 294 295 300 301 305 307 303 300 299 300 302 303 304 304 304 306 308 311 311 311 312 312 311 311 308 308 309 310 310 311 312 313
295 289 291 290 294 294 294 296 299 299 296 296 297 295 303 306 308 309 304 301 300 301 303 304 305 306 306 307 308 310 309 310 313 312 312 311 308 307 309 308 308 309 309 310
291 292 289 285 294 294 290 295 298 299 299 298 295 299 303 304 307 307 307 302 302 303 304 304 306 307 308 309 309 309 308 310 312 312 313 311 309 308 308 307 307 306 306 307
291 292 291 289 293 284 294 301 302 301 301 300 300 302 304 304 306 309 309 305 303 304 305 305 307 308 309 310 308 309 307 310 312 312 313 312 309 307 308 307 306 304 304 305
297 294 290 288 284 292 296 300 299 298 298 303 302 302 304 306 307 307 311 310 308 306 306 307 308 309 309 310 310 308 307 310 312 312 314 314 310 307 307 307 305 303 303 302
298 298 293 285 286 286 294 302 305 303 294 303 305 302 303 304 299 305 309 311 310 310 308 307 309 309 309 310 310 307 306 309 311 313 315 315 311 308 307 307 305 305 304 304
291 291 291 285 284 290 299 304 305 293 295 304 306 305 303 303 308 309 310 312 312 312 309 308 309 309 310 311 310 308 307 308 312 315 316 316 312 309 308 307 306 306 305 305
291 288 289 286 285 287 303 303 299 302 304 306 306 306 306 308 307 309 310 312 313 311 309 308 308 309 310 311 311 309 307 310 312 315 316 316 314 312 309 307 307 308 305 304
292 295 292 293 293 299 306 305 307 305 305 306 305 306 308 308 307 309 309 310 310 310 309 308 308 309 310 311 312 310 310 310 311 314 315 316 315 314 310 307 306 307 307 305
297 299 295 296 299 300 305 305 306 306 307 309 308 308 308 307 309 309 309 310 310 311 311 309 308 308 308 311 312 313 313 312 311 313 314 316 316 315 313 311 309 309 308 307
298 299 296 295 298 301 303 307 306 307 308 310 310 310 310 309 310 311 311 311 311 311 312 311 308 308 309 311 312 313 313 313 311 312 314 315 316 315 315 314 311 310 311 310
299 297 297 295 299 301 302 307 307 307 309 310 311 311 313 311 311 312 311 311 312 312 311 311 309 309 310 310 312 313 314 314 312 312 313 314 315 315 317 316 315 302 301 300

GFSCGP_sfc_thetae_009.txt.gz
Theta_e
308 304 301 304 305 304 303 300 299 301 305 302 302 302 304 307 306 306 306 306 307 309 313 317 320 322 323 325 325 324 325 324 324 326 325 325 325 326 330 327 326 328 331 328
303 301 306 306 304 302 301 299 299 302 303 302 302 301 305 306 306 307 308 307 307 309 311 315 319 321 323 322 322 325 323 323 321 324 327 322 325 328 327 325 326 329 329 329
303 305 305 304 302 301 301 300 300 300 301 302 300 299 303 306 305 306 308 309 309 309 310 314 317 320 322 321 319 323 324 323 323 327 327 326 330 327 326 325 327 327 330 328
305 306 304 303 302 303 299 304 302 301 299 295 300 293 300 304 305 306 307 307 307 309 311 314 316 318 321 321 321 320 323 325 324 329 329 327 327 323 325 327 329 328 330 329
303 302 302 301 303 304 302 304 302 301 299 297 297 294 298 302 303 307 310 308 308 309 311 313 315 316 321 322 323 325 324 325 325 329 329 326 326 328 329 329 329 331 333 329
306 307 307 306 306 305 306 302 300 299 298 292 297 295 297 300 304 307 309 308 307 308 310 314 316 317 319 323 323 324 325 323 324 327 328 326 324 327 323 327 326 327 328 333
302 304 306 308 303 303 304 301 293 291 292 291 296 294 298 305 308 307 308 309 308 308 310 313 314 314 317 321 322 323 324 322 323 325 328 325 324 326 325 322 323 325 327 328
297 295 302 305 305 302 301 302 294 287 288 292 295 293 298 307 310 311 310 310 308 308 310 313 314 315 316 319 323 322 322 322 321 323 326 325 325 322 324 326 324 326 327 327
297 297 304 305 306 306 299 297 303 297 294 292 295 299 305 309 310 309 307 306 306 308 310 313 315 316 317 319 323 324 324 322 321 322 325 325 324 324 323 327 326 330 328 329
301 296 302 304 306 304 303 304 295 296 288 287 292 294 297 304 307 310 307 306 307 308 310 312 315 316 318 320 322 325 326 323 321 322 323 323 322 323 324 326 326 328 327 325
305 302 298 302 301 300 299 298 299 298 296 291 289 294 306 307 311 313 312 309 307 308 309 312 314 316 318 319 319 322 325 322 322 322 322 324 322 322 324 324 325 324 326 325
304 303 297 298 303 307 305 301 302 295 294 295 295 295 308 312 314 316 313 309 309 310 310 312 314 316 316 317 319 321 325 322 322 321 321 322 322 322 323 324 325 327 327 328
304 302 295 295 302 305 300 302 303 303 302 296 293 296 309 312 314 314 312 309 308 309 310 311 313 314 315 316 317 320 323 322 319 319 320 321 321 321 323 323 323 326 327 327
307 303 299 293 296 302 300 301 302 302 296 296 297 299 305 310 312 312 313 311 309 309 309 311 312 314 316 316 317 320 322 322 319 319 320 320 321 321 322 323 324 325 326 326
306 298 300 301 301 302 301 301 303 300 301 297 300 301 305 310 312 315 315 311 308 308 309 311 312 313 315 316 318 320 322 321 321 320 320 321 320 320 320 322 323 323 325 325
302 299 300 297 299 300 298 300 302 303 302 302 302 302 311 313 315 314 312 309 308 309 310 311 312 314 315 316 317 319 322 322 322 321 320 321 318 318 320 320 321 322 323 323
300 300 297 293 298 298 294 298 300 302 304 303 299 305 311 311 313 315 314 311 311 312 311 312 313 314 315 317 319 319 321 322 321 321 321 320 318 317 319 319 320 320 323 324
300 301 299 295 297 289 300 306 304 302 304 307 307 308 312 312 316 318 319 314 315 314 313 313 314 316 317 318 319 321 321 320 320 321 320 320 317 317 319 318 320 320 320 323
299 299 299 296 294 297 300 304 302 301 302 309 308 309 312 313 315 314 318 319 319 316 317 317 316 317 318 318 319 320 319 319 320 320 320 320 317 317 318 318 318 319 319 319
300 301 297 297 293 290 301 308 310 309 299 311 311 312 311 313 307 311 320 320 320 319 318 317 317 317 318 319 320 319 318 319 319 320 320 321 318 317 318 320 318 318 319 319
294 296 293 293 294 298 306 310 311 298 301 315 314 315 313 311 315 320 321 321 323 322 318 319 317 317 319 321 321 319 319 318 320 320 321 322 320 318 320 321 320 318 317 317
293 292 292 295 292 289 308 309 304 313 315 315 316 316 315 318 319 318 319 320 320 320 318 317 315 316 320 320 321 319 319 321 321 321 321 322 322 317 318 320 319 319 318 317
294 297 295 298 297 310 312 314 318 319 317 314 317 318 317 317 317 317 318 319 320 321 320 317 316 317 318 320 321 320 321 320 320 320 321 323 323 321 318 319 319 317 318 316
297 306 301 302 304 307 311 315 316 315 315 316 318 318 317 317 317 317 318 318 319 321 319 317 316 316 316 319 320 322 321 320 319 320 322 323 323 322 320 317 318 317 316 316
296 302 303 304 307 307 310 314 315 314 315 316 317 318 318 318 317 318 318 319 319 320 320 317 316 317 317 318 319 320 321 321 321 322 322 323 322 322 322 320 318 316 322 316
302 299 299 300 308 310 312 314 316 314 314 316 317 317 319 319 318 320 320 321 321 320 321 320 317 317 318 318 318 319 320 321 321 321 321 321 321 322 321 320 319 303 301 299

GFSCGP_sfc_thetae_012.txt.gz
Theta_e
313 307 304 308 310 309 307 305 304 307 309 307 307 307 309 312 312 312 313 314 314 315 318 320 322 324 322 322 322 328 328 330 329 331 330 330 329 327 329 330 330 329 334 333
308 304 310 311 310 308 307 305 305 307 309 307 306 306 309 311 312 314 314 315 315 316 316 318 322 324 323 320 320 326 327 328 331 331 332 332 331 329 331 328 331 332 332 333
305 307 312 310 308 306 306 305 305 304 308 308 306 304 307 310 312 313 315 316 317 316 316 317 320 323 323 321 320 324 326 330 333 336 338 336 334 331 333 328 328 332 332 333
307 311 309 308 307 307 303 308 307 305 303 298 306 296 304 307 308 311 314 315 316 316 317 318 320 322 322 322 323 324 327 330 333 335 332 333 331 328 331 333 329 328 334 331
306 308 307 306 307 309 305 309 307 306 303 303 302 299 303 306 305 308 312 316 317 317 317 318 319 321 320 324 324 328 328 328 334 335 333 330 333 330 336 332 332 328 330 331
308 313 311 309 310 309 310 306 306 306 303 296 301 300 299 304 305 309 312 315 316 316 317 318 321 320 320 324 324 326 327 327 330 333 332 331 332 331 329 330 330 329 332 328
305 307 311 311 307 309 308 304 296 295 295 294 302 298 301 307 309 311 313 316 317 316 316 317 319 318 319 322 323 325 324 326 328 331 330 330 331 331 326 326 330 327 328 331
299 297 307 310 307 304 305 304 297 290 292 296 301 296 303 309 313 316 316 317 317 316 316 317 319 319 318 321 323 324 323 324 325 328 329 330 330 328 327 327 331 328 329 331
300 300 309 310 310 309 304 301 307 300 301 296 299 302 308 309 311 314 315 314 315 316 316 318 319 320 319 321 324 326 325 324 325 326 329 329 330 331 328 333 333 331 331 332
306 300 306 308 310 309 307 308 299 301 293 291 296 298 300 305 306 314 315 314 315 316 316 318 319 320 320 321 325 328 328 323 326 326 326 326 328 330 329 335 331 329 329 326
308 305 303 306 305 303 304 303 304 304 301 294 293 298 308 307 310 312 317 317 316 316 316 318 319 320 320 322 324 327 328 324 324 325 326 327 326 329 330 330 331 331 331 332
308 305 300 302 308 309 308 304 305 298 297 300 299 299 311 311 313 317 320 318 317 317 317 319 320 319 319 321 322 325 327 324 321 323 325 327 326 328 329 330 331 333 332 331
308 303 297 299 304 308 304 305 306 306 305 300 297 299 312 313 315 318 319 319 317 317 317 318 319 318 318 320 321 323 326 324 320 320 322 326 326 327 329 330 331 332 331 333
311 305 301 296 300 304 302 303 305 305 300 300 300 302 308 311 313 316 320 320 317 317 316 318 319 318 318 319 320 322 324 324 320 320 320 322 326 326 329 330 331 330 330 331
310 302 303 303 304 304 303 302 303 302 304 300 302 303 307 310 313 315 320 320 317 316 316 317 318 318 318 319 320 321 324 324 322 320 320 321 325 326 327 328 330 331 330 329
310 301 303 300 303 303 301 303 304 304 304 304 305 304 311 313 314 316 319 319 317 317 316 318 319 319 318 319 320 321 323 323 323 322 321 321 320 323 325 328 329 330 330 329
306 302 301 296 301 300 297 301 303 305 307 306 302 307 311 311 313 315 319 319 319 319 318 318 319 320 319 319 321 322 323 325 323 322 322 322 319 319 323 325 325 328 329 331
305 304 302 298 300 291 301 308 306 305 306 308 308 309 311 312 316 318 320 321 321 322 321 321 321 322 322 321 322 323 324 324 322 322 322 322 319 317 321 323 325 329 331 331
308 306 300 297 297 299 302 305 305 303 303 309 309 310 311 314 316 316 321 323 324 325 325 324 323 324 324 321 323 323 323 323 321 320 322 322 320 318 320 321 325 328 329 330
302 307 302 300 296 292 302 308 311 311 300 311 312 312 313 313 309 312 321 324 325 327 327 326 325 325 325 324 323 323 322 322 320 320 321 322 321 319 320 322 325 327 327 326
297 299 298 299 298 301 308 310 313 300 303 314 315 315 315 313 316 320 322 325 326 327 327 328 326 324 326 326 324 322 322 321 322 322 322 323 323 321 323 325 326 326 325 323
296 296 296 299 296 294 311 311 305 311 321 317 318 319 318 320 321 322 324 325 326 326 326 326 325 325 327 326 324 322 321 323 323 322 321 323 325 321 321 326 325 324 323 322
296 300 298 300 300 314 315 314 319 319 317 319 319 322 321 321 321 322 323 325 326 326 326 325 326 326 326 326 325 323 324 323 323 323 322 324 325 323 322 324 324 321 323 318
301 305 301 302 306 308 311 316 318 321 320 321 323 324 324 322 323 323 323 324 324 326 327 326 325 324 325 326 326 327 325 324 322 323 323 324 324 323 321 322 322 320 320 318
300 302 301 302 306 308 309 311 314 319 322 321 322 322 323 323 322 323 323 323 324 325 326 326 325 325 325 326 326 327 326 325 323 323 324 324 325 324 322 321 320 319 325 318
301 300 297 297 306 308 309 313 314 316 320 320 320 321 323 323 322 323 323 324 324 324 326 326 326 326 326 326 326 326 326 325 326 326 323 323 323 324 322 320 318 303 302 302

GFSCGP_sfc_thetae_015.txt.gz
Theta_e
311 308 304 308 310 310 309 308 306 310 313 311 309 310 312 315 314 314 314 316 318 319 321 323 325 326 325 325 326 328 329 333 333 332 332 331 335 330 334 331 333 332 334 333
308 304 310 311 310 309 309 307 306 310 313 311 310 308 312 313 313 314 315 316 318 319 319 321 324 326 326 325 322 327 329 332 335 337 338 334 333 332 333 334 334 333 332 334
304 308 311 310 309 308 308 307 307 307 310 312 309 306 309 312 314 315 315 317 319 320 319 320 322 325 326 324 325 326 329 333 337 337 337 339 336 337 335 330 331 334 333 333
307 311 309 308 308 309 305 310 309 307 306 301 309 298 306 310 310 312 314 316 318 320 321 321 322 324 325 324 327 329 330 332 335 337 335 335 334 331 334 333 331 332 335 333
304 307 308 307 308 311 307 311 309 308 305 305 304 301 305 309 307 309 313 315 319 321 321 320 322 324 324 324 327 330 332 331 334 335 335 338 333 335 336 336 328 333 334 334
306 312 311 310 312 312 313 309 308 308 305 297 302 302 302 305 306 309 312 315 319 320 321 321 323 325 323 323 326 329 331 329 333 334 333 334 333 331 327 332 331 331 333 336
305 306 311 313 309 312 310 306 298 296 297 295 305 301 304 309 309 310 312 315 321 320 320 320 321 321 321 322 324 328 329 328 329 332 331 332 333 334 330 332 328 327 332 333
300 298 308 313 310 307 307 306 298 292 294 298 305 298 304 311 312 313 316 320 322 320 320 321 322 322 320 323 323 325 327 327 328 329 331 332 335 335 331 333 330 332 334 333
301 301 309 311 312 311 306 302 308 302 303 299 301 305 310 310 310 313 316 318 319 319 320 320 322 322 320 323 324 325 326 327 327 329 331 330 333 334 332 333 335 331 334 336
308 301 308 309 312 312 309 310 301 302 294 293 299 301 303 306 308 314 316 317 318 319 319 320 321 322 321 323 326 327 327 325 327 328 329 328 331 334 335 334 330 328 330 331
308 307 305 309 306 305 305 304 306 306 303 296 295 299 310 309 310 311 317 319 318 318 319 320 322 322 321 322 324 327 327 323 326 327 328 328 329 331 332 332 332 333 334 329
309 308 302 304 310 312 309 306 307 300 299 302 301 301 312 312 313 315 317 319 319 319 320 321 321 322 320 321 323 325 327 323 324 326 327 326 328 331 332 332 333 333 333 332
310 305 301 303 306 309 306 307 307 308 307 302 298 300 313 314 313 315 317 319 319 319 320 321 321 320 318 321 322 323 326 323 321 322 326 327 326 329 331 332 332 335 335 334
313 308 304 299 303 306 303 305 306 306 302 301 302 304 309 312 312 314 318 320 321 319 319 320 321 320 318 321 321 322 325 324 321 320 322 326 326 328 330 332 332 332 334 334
312 306 305 306 307 306 305 304 305 304 305 302 304 305 309 312 313 314 319 320 320 319 318 320 321 320 319 321 321 322 324 324 321 319 320 323 327 327 329 331 331 330 331 332
314 305 306 303 305 306 304 305 306 305 305 305 306 306 313 315 315 315 317 320 319 320 319 320 321 321 319 319 321 322 324 323 321 320 319 321 324 324 326 330 331 331 329 328
307 306 304 299 303 303 300 304 305 305 306 306 303 309 313 312 313 315 317 319 319 321 321 320 322 322 321 320 322 322 324 324 322 321 321 320 321 322 325 326 328 328 330 331
309 308 305 300 302 293 304 309 309 307 308 309 309 311 313 314 315 316 318 319 321 322 323 322 323 324 323 322 322 324 324 324 321 321 321 320 318 320 323 324 326 330 331 331
312 310 301 299 299 301 303 306 306 305 305 311 311 312 314 315 315 316 319 321 324 324 325 325 325 326 325 323 323 324 323 323 321 321 321 321 318 319 322 323 327 331 331 332
309 310 306 301 296 293 303 308 312 311 302 311 312 312 313 314 307 312 320 321 324 326 327 327 327 327 327 325 325 323 322 322 321 321 322 322 320 319 321 326 329 331 331 330
300 303 300 298 299 301 309 311 313 300 303 315 313 314 314 313 314 320 321 322 324 326 327 329 329 327 331 329 328 323 322 322 323 322 323 323 322 322 325 330 332 330 328 328
298 299 299 300 297 295 312 311 305 312 316 317 316 316 316 318 319 319 321 322 325 326 327 329 328 327 332 328 326 323 325 325 324 323 322 323 324 321 322 329 329 327 330 328
298 303 301 303 303 314 315 315 318 318 316 317 318 319 319 319 319 320 321 324 324 326 327 328 329 328 329 330 327 326 328 324 323 323 322 323 324 322 324 326 326 323 327 322
303 307 304 306 309 311 313 316 318 318 318 319 321 321 322 320 321 321 323 325 325 327 327 328 328 327 328 330 329 328 326 325 323 323 325 325 325 322 324 324 324 321 320 319
301 305 303 305 308 311 313 315 317 318 320 320 322 323 322 322 322 323 323 324 325 327 328 328 328 328 328 330 329 329 328 326 326 328 327 327 324 325 324 324 322 320 325 319
301 301 299 301 309 309 309 314 315 315 317 319 320 320 322 323 323 324 324 325 326 326 328 328 328 329 329 329 329 329 329 328 329 328 326 324 323 323 321 320 321 302 304 302

GFSCGP_sfc_thetae_018.txt.gz
Theta_e
309 304 302 305 307 306 307 305 305 309 312 310 310 311 312 315 316 315 316 317 319 321 323 325 326 329 330 332 332 336 337 340 338 338 334 334 335 334 335 334 333 333 332 334
304 302 307 309 308 306 306 304 305 309 311 310 310 309 312 314 315 315 316 317 319 321 321 323 326 328 330 331 331 335 337 339 340 338 340 338 334 335 335 334 334 335 333 334
300 303 308 307 306 305 305 304 306 305 309 311 309 307 310 313 315 315 316 318 320 321 320 322 323 326 328 329 329 334 337 339 341 340 339 338 337 331 332 334 333 334 334 334
301 305 305 306 305 306 302 308 308 307 305 300 309 298 307 310 311 312 314 316 317 321 322 322 323 326 328 327 329 334 337 339 339 340 338 334 328 329 333 333 332 331 334 334
300 301 301 304 305 308 305 310 308 308 305 304 303 300 303 310 308 310 313 316 319 322 322 321 323 325 327 328 330 334 338 338 341 338 339 336 332 334 334 330 331 332 334 334
302 308 306 306 310 310 311 308 308 307 305 298 302 301 301 305 308 310 311 315 320 321 322 323 324 327 326 326 329 334 336 337 340 336 337 336 333 330 330 328 330 332 333 334
302 302 307 310 306 310 308 307 298 295 295 294 303 300 304 310 311 310 311 314 320 321 321 321 322 323 324 324 328 330 334 333 337 336 336 334 334 331 330 330 327 328 331 332
297 295 303 308 307 305 307 307 299 291 293 295 304 298 303 311 313 313 313 319 321 321 321 321 322 323 321 324 327 329 331 330 334 334 335 335 337 332 332 331 332 331 329 332
298 298 307 307 310 309 306 302 308 301 302 297 300 305 311 311 310 311 314 318 321 321 321 321 323 323 322 324 327 330 331 331 333 333 336 336 336 333 331 332 334 330 331 333
304 299 306 306 310 310 309 311 301 301 293 291 297 300 301 307 307 311 315 318 320 321 320 321 322 324 323 325 328 331 331 330 331 333 334 333 334 335 334 332 328 329 329 331
308 306 304 307 305 304 306 304 305 305 301 294 293 299 315 310 311 314 317 319 320 319 319 320 321 323 322 324 324 329 329 328 330 332 332 334 334 334 334 331 333 331 327 331
308 306 301 303 309 311 309 306 307 299 299 301 301 300 314 315 313 315 317 319 319 320 320 320 321 322 320 322 324 327 329 325 328 330 330 332 334 335 336 332 334 333 327 328
308 303 299 301 306 309 306 307 308 309 309 302 296 299 314 314 313 315 315 319 319 320 320 320 321 320 318 320 323 324 327 324 324 326 328 331 334 334 334 333 335 335 329 328
312 305 301 299 303 307 304 306 306 306 301 301 301 303 309 312 311 313 316 320 319 320 320 320 321 320 318 321 322 323 325 325 323 322 327 328 333 333 335 333 335 332 335 332
311 301 305 306 306 307 306 305 305 304 305 301 304 304 308 313 313 314 318 320 319 318 319 320 321 321 318 321 322 323 325 324 323 320 323 328 332 333 334 334 333 335 334 334
313 302 305 302 304 306 304 306 305 305 305 305 305 306 314 316 316 315 315 318 318 319 319 320 322 322 319 321 321 323 324 323 322 321 321 325 326 327 334 335 332 332 332 331
309 306 303 298 304 304 300 305 305 306 308 307 303 309 314 312 313 315 317 319 320 320 321 320 322 323 322 321 323 323 324 324 321 321 321 321 324 324 329 331 332 332 333 333
307 308 305 299 303 293 304 311 309 308 309 310 310 311 313 314 317 316 317 319 321 322 322 322 323 325 325 323 323 325 325 323 320 320 320 320 321 322 325 329 330 334 334 333
310 309 303 298 297 302 304 307 307 307 307 312 309 311 312 314 316 317 319 320 324 325 326 326 326 327 326 324 324 324 323 323 320 320 321 319 319 322 324 325 330 333 334 333
307 311 302 301 296 293 304 309 312 311 302 314 314 314 313 314 307 311 320 321 323 327 327 327 327 328 326 326 325 324 323 323 320 320 321 320 318 321 324 328 330 333 334 332
299 304 299 300 299 301 309 310 313 300 304 315 316 316 317 314 316 324 326 323 326 327 328 330 328 326 327 326 325 324 323 322 323 322 322 323 321 323 326 331 331 332 332 330
299 299 300 301 297 295 312 310 305 315 324 322 318 318 317 320 322 323 322 324 324 326 326 328 328 327 329 327 325 323 323 326 324 323 322 323 325 320 325 329 330 331 330 331
294 304 302 303 303 317 318 316 323 324 320 318 320 319 320 318 319 320 321 324 325 325 326 327 329 329 330 327 325 323 326 327 324 323 324 325 324 323 325 327 328 327 329 326
302 306 300 305 309 311 313 316 320 319 320 321 321 322 321 319 320 320 321 323 324 326 327 329 329 328 328 328 327 326 327 326 324 324 326 326 323 322 324 325 326 323 323 322
299 301 302 301 308 310 313 315 316 320 319 320 321 320 321 322 321 321 321 323 324 326 329 329 329 328 329 330 328 328 328 325 324 325 326 326 324 321 324 324 324 322 324 320
300 298 298 300 308 305 312 315 314 319 318 321 321 320 323 322 322 322 322 326 326 326 328 328 330 331 330 331 330 329 329 327 326 325 325 324 324 322 323 322 323 297 304 301

GFSCGP_sfc_thetae_021.txt.gz
Theta_e
304 297 296 297 300 302 301 300 300 304 308 305 305 305 309 311 310 309 309 310 310 311 315 318 320 321 318 318 318 321 322 323 324 325 324 323 322 324 325 326 326 326 326 327
296 293 299 305 303 303 301 299 299 304 308 307 306 305 309 310 309 309 309 309 309 312 314 317 319 319 317 317 317 321 322 323 327 325 326 325 326 325 324 325 325 327 327 327
294 297 302 304 302 301 301 298 299 300 305 307 304 301 305 310 310 311 311 309 313 312 313 315 318 317 317 318 317 320 322 325 327 326 325 325 325 323 324 325 323 325 327 327
296 301 301 302 300 302 297 305 304 303 301 294 304 291 300 304 305 308 309 306 311 312 315 316 317 317 317 318 317 322 324 325 327 326 324 320 319 318 321 325 322 323 326 328
295 297 297 298 300 304 300 306 304 304 300 297 298 292 296 303 303 304 305 307 311 313 314 315 317 319 320 319 319 322 323 324 325 328 324 322 320 324 322 322 321 322 324 326
299 303 301 300 303 305 307 304 303 302 301 293 296 296 295 299 304 305 308 312 313 313 314 316 319 320 319 318 319 323 322 322 325 327 324 323 321 320 319 321 320 322 323 324
298 298 302 303 298 301 304 298 291 288 290 287 299 295 295 303 306 307 307 311 312 314 314 315 317 317 315 315 318 320 321 320 323 323 324 324 322 321 319 319 321 321 321 323
291 289 298 302 299 296 297 298 292 284 286 290 299 293 298 307 308 308 314 313 313 313 314 314 316 315 314 315 319 319 321 319 323 323 324 326 324 323 323 323 323 323 322 323
291 292 302 302 304 302 298 296 301 294 295 291 294 300 305 306 305 307 312 313 311 312 313 314 315 314 314 315 317 317 320 319 322 322 323 325 324 323 322 323 323 324 323 326
296 291 300 302 303 303 301 303 296 292 286 284 292 295 296 301 302 306 310 311 311 312 313 313 315 314 314 315 315 318 320 318 321 322 322 325 325 326 324 322 322 322 323 324
299 296 297 301 297 296 298 298 299 296 293 287 286 291 302 303 304 308 310 312 311 311 312 313 314 314 315 315 316 318 317 318 319 320 319 324 325 325 326 324 326 325 324 324
300 296 292 297 302 303 302 299 298 294 291 293 291 293 306 306 309 311 312 313 311 311 311 312 314 312 315 314 316 317 317 318 318 320 319 322 324 325 324 325 325 325 325 325
300 295 289 293 298 301 298 303 301 300 296 293 290 292 308 307 307 313 311 312 313 311 311 312 314 311 314 314 316 318 318 316 319 320 317 321 323 323 324 325 327 325 325 326
306 296 293 290 295 299 296 301 302 299 292 294 296 297 303 305 305 307 311 312 312 312 313 312 313 310 313 313 317 318 318 316 316 319 317 317 322 323 323 324 327 327 325 326
300 294 297 298 301 301 301 302 302 299 299 296 298 299 303 305 305 307 312 312 312 311 312 313 313 311 312 312 315 318 318 314 314 319 317 317 322 322 324 323 326 327 325 323
296 295 297 296 301 300 299 302 303 302 301 300 301 300 307 311 308 308 312 313 312 312 314 315 315 313 312 314 315 318 317 314 313 317 318 319 321 322 323 325 322 327 326 320
292 296 294 291 297 298 294 301 302 303 303 301 297 300 305 306 309 308 310 314 313 313 314 315 316 314 312 315 315 316 317 314 312 317 320 320 319 320 323 324 322 321 320 318
292 292 295 292 294 286 298 305 307 304 304 303 303 305 306 307 309 310 310 312 314 315 315 316 316 315 314 316 315 317 317 314 313 314 317 319 318 319 321 322 321 321 322 319
297 294 293 290 290 295 300 305 304 302 300 306 303 306 308 308 309 306 310 316 316 317 317 317 318 318 315 316 317 318 316 314 313 313 314 317 317 317 318 320 321 320 320 320
299 300 296 293 287 287 297 305 309 309 297 306 307 305 305 306 300 303 311 315 317 319 319 317 319 319 316 316 318 317 316 314 312 313 314 316 315 317 316 319 321 321 321 319
294 295 292 292 289 294 303 308 308 294 295 307 308 306 307 303 305 309 313 312 319 320 319 319 321 318 316 317 318 316 316 315 314 315 316 314 314 317 317 321 322 321 322 320
293 292 293 292 291 288 307 306 298 301 305 310 309 310 308 310 312 313 314 315 318 319 321 321 320 318 318 318 318 316 315 317 317 315 316 314 314 319 321 321 321 321 320 318
293 296 291 295 295 305 309 306 308 311 306 309 310 311 313 312 311 313 311 315 319 319 321 321 320 320 318 318 318 316 317 319 318 315 314 315 315 315 321 321 321 319 319 319
296 299 296 297 302 302 307 311 312 311 311 312 312 314 313 311 311 311 313 315 317 319 320 321 321 320 318 318 318 318 320 320 318 314 315 316 313 316 320 323 322 320 317 316
296 297 296 298 302 302 306 307 311 314 314 314 313 314 313 312 312 312 313 316 318 320 320 323 322 321 319 319 318 319 321 320 317 316 318 315 315 317 317 320 321 319 318 316
298 295 294 296 300 299 302 304 311 312 312 312 314 314 316 315 313 313 312 316 317 319 321 322 323 323 322 321 320 321 321 320 317 317 318 316 314 317 317 317 315 297 301 303

GFSCGP_sfc_thetae_024.txt.gz
Theta_e
300 297 293 299 300 299 299 296 296 300 305 303 302 303 306 308 306 305 306 307 308 308 313 317 317 316 315 315 317 318 319 320 323 322 322 320 320 321 321 323 325 324 324 325
295 291 298 300 299 297 297 296 296 301 304 301 302 302 306 308 308 308 308 307 307 309 313 316 315 314 314 314 316 318 319 321 324 322 323 323 321 322 322 322 323 324 325 325
292 296 300 298 299 296 296 295 297 297 301 302 301 299 303 308 310 309 309 308 310 310 311 314 314 313 313 313 316 318 320 322 324 323 322 321 320 320 320 321 320 322 326 325
294 299 299 297 295 299 294 301 301 300 297 291 301 290 298 303 304 305 306 305 308 310 312 315 313 312 313 314 316 321 321 323 324 324 321 317 316 316 317 320 319 321 324 325
292 295 295 294 295 299 297 302 301 301 298 293 297 291 295 300 300 303 304 306 307 310 312 313 314 314 316 314 318 321 321 322 324 322 321 318 317 318 319 319 319 321 321 324
295 300 298 297 300 300 303 300 299 299 296 289 295 293 296 297 301 302 306 306 309 310 311 314 316 316 315 315 318 320 320 321 323 323 320 319 317 317 317 317 319 320 320 321
295 295 299 300 296 299 300 294 287 284 287 287 296 294 297 302 304 304 307 308 309 311 313 314 314 314 313 314 317 319 318 318 320 322 321 320 319 318 317 318 320 320 319 322
289 288 296 300 297 294 295 295 288 282 283 288 296 291 297 304 306 307 310 310 311 312 312 314 315 314 313 314 316 320 317 318 320 322 321 321 320 320 320 320 320 319 320 321
289 290 300 301 301 298 293 290 296 290 292 288 291 296 303 304 307 309 308 310 310 310 311 313 313 312 310 314 315 317 318 316 320 322 322 321 320 319 318 318 320 319 321 325
293 288 298 299 301 300 296 298 290 288 284 282 289 292 294 298 304 307 307 307 309 309 311 313 314 311 311 315 314 316 318 318 319 319 322 322 322 323 320 321 319 321 321 323
296 291 294 297 294 293 292 293 293 294 291 286 284 291 299 299 302 307 308 309 309 309 311 313 312 312 311 313 312 315 316 317 318 319 320 321 322 323 322 323 324 321 321 323
297 290 288 292 297 300 297 293 294 291 288 291 290 291 302 302 305 309 309 310 310 311 311 312 311 311 311 311 313 314 315 316 317 317 321 320 322 322 322 323 321 322 321 323
296 292 285 288 292 297 294 296 297 295 293 290 290 291 303 305 308 310 309 309 310 310 310 311 310 312 312 311 313 314 315 315 317 317 318 320 320 322 321 321 322 324 325 322
297 292 290 287 292 295 293 295 297 297 291 291 295 294 300 302 306 307 309 309 310 310 311 311 310 311 312 313 314 315 315 316 317 316 316 319 319 321 321 323 321 322 323 323
290 288 293 294 296 297 297 296 297 298 297 295 295 296 300 302 307 309 310 309 309 309 310 312 309 310 311 312 314 316 315 314 316 315 314 319 320 321 321 324 323 323 323 324
290 286 293 292 296 296 294 297 298 300 299 297 299 297 304 306 309 310 310 310 309 310 311 312 312 310 310 313 315 316 315 313 317 316 314 319 319 320 321 322 323 322 318 321
287 288 288 288 294 294 290 295 297 300 302 299 295 298 303 303 304 309 309 310 310 311 312 312 312 311 312 312 316 315 315 312 317 316 316 319 319 320 322 320 322 317 315 315
287 287 287 288 290 284 295 301 302 301 302 304 300 301 305 306 308 308 312 311 312 312 313 314 314 312 312 313 315 316 314 311 316 316 317 317 317 319 320 319 318 317 314 314
292 288 286 286 288 291 295 300 299 298 297 303 303 302 304 305 306 304 314 314 314 313 314 315 316 314 313 313 314 316 312 310 315 316 316 317 316 318 319 319 317 316 314 313
292 292 290 289 284 284 293 303 305 304 295 303 304 303 303 303 300 302 310 315 315 315 316 316 316 314 313 314 315 315 311 310 312 314 316 317 316 317 317 318 317 317 315 314
290 290 287 287 287 291 299 304 306 294 296 303 305 304 302 302 305 307 308 315 316 316 315 316 316 314 314 315 316 314 312 310 312 314 315 315 314 315 315 318 317 318 316 316
289 290 289 290 288 286 304 303 297 300 302 306 305 304 304 305 306 307 309 314 315 315 315 316 316 314 314 316 316 315 312 313 313 314 313 313 313 317 317 318 317 317 317 314
286 289 290 292 291 300 303 301 303 308 304 306 306 306 308 306 308 309 310 312 315 316 316 318 317 314 314 316 316 314 315 314 313 313 311 311 313 315 318 319 317 316 316 315
292 296 291 293 298 297 301 302 303 308 309 311 308 310 308 308 308 308 310 312 316 317 316 318 317 314 313 315 316 316 316 317 314 311 311 310 312 313 318 320 320 318 316 315
293 296 293 294 297 298 301 301 302 302 309 313 313 310 310 309 308 309 309 313 316 318 318 318 317 315 314 315 315 316 318 318 315 312 312 311 312 315 317 319 320 320 319 318
297 293 290 291 298 296 298 301 303 302 302 311 313 312 314 313 308 309 310 314 316 318 318 318 318 317 316 316 315 317 319 318 315 313 313 311 311 314 317 318 312 297 305 303

GFSCGP_sfc_thetae_027.txt.gz
Theta_e
296 293 293 297 299 298 295 294 293 298 301 300 298 299 302 306 305 305 304 304 306 306 308 312 312 314 314 315 316 316 319 318 320 319 319 318 317 319 320 320 322 323 323 324
293 290 298 302 301 298 296 293 294 298 301 299 298 298 302 305 305 306 307 305 305 307 311 312 311 314 314 315 316 317 319 318 321 319 320 320 319 320 320 320 321 322 323 323
290 294 299 300 297 297 296 294 294 294 300 300 297 296 299 304 306 308 308 308 307 308 310 311 311 311 312 313 316 317 319 320 321 320 320 318 317 318 317 318 318 319 323 323
291 296 296 296 295 295 291 298 297 296 294 289 297 287 295 300 302 304 306 305 304 308 311 311 311 309 311 312 317 318 319 321 322 321 318 315 314 313 315 317 317 319 323 323
290 293 293 293 294 296 294 300 297 296 294 291 294 289 293 298 299 301 303 304 305 307 311 311 311 311 312 314 316 319 320 321 320 320 318 316 315 316 316 317 317 318 320 322
293 298 297 295 299 299 300 295 295 295 292 287 293 291 291 295 299 301 304 304 306 308 310 310 311 312 312 313 318 318 319 319 320 319 318 316 315 314 315 315 317 317 318 319
291 292 296 299 293 295 295 289 283 282 283 284 294 290 295 299 302 303 304 305 307 309 310 311 311 311 310 315 317 317 318 317 319 319 319 318 316 315 315 317 317 319 318 319
287 285 293 298 295 292 292 291 285 280 282 286 294 289 294 302 305 306 305 306 308 309 310 311 312 312 312 315 317 317 316 316 318 319 319 319 317 317 317 317 318 317 319 320
288 288 297 298 298 296 291 290 295 288 289 285 289 294 300 303 304 305 306 307 307 309 310 311 312 312 312 313 316 317 315 315 319 319 319 318 318 316 316 317 318 318 319 323
291 285 295 297 299 297 292 295 287 286 281 282 288 290 293 297 301 304 305 305 306 307 309 311 312 310 312 313 314 316 316 316 318 319 319 320 319 319 317 317 318 319 320 320
292 289 291 295 293 291 290 290 288 290 287 283 282 288 297 299 303 304 304 306 306 307 310 311 312 310 312 312 312 315 315 317 316 318 319 320 319 320 320 319 319 320 320 321
293 288 286 289 295 299 296 292 290 288 285 288 287 289 300 301 304 306 306 307 307 308 310 311 311 309 309 311 311 314 314 316 316 317 320 319 320 319 318 319 319 321 321 322
293 287 284 285 290 293 293 293 294 290 290 288 288 290 299 300 300 307 305 306 307 307 308 309 308 309 310 310 311 313 314 315 315 316 319 319 319 319 318 318 320 322 322 321
293 288 288 285 288 292 290 293 292 292 287 289 292 291 297 300 303 305 306 307 307 308 310 310 309 310 310 311 313 313 314 315 315 315 318 318 319 319 319 319 318 321 323 322
288 283 290 293 294 293 294 293 293 292 292 290 293 294 298 301 303 306 308 306 307 307 309 310 309 309 309 309 311 313 314 314 315 314 318 318 319 319 321 320 320 321 323 325
289 282 289 290 294 294 292 294 294 294 295 295 295 294 301 304 306 307 308 308 308 308 310 311 310 310 310 311 312 314 314 314 315 313 316 319 318 320 320 321 320 317 318 323
287 285 284 284 293 291 287 292 293 294 298 297 294 298 300 300 306 307 307 309 309 310 311 311 311 310 311 312 313 312 313 313 315 313 315 319 318 319 320 321 319 316 316 315
287 284 284 282 288 281 292 297 298 295 297 300 298 300 303 303 308 310 311 310 310 311 311 312 312 311 311 313 314 313 312 314 315 313 315 318 317 319 318 319 315 314 312 311
291 286 282 282 283 289 293 296 295 293 294 301 302 300 304 306 303 302 312 313 312 312 313 313 314 312 311 312 314 314 311 313 315 314 315 316 316 318 317 316 313 311 311 310
294 289 284 285 281 281 291 299 302 300 292 301 304 300 302 303 300 302 309 313 312 313 313 313 314 312 311 311 314 313 310 312 314 315 315 316 315 318 317 316 313 312 310 311
286 285 282 284 283 290 297 300 303 292 291 301 303 302 300 304 307 308 310 313 314 313 312 313 313 311 311 312 314 313 310 310 315 316 316 314 314 316 316 316 315 313 312 310
284 286 284 286 285 284 299 299 293 296 300 305 303 303 302 306 304 305 310 313 313 312 311 313 313 311 312 313 314 313 310 311 313 315 315 314 312 317 317 316 315 314 312 309
285 289 287 290 291 297 299 297 300 300 298 301 307 306 306 304 304 305 307 312 313 313 313 315 314 311 312 313 315 313 313 310 312 312 312 311 312 313 315 316 314 313 312 311
291 295 291 291 298 297 298 300 300 301 301 302 310 310 304 304 305 306 307 311 313 313 313 314 314 310 310 313 315 315 313 312 312 311 310 309 311 310 314 317 317 316 313 312
290 294 292 291 297 297 299 299 300 301 303 303 304 312 309 304 305 308 308 311 313 314 314 315 314 311 312 314 314 315 314 313 311 310 309 308 311 312 314 317 317 317 317 316
294 292 290 290 297 297 296 300 301 301 300 302 303 311 313 312 306 305 309 313 314 314 315 315 315 313 313 314 314 314 315 314 312 310 309 308 310 312 315 315 310 297 303 301

GFSCGP_sfc_thetae_030.txt.gz
Theta_e
293 290 291 293 295 294 294 291 290 296 299 296 295 296 300 303 302 302 303 304 305 305 307 308 310 313 316 316 317 317 318 318 319 320 319 319 319 320 321 322 323 324 325 325
290 288 294 298 297 295 294 291 291 296 299 296 296 296 300 302 302 303 304 305 305 304 309 310 309 313 315 316 316 317 318 318 320 319 320 321 320 320 322 322 323 323 324 325
288 292 296 297 296 295 295 293 293 293 296 297 295 293 297 302 302 304 306 307 306 306 307 307 310 311 314 315 315 317 318 320 321 320 320 318 318 318 318 319 321 321 323 325
289 294 294 295 295 297 291 298 298 296 292 286 295 285 294 298 300 302 303 302 304 306 309 308 309 310 313 314 316 318 319 321 322 321 319 316 316 315 317 318 320 321 324 325
287 290 291 291 294 299 294 299 298 295 290 287 290 287 292 296 297 300 302 303 303 306 308 308 309 312 312 315 316 318 320 321 320 320 319 318 316 317 318 318 319 321 322 325
291 297 294 294 297 299 299 295 293 292 289 282 290 289 289 293 297 300 302 304 305 307 308 308 310 311 311 314 317 318 319 319 320 319 319 317 316 317 317 318 319 319 320 323
290 290 293 296 292 295 295 288 280 279 280 281 291 289 292 297 300 302 303 302 305 308 307 308 309 310 310 314 316 317 318 318 319 319 319 318 318 317 318 319 319 321 321 322
286 283 292 296 292 290 291 289 283 278 279 285 292 287 292 301 305 304 304 304 306 307 308 309 310 310 312 315 316 317 317 317 318 319 319 319 319 319 319 319 320 320 321 322
286 287 295 297 297 296 290 288 291 286 288 284 288 291 297 301 301 303 303 305 305 306 307 308 310 310 312 315 316 316 316 316 318 319 319 319 320 319 318 320 321 321 322 324
289 284 294 295 297 296 293 295 285 285 281 279 285 288 291 296 300 303 303 303 304 306 308 309 310 310 312 315 316 316 316 316 319 320 320 321 321 321 320 321 321 321 322 322
290 287 288 293 291 289 287 289 287 288 285 281 281 286 296 298 300 302 303 304 305 306 308 310 311 311 312 313 314 316 315 316 318 319 320 321 322 322 321 322 322 322 322 323
290 286 284 288 292 297 294 288 288 286 282 285 286 287 298 300 301 303 304 305 305 307 309 310 310 309 310 311 312 315 315 316 318 318 320 321 321 321 320 322 322 323 323 324
292 285 281 284 288 291 291 291 291 288 286 286 283 286 299 300 301 303 303 305 306 307 308 308 308 309 310 310 311 313 315 316 317 318 320 320 320 320 319 321 323 323 323 323
295 285 285 282 286 289 288 291 292 287 282 286 289 289 296 300 300 301 304 305 305 307 309 309 308 309 310 311 312 313 314 316 316 318 319 319 320 320 320 320 321 323 324 324
291 281 286 288 291 292 290 291 292 289 290 286 290 293 296 299 301 303 305 305 305 306 308 309 309 309 308 309 312 314 315 315 315 317 318 319 320 321 321 321 322 323 325 326
291 281 285 284 291 292 291 291 292 292 292 291 291 291 299 301 304 305 306 306 306 307 309 310 310 310 309 310 312 314 314 314 315 315 318 319 320 321 322 322 321 320 323 325
288 284 281 279 286 288 286 291 291 292 294 293 290 295 298 300 303 304 305 308 308 309 310 310 311 311 311 311 313 313 314 314 315 314 318 320 320 321 322 322 318 319 318 321
287 285 283 279 285 279 290 296 296 293 294 295 295 296 300 302 305 306 309 309 309 310 311 312 312 312 312 312 313 314 313 315 315 314 317 319 320 320 321 320 318 316 315 317
291 288 281 279 282 287 291 294 293 290 292 296 296 299 300 303 304 305 309 312 311 311 312 313 314 312 312 312 313 314 312 314 315 314 315 319 319 319 319 319 316 314 314 314
292 291 284 283 282 280 289 296 300 298 287 297 299 300 299 302 299 303 308 311 311 312 313 313 313 311 311 313 313 313 312 313 314 315 316 318 318 319 319 318 314 314 314 314
285 286 282 282 280 286 295 297 299 287 287 296 298 300 302 300 304 310 309 312 313 312 312 313 313 311 311 313 314 312 312 313 315 317 316 317 318 319 319 317 316 314 314 313
285 284 282 284 281 282 298 296 289 293 296 298 299 299 301 304 307 306 309 312 312 310 311 313 312 311 311 314 315 313 311 315 315 316 316 315 316 320 318 318 316 314 313 311
285 289 286 289 290 296 298 297 298 297 297 298 298 300 301 307 305 305 307 310 312 312 312 313 313 310 311 313 315 313 313 313 315 315 315 314 315 317 318 317 316 314 312 311
291 294 290 291 295 296 297 301 299 299 299 300 300 302 306 308 306 304 306 309 311 312 312 313 312 309 310 312 315 315 313 314 314 313 313 312 313 313 317 318 318 316 313 312
290 293 292 291 295 296 298 298 299 300 301 300 301 302 309 310 303 304 305 309 311 312 312 313 312 311 311 313 314 315 313 313 313 313 312 312 313 314 315 318 317 318 318 315
293 291 290 288 294 294 295 299 301 300 299 300 300 301 304 310 310 306 306 309 312 312 312 313 313 312 312 313 314 314 313 313 313 311 310 310 312 313 315 316 313 297 304 302

GFSCGP_sfc_thetae_033.txt.gz
Theta_e
297 294 293 295 298 300 300 298 297 300 302 300 301 302 304 308 308 309 310 312 314 316 321 318 318 321 324 326 328 330 330 332 331 331 331 332 331 332 334 334 336 334 334 334
293 291 297 300 299 297 296 295 295 299 302 301 301 301 305 307 307 309 310 311 314 316 318 317 317 320 323 325 327 329 330 331 332 333 334 335 335 334 334 335 335 334 332 334
292 295 298 297 297 295 295 294 295 295 300 302 300 299 302 306 308 309 312 314 316 316 317 317 317 320 323 324 327 329 331 332 333 335 334 334 332 332 331 332 333 333 332 333
294 298 295 295 294 297 293 298 297 296 295 293 300 291 300 302 303 308 312 314 315 314 317 317 318 320 322 325 328 330 331 332 334 334 333 333 330 328 331 331 333 332 332 332
291 293 293 293 294 298 295 301 298 297 296 296 296 292 298 303 301 304 309 314 315 315 317 317 318 320 323 325 327 330 332 334 334 334 334 332 330 331 332 332 330 332 334 333
295 298 296 296 298 299 301 299 299 299 297 289 295 293 295 299 301 305 310 313 313 315 316 317 319 321 323 326 327 329 332 333 333 333 333 331 329 329 329 330 331 330 331 333
293 293 297 298 295 299 300 296 289 287 288 288 297 293 295 303 306 308 310 313 314 316 316 316 318 320 322 324 326 329 331 331 332 332 331 329 329 329 329 329 330 326 327 332
289 286 294 297 295 294 296 296 291 285 287 289 295 290 294 306 308 310 312 314 315 316 316 316 318 320 321 324 327 328 330 330 331 331 330 330 329 331 331 330 331 330 330 333
290 290 297 297 299 298 295 293 299 293 294 291 293 297 304 307 308 310 310 312 314 316 316 316 318 320 322 324 327 328 329 330 330 331 331 330 330 330 330 330 333 333 334 334
293 288 296 297 298 299 298 300 290 293 285 284 291 294 295 303 306 310 311 312 314 316 316 316 318 320 323 326 328 329 330 329 330 331 331 330 332 332 330 332 331 332 334 333
295 293 293 296 293 293 294 294 295 295 293 287 285 291 307 307 309 310 313 315 314 315 316 317 318 320 323 326 326 327 328 328 329 330 331 331 332 331 330 331 332 332 334 333
293 293 290 292 298 300 297 296 296 290 289 292 292 292 305 309 309 312 313 314 315 317 317 318 319 320 321 324 325 326 327 327 329 330 330 331 331 329 330 331 332 332 332 332
292 291 287 290 294 297 295 296 297 298 297 291 289 292 305 307 309 311 313 313 314 316 317 318 319 319 320 323 323 325 327 327 328 328 330 331 330 329 330 330 331 333 333 332
294 290 289 288 290 295 292 294 296 296 292 292 292 294 302 305 307 310 312 314 314 316 317 318 318 319 321 322 322 324 326 327 328 328 329 330 331 330 330 331 332 332 332 331
291 285 289 291 291 293 294 294 294 293 295 292 294 295 301 305 306 310 314 314 314 315 316 317 318 319 321 321 322 323 325 326 328 327 328 330 331 331 330 331 331 333 332 331
292 286 289 288 293 293 292 295 295 295 295 295 297 297 305 307 309 311 313 313 314 315 317 318 319 320 320 321 322 323 324 326 327 326 327 329 329 329 331 331 331 331 332 329
290 288 287 287 290 291 289 294 296 296 297 297 294 299 304 305 307 310 315 314 315 316 318 318 319 320 321 322 323 323 324 326 325 325 327 328 329 329 329 329 328 330 331 331
290 288 289 285 289 283 295 301 301 298 299 300 300 302 304 305 308 313 316 317 317 318 319 320 320 321 323 323 323 325 324 325 324 324 325 327 328 329 330 327 328 328 330 330
293 291 287 284 287 292 296 298 297 297 296 300 302 304 305 307 309 310 315 319 320 321 322 322 323 323 324 323 324 323 323 324 323 323 324 326 328 329 330 326 327 327 328 329
293 293 289 287 284 285 294 299 302 301 293 300 301 302 303 307 300 305 316 319 321 322 323 322 323 323 323 323 324 323 322 323 322 323 324 326 328 329 330 329 327 327 329 327
286 287 285 286 286 290 298 300 302 293 293 301 302 303 303 303 309 315 314 319 322 322 323 324 323 322 323 324 323 322 322 322 324 325 325 326 328 330 331 330 327 327 327 326
287 286 284 287 285 286 301 300 294 298 302 302 302 303 303 306 308 310 313 316 321 320 321 322 321 321 323 323 323 322 322 324 325 325 324 325 327 329 329 329 326 326 327 325
286 291 289 290 292 297 301 300 303 303 301 302 303 304 305 306 310 314 316 317 319 320 321 322 321 321 322 323 324 323 324 324 324 324 324 325 327 328 329 329 325 323 325 322
292 295 292 293 295 295 298 300 302 303 303 304 305 305 306 306 310 315 318 318 317 321 320 321 321 320 319 322 324 326 325 324 324 324 324 325 324 326 329 328 326 324 322 321
290 292 292 292 295 296 300 299 300 301 304 304 306 306 307 308 309 313 316 316 316 320 321 322 321 321 320 321 323 325 324 323 324 325 324 324 323 324 327 328 327 325 327 322
293 291 290 290 295 294 295 299 301 301 302 305 304 305 308 309 311 314 317 315 317 320 321 320 322 322 321 321 322 324 323 324 326 323 323 322 322 322 324 325 324 298 305 303

GFSCGP_sfc_thetae_036.txt.gz
Theta_e
302 297 296 300 303 305 305 304 304 306 310 307 307 307 310 313 314 314 315 316 316 319 323 326 327 328 329 332 334 335 335 338 337 335 333 332 332 335 335 337 339 340 339 337
299 295 301 303 304 302 303 302 303 307 309 309 306 305 311 313 314 315 314 315 317 320 323 325 326 327 330 332 334 336 337 339 337 335 336 335 336 335 336 338 339 339 338 338
297 298 302 301 301 300 301 300 302 302 306 308 305 302 307 312 314 315 315 316 316 320 323 325 325 327 330 331 334 335 337 338 338 339 338 338 338 336 334 335 335 337 336 336
298 303 300 299 298 301 297 303 301 300 299 296 305 296 305 309 310 313 314 315 317 321 323 325 326 328 329 331 334 336 337 338 338 341 337 337 332 330 336 335 337 336 336 336
296 298 299 298 299 301 299 302 302 301 299 299 300 297 303 309 307 310 313 315 318 322 323 325 326 327 329 331 333 335 337 337 339 340 339 335 333 334 335 335 334 337 338 337
298 303 301 301 302 302 303 300 302 302 300 293 298 298 299 305 308 311 314 314 319 322 324 325 327 328 329 331 333 334 336 337 339 338 338 335 334 333 332 333 334 337 339 338
296 297 301 302 299 302 301 298 293 291 292 292 302 299 301 309 310 311 311 315 321 323 324 324 325 326 328 329 331 333 335 335 337 336 336 334 335 335 334 332 335 333 333 337
290 290 297 301 299 298 298 299 293 288 291 295 302 296 302 310 312 314 314 315 321 323 324 325 325 327 327 329 331 332 333 333 335 335 334 335 335 335 334 335 335 335 335 338
291 292 301 301 302 302 298 297 303 299 301 295 300 303 305 308 310 311 313 314 319 323 324 324 326 327 327 329 331 332 331 332 333 334 334 335 336 336 334 335 338 338 338 337
295 290 300 300 302 303 302 304 296 298 291 290 296 297 297 305 308 310 313 316 320 323 323 324 325 327 329 330 332 332 331 332 333 334 334 335 335 336 336 336 335 337 336 335
297 294 297 300 297 297 298 298 300 301 298 293 292 295 305 308 310 312 316 318 322 323 323 324 325 327 329 331 331 330 331 331 332 333 335 335 336 336 334 335 336 336 336 336
296 296 293 296 301 303 302 300 301 295 294 297 297 295 308 312 314 316 316 319 322 323 323 324 325 327 327 329 329 328 330 330 332 332 334 334 335 335 334 334 335 336 335 335
293 294 289 293 298 301 299 301 302 302 303 296 293 295 307 312 313 316 318 320 321 323 323 324 324 325 327 328 327 326 328 328 331 331 333 335 334 334 334 334 335 335 335 335
295 291 293 291 294 298 296 298 301 300 296 297 296 297 304 310 312 315 319 320 321 322 323 323 324 325 326 328 326 325 327 329 330 330 332 333 333 334 334 335 335 334 334 332
295 289 294 296 296 296 298 297 298 298 299 296 298 298 301 309 311 314 317 320 320 322 322 323 324 325 326 327 325 325 326 328 329 329 330 333 334 334 334 334 334 334 334 332
296 290 293 292 296 296 295 298 299 299 300 300 300 299 305 309 311 310 316 319 319 321 322 323 324 325 326 326 324 325 326 327 329 328 328 333 333 333 333 333 334 334 333 332
292 291 291 289 295 295 292 297 298 299 301 301 297 302 307 307 309 310 314 318 319 322 323 324 324 326 327 326 326 325 326 327 327 327 328 330 332 331 333 332 332 334 334 333
291 292 292 290 294 285 299 305 303 301 302 303 302 305 307 308 310 313 315 318 321 323 324 326 326 328 329 328 327 327 327 326 325 326 327 329 330 330 332 330 331 334 334 333
295 293 289 289 290 294 299 302 302 301 300 304 305 307 309 310 312 312 315 316 321 325 327 328 329 330 330 328 327 326 325 325 323 324 326 327 330 331 331 329 331 333 334 333
296 294 289 290 288 286 297 303 305 306 298 305 306 306 308 310 303 308 320 322 322 325 328 329 330 330 330 329 328 326 325 324 323 324 325 327 330 332 331 331 330 333 333 333
289 290 286 288 290 294 301 304 306 295 297 306 307 308 309 308 312 317 319 320 323 326 328 331 331 329 331 331 329 325 324 324 324 324 325 327 330 333 335 333 332 332 331 333
288 286 286 288 286 288 303 304 299 301 307 307 308 310 309 312 314 316 318 320 321 323 326 329 329 329 332 331 329 325 324 326 325 325 324 326 329 331 333 334 331 330 331 330
288 292 292 293 292 298 302 302 306 307 306 307 308 310 311 311 313 316 317 322 324 323 326 329 329 330 331 331 330 326 326 326 326 325 325 326 328 329 333 333 331 328 329 325
295 298 294 296 295 296 299 305 306 307 307 308 310 311 312 312 315 316 318 321 325 324 325 328 328 329 329 330 330 329 328 326 326 326 326 327 327 327 331 332 330 327 325 322
291 292 291 295 298 298 300 303 304 305 307 308 310 311 311 313 315 317 320 321 324 324 326 327 327 328 329 330 329 330 329 326 326 327 327 328 326 327 328 331 330 328 331 322
296 292 290 290 299 297 298 302 304 303 305 305 308 309 312 313 314 318 322 324 325 322 325 326 328 329 329 329 329 330 330 328 327 327 327 327 325 326 326 326 328 298 304 306

GFSCGP_sfc_thetae_039.txt.gz
Theta_e
305 299 297 300 303 305 305 305 304 308 312 310 309 311 313 314 315 315 316 317 319 321 324 325 329 333 333 336 340 340 341 350 344 339 335 335 333 336 337 337 339 339 341 339
301 296 302 304 304 303 304 303 304 308 312 310 309 309 312 314 314 315 317 318 320 321 321 324 329 333 333 336 338 339 339 344 343 340 342 337 337 336 337 337 340 341 341 341
297 301 304 302 301 301 302 302 303 304 309 309 309 306 309 313 315 315 316 319 320 320 320 323 330 332 334 335 338 338 340 342 343 346 341 341 339 338 334 334 336 338 338 337
299 302 302 301 300 302 298 305 305 304 303 299 308 297 306 310 311 313 316 319 319 320 321 325 331 332 334 335 338 339 341 341 341 343 343 342 333 331 335 337 338 338 339 338
295 299 299 299 300 303 301 306 305 304 302 301 301 298 302 308 307 311 315 318 320 319 322 327 330 332 334 336 336 339 340 340 341 342 341 337 334 332 334 335 337 339 339 338
298 304 303 301 304 304 305 303 304 305 302 294 300 299 300 303 307 311 315 318 319 319 326 329 331 333 333 335 336 338 339 339 341 339 339 339 335 335 333 334 336 336 341 340
294 297 302 304 300 304 304 300 293 293 292 294 302 299 302 308 311 313 315 317 318 323 326 328 329 330 332 333 334 336 337 338 339 338 337 337 338 337 335 336 335 335 340 338
288 287 298 303 301 300 301 300 294 288 291 294 302 297 302 313 315 317 316 316 322 325 327 328 329 330 331 332 334 334 336 336 336 335 335 336 338 334 335 335 337 340 340 338
290 289 301 302 304 303 300 298 304 298 301 297 301 306 311 313 313 314 315 316 319 325 327 328 329 330 331 332 334 335 335 335 334 334 336 336 336 336 335 336 339 340 340 338
296 290 296 301 303 303 302 306 296 300 292 292 298 301 303 307 310 313 313 314 318 326 326 328 329 330 331 333 334 335 335 332 333 334 334 334 338 335 335 336 335 337 337 335
296 293 296 299 299 297 299 299 300 302 300 294 293 299 309 309 311 312 313 316 319 325 326 327 328 330 331 333 333 333 332 332 332 333 334 336 335 336 334 335 335 338 338 337
297 294 292 296 301 304 302 300 302 298 297 300 300 299 309 311 313 314 316 318 322 326 326 327 328 329 330 331 332 331 331 331 332 333 334 336 335 334 336 334 335 335 335 336
296 293 288 293 299 302 299 302 304 304 305 299 296 300 310 313 314 317 318 320 325 325 325 326 327 328 329 330 330 328 329 330 331 331 333 335 335 334 335 335 335 335 335 335
296 293 292 289 295 299 297 300 303 303 299 300 300 300 304 311 314 317 320 323 324 324 324 325 327 328 329 330 328 327 327 329 331 331 332 333 335 335 336 336 334 334 335 333
293 291 293 294 296 299 299 299 300 301 302 300 303 302 305 313 316 316 321 322 322 322 323 325 326 327 329 329 326 326 327 329 330 330 331 333 334 334 335 334 334 334 333 334
292 291 295 290 293 297 297 300 301 301 303 304 304 303 308 311 312 313 318 320 321 322 323 325 326 327 328 328 325 326 327 328 329 329 330 332 332 332 332 334 335 334 333 333
292 293 293 287 293 295 292 299 301 302 304 304 300 303 309 308 309 311 314 319 321 323 324 325 327 327 329 328 326 326 327 328 328 329 329 331 331 331 333 330 332 334 334 333
293 291 294 289 291 286 298 305 304 302 304 306 306 305 309 309 312 314 317 319 321 324 325 327 328 329 331 329 326 328 327 327 326 327 328 329 331 330 331 329 332 334 335 332
297 292 290 289 288 295 299 303 302 302 302 308 307 307 309 312 313 312 320 322 322 325 327 329 330 331 332 329 327 327 326 326 325 326 327 328 330 330 329 328 331 336 335 331
297 296 291 292 287 286 296 306 309 309 299 308 309 310 311 312 305 312 320 321 325 327 329 330 331 332 332 330 328 327 325 325 323 325 327 329 330 331 329 330 331 334 336 330
290 292 289 289 292 296 303 306 309 297 298 309 310 311 311 310 314 318 319 320 324 326 329 332 332 331 333 331 329 326 325 324 324 326 327 328 332 334 334 333 332 332 335 334
289 288 290 290 289 287 303 306 301 305 309 310 311 312 311 314 315 318 319 321 324 324 327 330 331 332 334 331 328 326 325 326 325 325 326 328 332 332 333 333 331 331 333 332
291 293 293 296 293 298 302 303 308 309 307 309 311 313 313 314 316 318 320 321 323 326 326 330 332 332 334 332 329 326 327 327 325 325 326 328 331 332 335 332 330 327 330 331
292 297 294 295 297 300 300 304 306 308 306 310 312 313 314 313 316 318 321 323 323 327 326 329 331 331 332 332 331 329 328 327 325 325 326 328 328 330 334 332 330 326 325 325
294 295 292 294 298 302 300 304 305 307 308 310 311 312 313 314 316 318 320 323 325 327 327 329 330 331 332 333 331 331 328 326 327 327 326 327 327 328 332 333 330 327 330 320
298 296 293 291 298 298 299 305 307 306 308 308 308 310 314 315 315 318 320 324 328 327 327 328 331 331 332 332 331 331 328 326 330 330 326 325 326 326 328 330 329 298 304 303

GFSCGP_sfc_thetae_042.txt.gz
Theta_e
302 297 295 298 301 302 303 302 301 306 309 308 308 308 312 316 316 316 317 317 319 321 324 328 330 342 339 342 347 349 348 352 348 346 341 339 337 340 340 343 344 343 343 341
297 295 301 302 302 301 300 300 301 305 308 307 307 308 313 315 315 316 317 317 318 321 324 327 333 339 340 342 346 346 346 350 346 344 342 340 339 338 338 343 343 343 340 342
294 297 302 301 299 299 300 299 300 300 304 307 306 305 309 313 316 317 318 319 320 320 319 323 332 337 338 339 341 342 345 346 345 346 343 348 347 343 340 340 339 341 340 340
295 301 298 299 298 299 296 302 301 301 300 297 306 296 306 310 312 315 317 318 318 319 321 326 331 335 337 337 340 342 344 343 344 348 345 344 339 334 340 341 340 340 341 338
291 295 297 295 299 302 298 303 302 301 300 300 300 298 302 309 308 311 315 317 318 320 324 325 332 334 335 338 338 341 343 342 345 346 345 342 341 340 340 340 339 341 340 338
294 299 298 299 301 301 304 301 301 301 300 294 300 298 299 303 307 310 314 315 317 320 322 329 333 335 335 337 338 340 340 341 343 344 346 345 342 341 338 338 337 338 336 338
294 293 296 299 297 301 300 299 292 290 291 291 301 298 301 307 311 312 313 316 318 322 323 329 331 331 333 334 337 338 338 339 341 341 342 341 342 342 340 339 338 337 336 335
288 287 293 298 297 297 298 299 293 286 288 292 299 295 300 310 313 315 316 318 320 322 328 329 330 331 332 334 336 336 337 337 339 338 339 341 342 338 340 341 337 339 339 338
287 289 299 297 299 300 298 295 302 296 297 293 297 302 307 311 312 314 315 318 320 326 327 328 330 331 332 333 335 336 337 337 337 337 339 339 340 341 340 339 339 339 340 339
291 286 296 299 298 300 299 303 294 297 288 288 295 298 300 308 311 313 314 317 320 326 327 328 330 331 333 334 336 338 338 336 336 337 337 337 338 337 339 339 337 340 339 338
294 290 291 297 294 294 297 296 298 300 297 291 291 296 312 310 312 313 315 316 320 325 326 327 329 331 333 334 334 336 336 334 334 335 337 337 337 337 337 338 338 338 338 337
295 291 289 292 299 300 301 298 299 295 294 297 297 298 313 313 313 315 316 317 323 326 326 328 329 330 331 332 333 334 333 331 333 334 335 335 334 336 337 335 337 335 336 335
294 291 286 289 295 300 298 300 301 302 304 297 294 298 313 311 313 315 317 316 323 324 326 327 327 328 330 331 331 330 331 331 331 332 334 334 334 337 336 337 337 337 337 334
297 291 288 285 289 293 293 298 300 301 296 297 299 301 306 309 312 315 318 322 323 324 326 326 326 328 330 330 329 328 329 331 331 332 333 332 331 335 336 337 337 336 336 334
295 286 289 291 291 292 292 294 298 298 301 297 301 303 306 311 315 319 323 324 322 323 324 325 326 328 329 329 328 327 328 330 330 330 333 333 332 335 335 335 336 336 335 334
294 286 290 288 292 290 289 294 298 300 301 303 304 304 310 313 313 318 320 321 321 322 323 325 327 328 329 328 325 327 327 329 330 330 331 333 332 332 332 335 335 334 333 333
291 290 289 286 291 290 287 295 299 301 304 304 301 307 311 309 310 315 320 321 322 323 324 325 327 328 330 328 327 327 328 329 329 329 332 331 331 330 332 333 334 333 333 333
292 290 290 287 289 279 293 305 304 302 304 308 307 307 309 310 313 314 318 321 323 324 324 326 328 330 332 329 327 328 328 327 327 328 328 330 331 330 332 332 333 334 334 331
297 292 289 286 286 289 295 302 303 300 301 308 308 309 308 311 315 317 319 321 324 328 328 328 331 332 332 329 328 327 326 326 325 326 328 328 330 329 329 332 333 333 329 329
296 295 290 289 284 283 294 303 308 308 298 309 311 311 311 312 306 312 319 320 322 326 330 329 331 333 333 330 329 327 325 325 324 326 327 329 331 330 329 332 334 335 330 329
289 290 288 288 287 291 297 304 309 296 296 310 311 311 311 309 312 318 321 322 324 326 329 332 332 331 334 331 330 327 325 324 325 327 328 330 332 332 332 334 335 334 331 330
289 288 289 291 287 285 299 302 297 301 309 310 311 312 311 313 315 317 319 321 322 324 327 331 332 333 334 331 329 327 326 327 326 327 327 329 333 330 332 333 335 333 332 327
288 290 288 291 290 298 302 301 305 306 306 308 310 312 313 313 314 317 318 321 322 324 327 329 332 334 334 331 329 327 329 327 325 326 328 331 334 333 333 331 333 331 332 327
294 298 293 293 295 299 301 304 306 306 306 309 310 311 313 312 315 316 318 321 323 323 325 328 332 333 332 332 330 330 329 327 325 327 329 330 332 332 332 330 329 326 330 328
294 296 294 294 297 299 300 302 304 306 307 308 309 310 311 313 314 316 317 320 324 325 327 329 331 332 333 333 331 331 328 327 326 327 329 329 331 333 332 330 326 326 329 327
296 294 291 290 298 298 298 302 304 304 305 308 308 308 311 313 314 316 317 321 325 327 327 329 331 334 334 333 331 330 328 327 328 327 327 327 327 329 331 329 325 298 303 300

GFSCGP_sfc_thetae_045.txt.gz
Theta_e
294 290 289 292 295 297 298 297 296 300 304 303 301 302 305 309 308 309 311 311 311 312 315 316 319 322 327 331 336 335 338 339 342 340 334 330 329 329 328 331 332 334 334 334
293 287 294 298 297 296 295 293 294 300 304 302 301 301 306 308 308 310 311 310 312 311 315 317 319 326 327 330 332 333 338 338 337 336 332 331 330 328 329 330 332 331 331 332
290 293 297 297 296 294 294 293 293 294 300 301 299 296 300 305 309 311 312 312 312 312 312 313 324 325 327 330 330 332 336 336 335 333 332 332 331 330 327 328 329 330 332 333
288 295 296 294 293 296 290 298 297 297 295 290 297 288 297 302 304 308 310 309 311 312 314 313 324 325 327 329 331 334 335 334 334 331 330 327 325 321 324 326 328 331 332 331
287 290 290 292 293 297 294 299 297 297 294 292 293 289 296 301 301 304 308 310 311 312 311 312 324 328 329 330 330 333 333 332 333 331 331 329 327 327 326 327 327 329 330 329
290 295 292 291 295 298 299 297 296 295 292 286 291 291 293 296 300 302 307 308 310 309 312 324 327 329 329 331 332 332 331 331 332 332 331 327 325 326 325 325 325 326 326 328
291 291 295 295 290 293 294 290 283 283 284 284 293 291 295 299 303 306 306 308 309 310 317 324 325 326 328 329 331 331 330 330 330 331 329 327 327 326 325 324 324 325 325 325
285 284 294 298 291 288 289 290 284 279 281 285 293 289 293 303 307 308 309 308 309 309 322 324 325 326 328 330 330 329 330 329 330 328 328 327 329 326 326 326 326 326 326 326
285 285 295 294 295 293 288 286 293 287 290 286 289 294 299 302 303 306 307 308 316 318 322 323 324 326 328 328 328 329 330 329 330 328 327 327 327 327 326 327 327 327 328 330
290 282 291 292 296 297 294 294 286 288 281 281 288 290 291 298 301 304 306 308 317 320 321 323 324 326 328 329 328 329 329 329 328 327 326 327 326 327 327 327 326 329 329 329
290 286 287 292 289 290 290 287 288 289 289 284 283 288 299 304 305 304 307 309 318 319 321 323 324 326 327 328 329 329 328 327 326 325 326 327 327 327 326 326 328 328 327 329
292 287 283 286 294 297 295 291 289 285 285 289 288 289 301 304 305 307 308 309 319 320 322 323 324 326 326 326 328 327 325 325 326 326 327 327 329 327 326 326 327 329 327 328
291 285 280 283 288 294 292 295 293 292 292 288 287 290 302 306 305 307 306 312 319 320 321 323 324 324 325 326 327 325 324 324 325 327 327 329 328 326 325 326 327 328 327 327
295 286 284 279 284 290 287 290 293 291 288 289 291 292 298 304 305 307 307 317 319 320 321 322 322 324 325 326 325 324 323 324 324 326 326 329 328 326 326 325 326 327 327 326
293 284 286 287 289 290 290 289 290 288 290 289 293 295 298 303 306 311 315 317 318 319 320 321 322 323 324 323 322 323 322 324 324 326 328 328 329 327 327 327 326 327 327 326
293 284 287 286 290 291 289 290 291 291 292 293 296 295 307 308 313 315 316 317 318 319 320 321 323 324 324 323 321 321 322 323 324 327 328 326 329 330 326 326 326 325 325 326
289 287 286 283 291 288 283 288 290 291 295 296 293 301 306 306 309 311 316 317 318 319 320 322 323 324 324 321 321 318 322 322 324 326 327 328 329 328 328 328 326 324 323 323
289 288 288 285 288 279 289 297 301 299 302 303 303 306 307 310 311 312 315 315 318 320 321 322 323 323 323 321 320 320 322 321 322 325 327 328 327 326 328 326 325 323 325 322
292 290 287 285 284 289 291 296 296 297 300 306 305 305 308 313 312 310 315 317 317 318 322 323 325 325 322 321 321 321 321 320 320 323 326 327 328 326 326 325 324 323 324 321
293 294 287 286 282 282 290 297 302 303 293 307 308 307 308 310 301 305 313 316 317 319 322 324 326 325 321 321 321 320 319 318 318 321 323 327 327 327 327 325 324 323 322 322
288 288 285 285 285 287 294 298 305 292 294 304 308 308 306 305 306 310 314 315 317 319 322 326 326 324 321 321 321 318 318 317 319 322 323 325 326 325 327 326 325 323 322 323
286 286 286 287 285 283 298 298 294 298 303 306 306 306 307 309 310 312 315 316 318 319 321 324 325 324 323 322 321 318 317 319 319 322 323 326 324 326 325 326 324 324 322 323
285 290 287 286 286 298 298 298 303 304 302 304 304 306 308 308 309 312 314 316 317 320 321 325 325 325 323 322 321 318 318 320 318 320 324 325 325 325 323 325 325 324 320 320
293 296 292 292 294 297 299 301 302 302 302 306 305 306 307 306 309 311 313 315 317 319 323 325 325 324 322 322 322 321 322 320 319 320 325 326 325 323 322 325 327 325 321 320
293 294 289 293 295 297 298 299 301 301 304 305 306 305 306 306 307 311 313 314 316 319 322 324 326 325 323 323 323 324 323 320 319 322 324 326 326 325 322 320 318 325 325 322
295 291 289 288 294 295 296 300 302 302 302 304 303 304 306 306 307 311 312 314 315 317 319 321 322 327 326 324 323 324 323 320 321 321 323 325 326 326 324 315 311 298 298 303

GFSCGP_sfc_thetae_048.txt.gz
Theta_e
292 286 286 290 293 295 295 294 293 297 302 300 299 300 304 306 305 306 308 308 309 311 313 315 316 316 324 325 323 330 334 334 338 336 330 328 326 325 326 328 331 332 332 333
289 285 291 294 295 293 292 291 291 295 299 299 299 298 303 305 306 306 307 307 307 308 311 313 313 320 325 328 329 332 334 335 335 333 329 328 327 326 326 327 328 332 332 332
288 291 296 292 292 291 291 290 291 291 296 297 295 293 296 301 303 305 306 309 309 309 310 311 314 321 326 328 329 333 334 334 334 332 330 328 327 326 325 326 326 328 330 330
286 290 291 292 289 292 287 295 294 293 292 286 295 285 294 298 300 302 304 305 307 310 311 311 315 321 325 326 329 333 333 334 332 330 329 326 323 321 322 324 325 326 330 330
285 287 288 288 291 294 290 296 294 294 291 289 291 286 292 296 297 299 302 305 308 309 309 310 316 323 326 328 331 332 331 331 329 329 327 325 321 322 323 324 324 326 327 329
289 293 290 289 292 292 294 293 292 292 288 283 288 287 290 293 296 298 302 305 307 308 308 311 322 326 326 329 331 331 329 328 328 328 327 324 323 323 323 322 323 323 324 325
290 289 292 293 288 291 288 283 279 278 280 281 290 287 291 295 299 300 301 303 306 307 315 321 323 325 327 328 329 328 328 326 328 327 326 325 324 324 323 322 322 322 322 323
284 282 293 297 291 285 285 284 280 275 277 282 290 285 290 299 303 303 304 306 307 303 318 321 324 325 327 328 328 328 328 325 327 325 324 325 324 323 323 323 323 323 323 323
283 284 293 293 293 291 286 282 286 282 286 281 286 290 296 300 300 302 302 303 304 309 318 321 323 325 327 328 327 328 327 326 325 325 324 324 324 323 323 324 325 325 324 326
288 281 290 292 294 292 290 292 281 281 277 277 283 287 289 294 296 299 300 301 310 317 319 321 323 326 327 327 328 328 327 326 325 324 324 324 324 325 324 324 323 325 325 327
288 285 285 290 288 286 288 285 285 284 283 281 279 284 294 295 297 299 303 304 316 318 320 321 324 326 326 326 328 327 326 325 324 323 322 323 324 325 324 324 325 325 325 326
289 285 281 284 290 292 291 288 287 280 280 284 285 286 299 297 298 301 303 315 317 320 320 322 324 325 325 326 327 326 325 324 322 323 324 324 324 324 322 324 325 326 325 325
291 283 278 279 285 292 289 293 291 288 285 283 281 285 298 299 301 302 303 315 317 319 320 322 323 324 325 326 327 326 324 324 322 324 324 324 323 323 323 323 325 325 325 325
295 286 281 276 281 288 285 289 291 288 283 284 286 288 294 298 299 301 307 315 317 319 320 321 322 323 325 327 327 324 323 324 322 324 324 327 324 323 323 323 324 325 325 325
290 283 287 286 287 288 287 287 289 288 288 285 289 288 293 296 299 301 308 316 317 318 319 321 321 322 324 325 324 324 323 322 323 326 327 327 328 324 324 324 324 325 324 324
291 285 288 285 288 288 287 290 290 290 290 290 290 290 299 301 309 310 313 316 317 318 320 321 322 323 324 323 322 322 322 321 324 325 327 326 326 325 324 324 323 324 323 323
286 284 284 281 288 288 283 289 290 290 293 292 287 293 299 307 310 310 312 317 317 319 320 321 322 323 323 323 322 320 322 321 324 325 327 327 327 325 325 325 323 322 320 320
286 285 286 281 285 278 289 298 299 296 300 303 300 299 302 308 309 313 315 315 318 319 320 322 323 323 323 322 320 320 321 323 325 325 326 327 325 325 325 324 322 320 320 319
291 288 283 282 283 288 291 292 293 295 296 304 300 307 307 310 310 310 314 317 316 320 321 323 325 323 321 320 318 320 320 322 324 324 327 325 324 325 324 322 320 320 321 318
291 291 286 284 281 280 287 292 297 299 292 302 302 303 308 308 302 306 313 316 317 321 323 324 324 322 320 319 320 320 318 319 322 324 325 325 326 325 323 321 320 320 319 319
288 287 283 283 283 287 293 293 300 291 290 300 303 304 306 305 309 311 314 316 319 319 322 325 323 320 320 319 320 318 318 316 319 324 326 324 325 325 324 321 320 319 320 319
284 284 285 285 284 281 295 294 290 295 300 301 303 304 304 305 309 312 313 315 319 319 322 324 322 319 319 320 320 317 316 318 317 321 323 322 324 327 326 322 320 320 320 321
286 289 286 285 284 293 296 295 300 301 299 300 302 304 305 303 304 309 311 315 318 321 321 323 321 318 319 319 320 317 318 317 317 321 322 321 322 325 325 322 320 319 318 322
291 294 289 288 293 294 297 300 301 302 301 303 305 305 305 303 305 307 311 312 315 319 322 325 322 319 317 318 319 319 318 318 319 321 321 321 320 320 323 323 323 320 318 318
292 292 290 290 294 295 296 298 300 302 304 304 305 304 304 303 304 306 309 311 313 317 320 324 324 321 320 319 318 319 320 317 319 321 321 321 321 321 321 322 320 321 320 320
292 292 288 288 294 295 295 299 302 301 302 304 304 303 304 303 303 307 309 311 313 317 319 320 323 323 322 321 319 321 320 318 320 321 322 321 321 320 320 315 309 296 300 305

GFSCGP_sfc_thetae_051.txt.gz
Theta_e
291 286 285 290 292 293 293 293 291 295 299 299 298 298 301 304 304 305 306 308 309 308 310 312 313 314 313 313 313 316 327 328 332 331 327 325 327 324 325 329 333 332 332 331
287 285 291 292 292 291 291 288 288 293 297 295 295 296 298 302 303 304 305 306 306 306 307 310 311 311 315 317 319 321 329 331 331 329 325 325 324 323 325 326 328 331 332 332
285 288 293 291 289 289 289 288 289 289 294 295 293 291 294 297 300 303 305 305 306 305 306 308 309 312 316 321 324 326 330 331 331 328 328 325 324 324 323 323 324 327 330 330
284 289 289 288 288 289 284 292 292 291 289 284 292 283 291 295 296 299 301 302 301 304 307 308 309 311 319 322 327 329 331 331 331 329 327 326 322 320 321 323 323 325 328 328
283 285 285 286 287 291 286 292 291 291 288 285 287 283 289 294 294 297 299 301 302 305 305 307 308 312 320 325 328 330 331 329 328 329 328 325 320 320 321 322 323 323 325 327
286 291 288 287 290 290 292 289 289 288 286 281 286 285 287 291 294 297 300 300 303 304 305 305 308 318 323 326 328 328 330 326 327 327 325 323 322 320 321 320 321 322 322 324
288 287 290 291 285 288 286 281 277 276 277 279 288 285 289 293 296 297 297 299 302 303 302 312 317 320 323 326 327 327 328 325 325 324 323 323 322 321 321 321 321 320 320 320
283 280 288 294 288 285 283 282 277 275 276 280 288 283 288 297 300 301 301 300 301 301 301 313 318 321 325 326 326 326 326 324 324 323 322 322 322 322 321 321 321 321 321 321
284 284 292 292 292 290 285 280 285 279 281 279 283 289 294 297 297 298 299 298 298 300 306 315 319 322 325 325 324 325 325 324 323 323 323 322 322 322 321 322 322 322 321 323
287 280 289 291 292 291 287 289 279 278 275 275 281 283 286 291 294 297 297 298 299 301 312 318 322 324 325 325 325 324 325 324 322 322 323 323 322 322 322 322 322 323 323 325
288 283 284 289 286 283 285 284 285 282 280 276 277 281 291 293 296 295 296 299 302 307 316 320 323 325 325 325 325 325 324 323 321 322 321 321 322 322 322 322 323 323 323 324
289 284 280 283 289 291 287 286 285 280 278 282 280 283 295 294 294 296 297 301 311 313 317 321 324 324 324 325 324 324 324 323 321 321 321 321 322 321 321 322 323 324 323 324
288 282 277 278 284 290 286 289 289 287 284 281 279 282 294 294 295 297 297 305 314 316 318 321 322 323 324 325 325 324 324 322 321 321 321 321 320 320 320 321 323 324 323 323
293 284 280 275 280 286 282 286 290 286 281 283 284 286 290 293 295 298 298 308 313 315 319 321 321 322 324 326 325 324 323 322 321 322 322 321 321 321 321 321 322 323 324 323
289 283 284 285 287 287 286 285 286 285 287 283 287 288 291 294 297 300 301 302 314 316 318 320 321 322 324 325 325 324 323 321 321 323 323 322 321 321 321 322 322 323 323 323
287 280 286 282 287 287 285 287 288 288 288 289 289 288 295 298 302 307 310 309 313 316 319 320 321 323 323 324 324 323 322 321 322 322 323 324 323 323 322 321 322 321 321 323
288 283 282 279 286 287 282 287 288 289 291 290 285 290 297 299 301 307 309 310 315 317 320 320 321 323 324 324 324 321 320 321 322 323 325 327 326 323 322 322 322 320 319 319
286 284 285 281 283 275 287 295 294 291 292 293 295 301 303 303 304 310 312 311 316 319 320 321 322 323 324 324 322 321 319 321 322 323 325 327 324 322 323 321 320 318 317 317
289 286 283 280 280 285 287 291 291 290 293 298 297 300 302 306 308 308 313 315 314 319 321 322 323 324 323 321 320 320 319 321 322 322 326 325 323 323 322 320 318 318 319 316
290 290 285 283 278 277 285 292 295 295 287 298 298 299 299 303 299 303 311 316 317 317 322 322 323 324 322 320 319 319 318 320 321 323 324 324 323 323 322 319 318 317 319 316
286 285 282 282 280 285 288 289 294 287 287 298 298 299 300 298 303 309 312 316 319 320 321 323 323 321 321 318 319 318 318 319 322 323 324 323 323 322 321 319 317 317 317 316
285 283 285 284 282 279 290 290 289 294 299 298 299 302 302 302 303 307 311 315 318 321 322 323 321 319 319 318 319 317 316 320 321 323 322 322 321 324 322 319 317 318 317 315
284 288 285 284 284 291 294 295 299 301 299 299 300 303 303 301 301 306 310 313 315 320 323 324 321 317 316 319 319 316 317 316 318 319 320 321 322 323 321 319 317 317 317 319
290 293 288 288 292 293 297 299 301 301 302 301 304 304 304 302 301 305 310 312 314 319 323 322 317 316 315 318 319 318 316 316 318 317 318 320 322 320 320 320 319 318 318 321
292 293 288 289 293 295 297 298 300 301 304 303 305 305 304 304 302 306 309 312 315 318 322 322 318 317 316 316 316 316 317 317 317 318 319 319 321 321 320 319 317 319 319 318
294 292 289 289 295 294 296 299 301 300 301 303 303 304 305 305 303 306 310 313 316 317 319 319 322 318 318 317 317 317 317 318 318 318 318 318 319 320 321 316 311 295 300 304

GFSCGP_sfc_thetae_054.txt.gz
Theta_e
289 285 284 289 292 292 291 290 289 292 297 298 297 298 300 302 302 303 304 306 307 308 312 310 311 312 312 312 312 312 315 321 328 327 326 326 328 328 328 332 334 334 334 333
286 283 289 291 291 290 289 287 286 291 295 294 293 292 294 297 299 301 303 304 305 306 306 308 309 309 310 311 313 314 317 324 327 328 325 327 325 325 327 329 333 334 334 333
282 286 292 290 288 288 287 287 287 288 293 294 291 290 293 296 297 299 301 303 305 304 304 307 307 307 308 312 316 319 322 327 328 327 325 323 324 324 324 325 327 331 333 333
283 288 288 286 286 287 282 290 291 290 288 284 290 282 291 294 295 296 297 299 300 302 305 306 306 307 308 313 323 325 328 329 327 327 325 326 323 322 322 324 325 328 331 331
283 284 284 284 285 289 285 291 289 289 286 284 285 282 286 291 291 294 297 299 300 300 303 303 305 307 308 317 324 327 328 328 327 326 327 324 322 321 322 324 324 326 328 329
285 289 287 286 289 290 291 287 286 286 284 277 284 284 285 289 292 295 297 299 300 299 300 302 304 305 312 323 326 327 327 326 327 327 325 324 323 322 322 322 322 323 325 326
287 287 288 289 284 286 285 280 275 275 275 277 286 283 287 292 294 296 296 297 298 299 300 301 304 312 317 323 325 327 327 324 326 326 325 324 323 323 323 322 322 322 323 324
282 279 286 289 286 282 281 280 276 274 275 277 286 281 286 294 298 299 299 298 298 298 298 300 304 312 320 323 325 327 326 323 324 324 323 323 323 322 322 323 323 323 324 325
283 283 292 292 290 289 283 279 283 278 279 276 281 285 291 295 296 297 297 297 297 297 299 300 306 317 322 324 323 326 325 323 323 322 322 322 323 323 322 323 324 324 324 325
287 281 289 291 293 289 286 287 279 276 274 274 278 281 284 290 292 295 296 296 297 299 301 300 315 321 324 324 324 325 325 323 323 323 323 323 323 323 323 324 324 324 325 327
287 283 284 289 284 282 284 281 282 280 278 276 275 279 289 291 293 293 294 295 298 309 311 313 321 323 324 324 324 323 323 322 322 323 323 322 322 323 323 323 324 325 326 327
288 283 280 283 289 290 286 283 283 278 278 280 277 279 292 292 292 293 294 298 303 314 314 320 321 323 323 323 323 323 322 322 322 323 322 322 322 322 322 323 325 325 325 326
287 281 278 280 284 288 284 286 284 285 284 280 278 279 292 293 293 295 296 299 301 315 315 320 321 322 323 323 323 323 323 322 321 322 321 321 321 321 322 324 325 326 325 325
294 285 280 275 279 284 281 284 285 285 280 281 283 285 290 293 293 296 297 302 300 313 317 320 322 321 323 324 324 323 322 322 321 322 321 321 321 321 322 323 325 325 325 324
287 283 283 284 286 286 285 285 285 283 284 281 285 286 289 292 293 296 298 303 309 310 317 319 321 321 323 323 324 324 322 321 322 322 322 322 322 322 323 323 324 325 325 325
286 281 284 282 285 285 284 286 286 286 286 285 285 285 293 296 298 302 300 304 309 311 318 320 321 321 323 324 323 324 322 321 323 323 323 323 322 323 323 323 324 324 324 325
284 284 280 277 284 284 278 284 286 287 289 287 283 288 294 296 301 302 303 308 310 312 318 320 322 322 324 325 324 322 321 321 322 323 324 325 324 323 323 323 323 322 322 323
286 284 284 279 282 271 285 294 294 290 290 291 291 291 300 301 303 304 307 309 311 314 319 321 322 323 324 325 324 322 321 322 322 323 325 326 324 323 323 323 322 320 320 321
290 286 281 278 275 283 287 291 291 289 289 296 296 298 300 301 302 305 311 312 313 316 321 322 324 324 325 324 323 321 320 321 322 323 324 325 324 323 323 322 320 320 320 319
291 288 283 282 277 276 285 288 290 292 285 298 297 298 299 299 297 302 307 307 313 317 322 322 324 324 323 322 322 320 319 320 321 323 325 325 324 324 323 321 319 320 321 318
286 285 280 281 280 284 288 290 291 285 287 298 298 299 300 297 298 302 304 309 316 318 321 323 323 322 322 320 321 320 319 320 323 324 325 323 324 324 323 320 320 320 318 317
284 283 283 283 281 278 293 289 287 291 298 299 298 299 301 302 302 302 304 310 314 318 320 322 322 321 319 320 321 319 318 322 323 324 324 322 322 324 322 321 319 320 318 316
283 287 284 284 284 293 295 291 294 297 299 298 299 302 303 303 303 303 303 310 314 319 321 322 320 317 317 320 321 317 319 320 322 322 322 322 323 323 321 320 318 319 318 317
288 293 288 288 292 294 297 299 300 301 300 300 302 303 304 303 303 302 305 311 314 320 322 322 318 316 315 319 320 321 317 320 322 320 320 322 322 321 321 321 320 320 319 320
289 293 290 289 293 295 297 298 299 300 302 301 302 303 303 304 304 304 307 312 315 319 323 321 319 318 317 319 318 318 318 319 319 320 320 322 321 321 320 319 319 321 322 319
289 289 289 288 294 294 294 297 300 299 300 301 302 303 305 305 304 304 309 311 316 319 321 321 320 319 317 318 318 318 318 319 319 318 319 320 321 321 321 316 314 296 299 301

GFSCGP_sfc_thetae_057.txt.gz
Theta_e
295 290 287 291 295 296 295 294 293 297 301 300 299 302 304 308 308 308 310 312 314 315 318 319 321 325 327 334 335 333 330 333 335 337 337 339 338 338 340 342 344 344 343 343
290 287 292 294 294 293 293 292 292 296 299 298 299 300 304 305 306 308 309 310 312 313 315 318 321 324 328 331 332 333 333 333 336 338 340 341 340 339 341 343 344 344 344 343
288 290 293 291 291 291 291 290 292 292 296 298 296 295 299 303 305 306 307 309 310 311 312 316 318 322 326 327 331 331 335 335 337 340 339 339 339 338 338 340 341 343 343 343
289 293 289 289 289 292 288 294 293 292 291 289 296 288 297 301 302 304 305 306 308 309 311 314 317 320 324 325 327 331 336 338 339 340 339 340 338 336 339 339 341 342 343 343
288 289 288 288 289 293 289 294 293 293 292 291 292 288 293 299 298 301 304 306 307 309 312 311 313 317 319 323 323 333 339 340 340 340 341 340 340 338 339 339 342 343 343 343
291 294 291 290 293 293 295 292 292 292 290 284 290 289 291 295 298 300 303 305 307 308 310 311 313 315 317 319 328 336 339 340 340 340 340 341 339 337 336 337 336 336 338 338
290 290 293 293 289 291 291 289 282 280 281 281 291 288 291 299 300 301 302 304 307 309 310 311 312 314 317 325 333 337 338 338 339 338 339 339 339 339 338 337 335 336 336 337
282 280 289 293 290 288 288 288 283 277 279 282 289 285 291 300 302 303 304 305 308 309 312 314 314 314 317 325 333 337 338 338 338 338 338 339 340 337 337 338 337 337 337 338
284 283 293 294 294 292 288 284 291 284 286 284 287 290 296 299 300 302 302 305 306 310 314 319 321 316 322 330 335 338 338 338 338 337 337 337 337 338 336 338 339 337 339 337
289 283 290 291 294 293 291 293 284 285 278 278 284 287 289 295 297 300 301 303 306 313 319 323 322 320 329 334 338 339 339 337 336 336 336 335 337 338 338 338 337 337 338 337
292 287 286 290 287 287 289 287 288 288 286 281 281 286 297 297 299 299 301 303 305 310 319 324 324 326 330 335 337 337 336 334 334 335 335 336 335 336 337 337 337 338 338 337
291 288 283 285 292 293 291 288 287 284 283 286 285 285 298 300 300 301 302 304 306 310 318 324 323 323 329 333 335 335 335 333 334 334 334 335 335 335 336 335 336 337 337 337
292 286 280 282 289 291 288 289 290 289 289 285 282 285 298 299 300 302 302 304 306 309 315 324 322 323 326 332 334 333 333 333 333 333 333 334 334 334 334 335 336 336 336 336
295 288 284 279 283 288 285 287 289 288 285 285 286 289 294 297 298 300 302 305 306 309 315 323 323 324 326 332 332 332 332 332 332 331 331 332 333 334 335 336 336 335 335 335
292 285 287 287 288 287 287 287 288 286 288 284 287 289 293 297 298 300 303 305 306 308 313 320 323 324 328 331 332 331 331 331 331 329 331 332 333 334 334 335 335 335 334 334
292 285 287 284 287 287 285 287 288 289 289 289 289 288 296 298 299 300 302 305 306 309 314 320 326 327 329 330 331 331 330 330 330 330 330 332 332 332 333 334 334 335 334 333
288 287 284 279 285 286 282 287 288 289 291 290 286 292 296 296 297 300 305 307 308 310 315 321 326 329 331 331 332 330 330 330 329 330 330 331 331 331 332 333 333 333 334 335
287 286 285 280 283 275 287 295 294 292 294 296 296 295 296 297 301 306 308 307 309 314 318 323 327 330 332 333 332 332 330 329 328 330 330 330 330 330 332 332 332 332 333 333
289 287 282 280 281 285 287 288 288 287 288 297 296 297 299 301 304 303 307 313 313 314 319 324 329 332 333 332 333 331 329 328 328 329 329 330 329 330 331 331 332 332 331 331
290 287 284 283 278 277 287 291 292 291 284 298 299 299 301 302 294 301 312 311 312 315 322 327 330 332 333 332 332 330 328 327 327 329 330 331 330 330 331 332 331 332 331 330
287 286 281 282 281 285 292 293 292 283 286 293 299 299 300 299 301 307 310 311 313 317 323 329 331 331 332 332 332 329 327 327 329 330 331 332 331 332 333 332 332 332 330 329
285 284 285 284 283 280 294 291 285 290 294 296 299 300 299 303 305 308 310 311 313 319 325 329 329 330 332 332 332 328 327 329 330 331 331 331 332 331 331 330 331 330 330 327
286 289 285 285 286 293 296 295 296 296 296 299 298 300 302 302 305 307 309 312 315 321 326 329 329 330 330 332 333 329 329 330 330 330 331 331 331 331 332 328 330 328 329 327
292 295 290 290 293 294 297 299 300 300 300 301 301 301 303 303 306 305 309 314 319 324 327 329 329 327 327 331 332 333 331 330 330 330 331 331 331 330 331 330 329 327 327 324
294 295 292 291 294 296 297 298 299 300 302 301 302 303 303 305 304 305 307 312 322 326 328 328 328 327 327 330 331 332 330 330 329 331 331 331 331 330 330 330 328 328 330 323
296 294 291 289 296 296 296 300 300 300 300 302 301 302 306 306 305 306 308 318 325 326 327 326 326 328 327 328 329 328 328 329 330 330 329 330 330 330 329 325 320 297 302 301

GFSCGP_sfc_thetae_060.txt.gz
Theta_e
300 295 292 294 296 295 296 296 297 301 305 304 304 304 307 311 311 313 315 317 318 320 323 325 326 328 329 333 341 345 343 348 343 341 341 342 343 345 346 348 351 351 350 350
295 291 296 297 296 294 294 294 295 300 302 303 303 303 307 310 310 313 314 315 317 319 321 322 324 326 328 332 336 339 341 345 345 343 345 345 346 347 347 348 351 352 350 351
291 294 297 295 293 292 293 292 294 295 300 303 301 300 304 308 311 313 314 315 316 316 317 319 320 323 326 328 333 336 340 344 347 347 347 348 348 346 345 346 348 349 350 350
293 296 294 293 291 293 289 295 294 295 295 292 301 291 301 305 306 309 311 313 314 315 317 318 319 321 324 326 328 334 338 344 346 348 347 348 342 341 343 345 348 349 350 349
293 293 292 291 291 294 291 296 294 296 294 294 295 294 298 304 303 306 310 312 313 314 315 316 317 319 321 323 325 333 336 343 347 348 347 344 348 345 346 346 350 351 350 349
296 300 297 294 295 295 296 294 294 294 294 288 293 293 294 298 302 305 309 310 310 312 314 316 318 320 320 322 324 328 336 345 348 348 347 349 349 348 345 347 346 346 348 348
293 294 297 297 291 295 293 290 283 282 283 285 295 292 296 303 304 306 307 308 310 312 314 316 318 320 321 322 325 332 340 345 348 348 348 349 350 351 350 348 345 345 341 341
287 285 293 296 293 291 291 289 284 278 282 285 293 288 295 304 306 308 308 310 310 314 317 320 324 327 321 322 328 337 341 344 346 347 348 350 351 347 346 346 343 341 340 341
286 286 295 296 296 295 291 286 292 286 288 287 291 294 299 303 304 306 305 308 309 314 320 325 329 330 326 325 332 338 342 345 346 346 347 348 347 347 345 347 347 342 345 343
291 284 292 293 297 296 293 294 285 287 280 280 287 291 292 298 300 304 305 307 309 313 317 323 330 330 327 333 339 343 345 345 345 346 346 345 346 345 346 345 343 344 344 343
293 289 289 293 290 288 291 289 289 289 287 281 284 289 300 301 303 304 305 307 309 311 315 321 330 331 333 337 340 344 344 344 344 345 344 343 342 343 343 343 343 343 344 342
294 290 286 288 293 295 293 289 288 285 285 288 288 291 303 305 305 306 305 308 310 312 314 322 330 328 334 337 341 342 343 342 342 342 341 341 342 342 342 341 342 342 340 340
295 289 284 285 291 294 290 291 292 292 291 286 285 290 303 304 303 304 306 307 309 311 312 317 328 327 332 337 339 340 340 340 340 339 339 340 339 339 339 339 340 340 339 339
296 291 286 283 286 290 287 290 292 291 287 287 289 292 298 301 301 304 306 307 308 310 311 315 324 327 329 336 338 338 338 339 338 338 337 336 335 337 338 339 339 339 338 337
292 287 290 290 291 290 289 289 290 290 290 287 290 291 296 300 301 303 305 305 305 308 310 314 321 328 331 334 337 338 337 337 338 335 333 333 337 338 338 338 338 338 338 336
295 286 290 287 290 290 288 290 290 290 291 291 292 291 299 301 301 301 302 303 305 309 310 313 320 329 331 333 335 335 335 336 335 332 331 334 335 336 336 337 337 338 336 335
290 289 286 283 288 287 284 290 291 292 293 293 289 295 299 299 300 302 303 304 305 309 311 314 321 329 332 335 334 331 335 335 332 330 331 332 334 334 335 335 335 336 336 337
288 288 287 282 284 276 289 296 294 292 294 297 297 298 301 302 303 304 305 306 309 311 315 321 326 332 334 335 335 335 335 333 329 329 330 331 331 332 333 334 334 336 338 336
290 288 285 282 282 287 289 292 289 288 289 297 297 299 303 304 305 303 307 309 313 317 320 324 328 334 334 334 336 335 333 329 327 329 329 329 330 332 333 333 335 336 337 336
292 287 286 285 280 279 289 293 294 290 284 294 296 301 302 305 299 302 312 315 317 320 322 325 330 335 334 335 336 334 331 327 328 329 330 330 329 333 332 335 336 337 337 335
289 287 283 284 283 288 293 294 294 284 286 293 296 297 301 299 303 309 312 314 318 320 323 328 331 333 333 336 337 332 329 326 329 331 331 330 332 333 334 335 336 336 335 332
287 285 286 287 284 281 297 293 286 293 296 297 297 300 299 302 305 308 312 315 318 321 324 330 330 331 335 336 335 331 327 329 331 331 329 330 334 333 334 336 335 335 334 332
288 291 287 288 287 298 299 297 300 299 297 299 300 302 304 301 304 308 313 315 319 323 326 330 330 332 335 337 335 330 329 329 331 331 329 332 334 334 336 335 334 332 333 329
294 297 291 292 295 296 298 301 300 301 300 301 302 302 304 303 307 310 313 316 319 323 329 330 331 332 333 335 335 332 329 330 331 331 330 333 333 333 335 334 333 330 330 327
297 298 294 293 296 297 298 300 300 299 301 302 303 303 303 303 307 311 313 315 317 320 330 331 331 333 334 335 335 331 329 331 331 331 330 332 333 334 335 334 330 330 332 327
299 296 293 291 297 297 297 301 301 297 299 303 301 301 303 307 309 308 309 312 316 325 330 331 332 334 334 334 333 329 329 331 332 331 330 330 332 334 333 332 329 297 299 301

GFSCGP_sfc_thetae_063.txt.gz
Theta_e
302 297 295 298 299 299 297 295 294 299 304 304 303 305 307 312 311 313 316 318 319 321 324 327 329 332 333 340 346 348 347 356 351 343 340 341 342 347 347 348 354 353 353 352
298 294 298 299 298 296 296 294 294 298 301 302 303 303 307 311 311 312 314 316 318 321 323 325 329 334 335 339 343 346 350 353 356 345 348 346 348 346 348 349 354 354 353 352
294 296 299 297 296 294 294 293 293 294 298 301 301 299 303 308 311 313 314 316 318 319 320 323 325 330 332 334 340 342 349 353 355 355 351 352 352 352 347 349 350 352 352 352
296 299 297 295 294 295 291 296 295 294 293 290 300 291 301 305 307 310 312 314 316 319 320 322 323 327 331 330 334 341 346 350 353 359 349 359 347 344 345 348 350 351 352 351
294 295 295 295 294 296 293 296 295 294 292 293 294 292 298 305 303 307 311 313 316 318 319 320 321 323 325 329 332 338 343 348 353 357 354 350 352 346 346 347 355 357 353 352
296 301 299 297 299 297 298 294 294 294 292 286 292 292 294 299 304 307 311 313 315 316 318 319 321 323 324 324 326 334 341 346 351 353 351 358 356 356 346 350 348 347 348 349
294 295 299 299 295 298 295 292 284 282 283 283 293 292 295 303 306 308 308 311 314 315 315 317 318 319 322 323 326 328 335 340 349 349 349 350 357 360 360 353 348 349 346 347
287 286 294 299 295 293 293 291 284 278 280 284 293 287 295 304 307 309 310 312 314 313 316 318 320 322 325 326 326 326 330 339 347 348 349 351 355 350 351 355 349 346 345 346
288 288 296 297 299 297 293 289 294 287 287 283 287 294 301 305 305 307 309 310 311 313 318 321 325 328 330 327 327 332 338 342 347 349 350 352 354 357 352 357 357 346 352 345
293 286 294 296 299 297 295 297 286 289 280 278 286 289 292 299 302 306 308 309 311 314 316 319 326 332 333 329 330 336 340 344 347 349 350 350 351 350 350 350 351 349 348 344
294 290 290 294 293 292 292 291 292 291 288 282 280 287 300 302 303 306 309 310 311 312 315 320 330 332 334 333 335 339 343 345 346 347 348 348 347 348 348 345 345 344 345 343
296 292 287 289 295 297 295 293 292 285 284 289 287 287 300 305 307 307 309 309 311 313 315 318 331 331 334 336 340 342 344 344 346 347 346 345 345 344 344 343 343 343 342 341
295 290 284 286 291 293 290 292 294 293 292 287 283 288 302 306 308 309 308 309 309 311 314 317 329 331 335 337 340 342 343 344 345 343 342 343 342 342 342 341 341 340 339 338
297 292 286 283 287 288 286 290 292 293 287 287 289 290 294 297 304 306 306 308 310 309 312 315 322 332 336 337 338 340 341 342 342 341 340 340 340 339 339 339 339 340 338 338
294 288 290 291 292 292 291 290 291 290 291 286 290 290 294 296 297 304 306 306 307 308 311 314 318 332 335 335 338 339 339 340 340 338 338 337 337 338 338 338 338 339 337 337
295 288 291 288 291 291 289 291 292 292 292 292 292 291 298 300 303 303 304 305 305 307 310 313 317 331 333 333 335 338 337 338 338 336 333 334 335 336 338 338 338 339 337 337
290 289 289 284 290 289 285 290 292 294 294 293 289 295 299 300 301 302 304 305 306 307 311 313 318 326 334 334 337 335 337 338 335 333 332 333 334 334 335 336 336 336 339 338
290 289 289 284 287 279 289 296 294 293 295 298 298 300 301 302 304 306 307 306 307 310 312 318 323 327 336 336 335 336 337 335 332 331 331 332 332 332 334 334 336 337 339 338
296 288 286 284 283 287 289 291 289 289 289 296 296 300 303 303 305 305 309 309 309 314 319 321 325 332 337 334 336 337 335 333 330 329 330 331 331 332 332 332 334 338 338 338
296 290 287 286 281 280 288 295 297 293 284 295 295 296 298 300 298 302 313 315 316 317 320 322 326 328 337 335 337 336 333 330 328 329 329 331 331 331 332 336 336 339 339 337
291 287 284 285 283 287 294 298 297 284 289 297 298 298 299 299 304 308 312 313 316 318 321 325 328 328 338 338 337 334 331 328 330 330 330 330 332 334 336 337 338 338 336 335
289 288 288 287 285 282 299 296 288 295 299 299 302 301 302 302 306 307 310 312 315 318 322 326 327 330 338 337 337 333 330 330 331 331 329 330 333 331 331 334 336 336 335 334
291 293 291 291 291 301 302 300 304 302 300 299 300 302 302 302 304 307 309 312 317 319 321 326 330 334 335 336 336 332 330 330 330 330 330 330 332 334 335 334 334 332 335 332
297 300 295 294 297 298 299 302 303 303 301 301 300 301 303 301 304 306 308 311 316 319 322 324 329 333 332 335 336 333 330 330 330 329 330 331 332 333 333 333 331 331 331 331
298 299 296 296 298 299 299 300 302 302 302 300 302 302 303 305 307 307 309 314 317 321 325 325 330 334 332 335 335 333 329 330 330 329 330 331 331 333 332 322 320 331 330 324
301 298 295 294 299 297 298 301 303 302 300 301 302 303 304 305 306 308 313 316 316 317 325 326 331 332 333 334 333 331 329 331 331 329 329 329 329 331 331 331 329 298 299 298

GFSCGP_sfc_thetae_066.txt.gz
Theta_e
302 297 294 297 299 299 297 295 294 297 300 299 298 301 305 310 311 311 314 317 315 317 324 327 328 333 337 346 350 351 352 354 354 354 347 345 342 346 350 352 356 357 354 352
297 294 299 300 299 297 296 293 293 296 299 298 298 297 302 308 309 312 313 314 316 320 319 325 330 341 342 346 347 349 349 349 352 353 350 351 351 348 349 353 355 357 354 353
294 296 300 298 296 294 294 293 293 293 296 298 296 294 299 304 308 311 313 316 317 317 320 324 326 336 340 339 340 340 344 348 350 350 353 351 355 357 353 352 354 355 354 353
295 298 297 296 295 296 290 296 295 294 292 287 296 287 297 301 303 307 310 313 316 317 319 322 326 328 335 338 340 342 345 345 349 353 346 346 344 343 350 352 352 352 354 351
293 295 295 294 295 297 293 298 295 294 291 290 291 288 292 299 300 305 309 311 315 318 318 319 322 325 330 333 335 339 345 345 345 348 347 344 348 348 355 353 353 351 352 351
295 300 298 297 299 298 299 295 294 293 291 284 288 288 289 294 299 304 309 311 314 316 318 320 323 327 325 327 329 333 334 341 345 349 349 352 348 349 347 349 348 349 348 346
293 294 299 300 294 298 296 291 284 282 282 282 291 288 291 298 301 303 307 311 313 316 316 318 319 321 325 326 326 327 339 339 345 347 351 348 354 350 356 351 347 347 344 344
287 285 293 299 294 292 293 291 284 277 279 282 290 284 290 301 303 305 309 311 313 314 317 318 320 321 320 323 327 328 334 338 343 346 349 350 354 351 355 350 349 347 345 345
286 287 295 296 297 296 293 288 294 287 288 283 286 290 296 301 302 305 306 309 312 314 318 318 320 327 327 330 339 333 333 336 338 346 350 351 352 354 351 353 356 349 348 348
292 285 293 294 296 298 294 296 287 288 279 277 284 286 288 294 299 304 306 307 312 315 314 318 321 326 336 337 339 338 338 336 346 348 350 351 352 354 355 354 350 349 348 346
294 290 290 294 290 290 292 290 290 291 287 280 279 285 297 298 301 301 306 308 312 313 314 316 320 331 333 335 334 336 341 345 346 349 351 351 352 351 349 349 348 349 348 345
295 291 286 288 296 297 295 291 293 285 284 287 285 285 300 301 301 300 299 310 312 313 314 315 329 331 331 333 332 337 341 343 347 349 349 350 349 348 347 346 347 346 345 343
295 289 283 285 290 293 291 291 292 292 291 286 283 285 299 299 298 299 299 302 310 311 311 314 328 329 332 333 337 338 343 343 346 345 344 344 345 345 345 344 344 343 343 342
299 291 286 282 286 290 287 289 291 291 287 287 287 289 294 295 294 298 300 303 309 310 310 314 317 329 333 336 338 340 341 344 345 342 341 342 343 343 342 343 343 341 340 338
296 288 290 290 291 291 290 290 291 289 291 286 288 288 293 296 297 298 301 303 306 307 308 313 316 329 334 335 338 339 340 342 342 339 339 340 341 341 340 339 339 337 338 336
296 289 290 288 291 292 289 291 291 291 292 292 292 290 297 299 300 300 302 304 304 306 308 311 314 325 331 334 331 337 338 338 339 337 337 338 336 337 338 339 339 339 336 336
293 290 287 284 290 290 285 290 291 292 293 293 288 294 299 299 300 301 302 305 305 306 308 311 316 326 333 335 334 333 335 339 337 334 334 334 335 336 337 337 336 337 335 335
292 290 288 285 288 279 290 296 295 292 293 295 295 296 297 299 303 305 307 305 308 307 309 312 319 326 330 336 335 334 335 334 334 332 332 333 333 334 336 335 335 337 336 336
298 290 286 284 284 287 289 293 292 289 289 296 294 296 298 301 302 303 310 312 313 312 311 319 322 328 329 335 334 333 333 333 331 330 330 331 332 332 333 335 332 337 337 335
296 292 288 286 281 279 288 294 298 295 284 295 297 297 297 298 295 302 308 309 311 314 317 318 321 326 328 334 334 332 331 331 330 329 330 331 332 332 335 336 335 337 338 335
290 287 284 286 284 288 293 297 297 284 287 298 300 299 298 297 300 305 308 309 311 313 315 320 322 327 333 333 335 333 332 330 330 330 330 332 334 336 337 338 338 336 336 335
291 289 288 288 284 282 297 297 290 296 300 299 300 300 299 301 303 305 307 308 310 311 315 319 323 327 328 334 336 332 331 332 331 329 329 333 335 332 335 337 336 337 335 333
290 293 292 291 292 301 302 300 305 304 300 301 300 300 301 301 302 304 305 307 310 312 314 319 323 328 334 334 335 332 332 332 330 329 330 332 334 332 334 336 335 333 333 330
297 300 295 295 298 299 302 303 303 303 302 303 302 301 301 300 302 303 306 307 309 312 314 318 323 324 329 332 335 334 332 331 330 330 330 333 332 331 334 333 333 332 331 330
298 299 296 296 299 300 300 301 302 302 302 302 302 302 301 301 304 304 305 307 309 311 315 321 323 328 330 332 336 333 331 331 331 330 331 332 329 329 323 315 315 327 319 327
300 298 295 291 299 299 299 302 303 300 300 302 301 301 303 304 304 306 306 308 309 313 318 319 322 326 330 333 334 331 330 333 331 330 331 329 329 330 326 327 321 297 297 296

GFSCGP_sfc_thetae_069.txt.gz
Theta_e
296 290 287 291 293 294 293 291 290 293 297 294 293 294 297 300 300 300 305 307 311 313 316 318 319 321 326 331 331 332 333 337 339 339 335 334 332 333 337 340 344 342 348 347
291 287 294 297 296 294 292 289 289 293 296 294 293 292 296 298 298 300 301 305 309 312 314 316 317 319 321 330 331 331 330 333 335 335 336 334 333 334 335 340 341 345 347 347
288 292 298 295 293 292 291 289 289 289 294 294 292 289 292 297 299 301 302 304 307 311 313 315 316 317 326 331 332 333 334 334 334 336 338 337 336 337 340 338 339 345 346 348
290 295 295 293 292 293 288 295 294 292 288 283 291 281 289 293 295 297 300 302 304 307 312 313 315 316 325 331 332 333 333 332 333 333 336 336 335 333 335 339 343 345 347 346
289 290 291 290 292 296 291 296 293 292 288 284 286 282 287 291 291 294 297 300 303 306 309 312 313 314 318 328 328 328 330 332 335 337 339 336 334 336 337 340 342 342 343 344
292 296 295 295 297 296 296 292 291 290 285 279 284 284 284 288 290 294 297 300 302 306 307 312 312 313 315 323 326 327 327 330 333 337 338 335 332 336 338 339 342 342 341 341
290 291 296 298 292 294 291 286 279 277 277 278 287 284 286 292 296 297 297 300 302 303 304 308 312 312 314 316 316 323 323 326 333 335 337 337 336 337 338 340 341 341 339 337
282 280 290 297 292 287 288 287 282 275 275 279 288 281 286 295 298 299 301 301 302 303 305 308 311 312 312 315 316 318 320 321 330 333 336 339 341 341 341 342 342 341 340 339
283 285 294 295 295 293 287 283 289 282 284 278 282 287 292 297 299 300 300 301 301 303 306 310 309 309 310 312 313 314 315 325 331 334 340 338 340 341 343 342 343 341 339 340
289 282 291 293 295 294 290 292 281 282 275 275 280 282 284 292 294 296 297 297 300 303 306 309 310 313 323 325 326 326 321 329 333 338 342 341 341 344 345 345 342 341 340 341
290 286 287 290 288 287 287 285 287 287 284 278 276 280 295 293 294 294 296 299 300 303 306 308 309 321 324 324 325 325 324 326 332 340 340 341 343 345 345 343 342 342 342 342
292 286 281 285 291 295 293 289 287 282 281 283 281 282 297 296 296 298 297 299 303 306 305 309 321 323 324 324 324 325 331 337 340 342 342 343 342 343 341 338 338 339 339 339
292 284 279 281 285 290 288 289 289 286 284 281 279 282 296 297 296 298 298 301 303 305 305 306 311 321 321 323 326 329 337 339 341 342 341 341 342 339 337 335 334 335 333 332
296 287 283 279 283 287 285 288 289 286 281 282 284 286 292 294 295 297 298 300 301 302 304 305 308 318 323 329 328 335 337 340 341 340 340 339 339 337 334 333 332 333 332 330
291 284 288 288 290 290 288 288 289 287 287 283 287 287 291 294 295 298 300 301 301 302 303 305 306 312 324 328 330 335 338 339 339 339 338 337 337 335 334 332 332 331 330 329
293 286 288 286 290 290 288 290 291 290 290 290 289 289 296 298 300 299 300 301 301 303 306 304 317 319 324 328 332 333 336 337 338 337 336 336 333 332 331 330 330 329 329 331
290 289 284 280 288 287 282 289 290 290 292 290 285 290 295 295 297 298 300 302 306 308 309 306 319 321 324 327 328 331 334 336 336 335 334 332 331 332 330 331 331 330 329 330
291 289 287 282 285 276 288 294 294 291 291 292 293 293 295 295 298 300 301 305 306 306 308 310 316 319 323 326 328 332 334 334 333 332 331 330 331 331 330 327 326 328 327 329
296 290 285 279 277 285 289 292 290 288 288 293 293 295 297 298 299 298 306 306 305 305 308 310 313 319 321 324 327 331 332 330 329 328 328 330 331 330 328 325 325 327 326 324
291 289 285 284 279 273 284 293 296 293 281 294 295 295 296 296 290 294 302 304 305 307 308 309 311 315 324 326 330 328 328 327 327 327 327 328 329 329 328 329 327 327 326 325
288 286 283 282 280 284 293 296 296 280 281 295 295 295 296 294 295 299 302 303 305 307 308 310 312 315 323 327 331 328 327 326 326 327 326 327 329 331 331 330 328 327 327 326
283 285 282 285 278 277 297 295 289 291 296 296 297 297 296 297 298 299 301 302 304 305 307 310 310 314 324 328 328 329 328 325 327 325 330 330 330 332 331 329 327 327 326 323
283 290 287 288 284 297 300 297 298 299 297 297 298 298 300 297 297 299 300 302 303 305 306 309 310 313 323 326 328 328 330 325 326 328 327 327 328 330 330 328 327 327 324 322
293 296 289 291 296 298 299 301 301 300 299 299 299 298 298 297 300 300 300 301 303 305 306 309 311 317 323 326 330 332 331 326 327 325 325 326 328 326 327 329 327 325 323 322
292 294 293 292 296 297 299 300 299 299 300 300 301 300 301 300 300 301 301 302 304 305 307 309 309 320 323 325 328 333 326 328 326 326 326 326 325 321 312 308 310 322 317 320
295 294 290 291 297 296 298 300 300 299 299 299 299 298 300 301 301 302 303 304 305 305 307 308 314 318 322 325 329 333 326 327 326 325 325 325 323 321 320 316 311 295 295 297

GFSCGP_sfc_thetae_072.txt.gz
Theta_e
293 288 285 288 289 291 290 288 287 290 294 291 290 291 294 296 296 296 298 299 300 303 309 317 316 316 317 320 323 327 341 340 341 341 340 338 340 337 337 337 340 341 344 342
289 285 292 294 294 292 290 287 286 290 294 291 290 291 294 295 295 295 296 298 299 302 304 310 315 314 313 316 326 327 337 344 345 343 343 336 335 331 333 335 337 341 345 343
285 290 295 294 291 290 289 287 288 289 293 292 290 288 291 295 296 297 297 298 299 299 301 306 312 315 313 315 323 327 331 341 345 343 334 332 332 333 333 333 334 339 345 346
288 293 292 291 290 292 286 294 293 291 288 281 289 280 287 290 292 294 296 296 297 299 301 303 306 312 313 314 322 327 328 332 335 333 333 330 329 328 330 331 335 341 344 345
287 289 288 288 292 294 290 294 291 290 287 283 285 280 285 289 289 292 294 295 297 298 300 301 304 308 313 317 324 328 329 328 329 330 331 330 328 329 332 334 336 340 340 344
290 293 294 294 296 294 295 291 289 287 283 277 282 281 283 285 289 290 295 298 301 303 304 304 305 306 308 315 325 325 325 326 328 329 329 327 328 331 334 334 335 337 339 340
288 289 295 297 290 292 289 284 277 276 276 276 285 282 284 290 293 296 298 299 301 302 302 303 304 305 306 310 321 326 325 325 325 326 329 330 329 331 333 335 338 337 337 335
280 279 289 295 290 286 285 284 277 275 275 277 286 279 284 294 298 299 300 300 301 301 302 304 306 307 308 307 316 323 324 324 324 326 327 332 330 332 333 337 340 340 340 339
282 283 292 293 293 290 285 281 286 281 282 278 280 284 290 295 296 298 298 299 298 300 301 304 308 308 310 310 312 320 321 322 322 325 328 331 333 332 336 338 341 340 339 339
287 281 290 292 293 292 288 290 279 279 274 274 279 281 282 290 293 295 295 296 297 300 302 305 307 307 311 310 311 312 316 319 320 323 328 332 335 337 338 340 340 339 338 340
287 284 285 289 286 284 285 283 284 282 280 273 276 278 291 292 293 293 295 298 299 301 303 306 306 307 307 320 321 321 316 317 322 327 332 333 336 340 341 341 340 338 339 338
290 285 280 284 291 292 290 286 287 276 276 281 281 280 293 293 294 296 297 298 299 301 304 307 307 306 307 319 320 321 320 323 328 335 337 337 338 340 340 341 340 339 339 338
290 282 278 280 284 288 286 288 287 286 284 280 278 279 295 295 295 297 296 299 300 302 305 308 307 306 307 313 321 321 324 328 335 338 338 337 338 340 338 337 339 339 339 338
296 285 282 277 282 284 284 288 289 286 282 281 282 284 289 293 295 296 300 301 301 303 305 305 305 307 308 321 327 325 330 335 338 339 338 337 337 335 334 335 335 336 336 335
290 282 286 287 289 289 288 288 289 286 286 282 285 286 290 293 294 297 300 302 302 304 305 304 307 309 317 320 323 329 335 337 338 337 337 334 334 334 334 334 332 331 331 330
289 283 286 285 289 289 287 288 290 289 289 288 287 286 293 295 296 297 299 302 303 304 305 307 307 316 319 320 319 324 331 335 337 336 334 335 334 333 333 332 330 328 327 326
286 284 284 281 287 287 282 288 290 290 291 288 285 287 292 292 295 296 297 299 300 303 306 305 306 309 316 321 321 326 327 334 335 335 334 334 333 331 330 331 328 324 324 325
287 288 287 282 282 274 286 293 293 291 291 293 291 292 293 294 296 298 300 300 302 302 303 305 306 307 311 321 322 324 324 330 333 333 332 333 331 329 329 327 325 323 325 326
293 288 284 281 275 283 286 291 289 287 287 293 291 293 295 297 297 296 302 304 300 301 303 305 307 308 314 322 322 321 323 329 332 332 331 331 330 328 325 323 323 323 324 323
291 291 286 283 278 272 281 292 295 293 283 292 293 293 293 294 287 291 297 300 300 302 303 305 306 309 311 321 324 322 322 329 329 330 329 330 330 327 323 323 323 322 322 322
286 286 282 283 280 283 291 295 296 280 282 293 294 294 293 291 294 297 299 299 301 302 303 306 306 308 311 321 325 322 321 327 329 329 329 330 329 326 326 324 323 323 323 323
285 282 282 284 280 275 295 292 288 292 295 297 296 296 295 296 298 298 299 299 300 301 303 305 305 307 312 318 324 322 324 327 328 327 328 328 328 330 329 325 324 325 323 322
283 288 287 287 282 290 295 296 299 299 297 297 298 298 298 297 298 299 298 299 300 301 302 304 305 308 312 322 325 324 324 327 326 326 327 329 328 327 327 326 324 323 322 321
291 293 287 287 292 294 296 300 299 300 299 300 298 297 297 297 298 297 299 299 300 301 302 304 305 307 309 321 324 324 328 328 327 326 326 328 327 325 326 327 326 324 321 321
289 291 289 290 294 296 298 299 299 299 298 298 299 298 299 298 298 299 300 300 302 302 304 305 305 306 311 320 323 328 330 327 325 325 325 325 324 319 312 307 312 322 320 321
291 290 288 286 295 296 297 300 299 298 297 297 297 297 299 299 299 300 300 301 302 302 304 304 306 308 313 319 324 328 330 326 325 323 323 321 319 318 314 312 308 295 295 299

GFSCGP_sfc_thetae_075.txt.gz
Theta_e
291 286 283 287 288 289 288 286 285 289 292 290 289 290 292 295 295 294 296 297 297 299 303 305 306 309 313 315 319 321 327 332 335 334 334 335 335 337 337 338 339 339 339 337
287 283 290 292 291 289 288 286 285 289 294 292 289 290 292 292 293 294 295 296 297 298 299 302 304 305 307 311 313 320 325 331 335 337 337 336 337 334 338 339 338 339 341 339
284 288 293 292 290 288 286 286 287 287 292 292 289 288 289 292 293 295 295 296 296 296 296 299 301 302 303 306 311 314 322 331 337 338 335 330 332 333 332 333 334 336 339 342
287 291 290 288 288 290 284 292 291 289 286 280 289 279 287 289 290 292 294 293 293 294 299 302 304 302 302 305 307 311 320 327 339 340 336 334 334 333 332 333 333 334 338 342
286 287 287 286 289 293 287 293 290 289 285 282 284 279 283 290 289 290 291 296 299 301 302 302 304 305 307 308 305 308 317 324 332 341 339 336 327 329 327 329 330 334 338 342
288 291 290 290 294 293 294 289 286 285 281 276 282 281 281 283 286 289 296 299 300 301 301 302 304 305 306 308 309 307 317 322 325 333 336 334 332 326 327 328 331 335 337 340
286 287 293 295 288 290 287 281 275 274 275 276 283 281 283 289 293 295 296 298 299 300 299 300 301 303 306 308 309 309 311 321 324 328 331 330 329 326 327 329 332 334 335 336
279 278 288 293 288 284 284 282 275 271 274 276 284 278 282 291 297 298 299 299 300 299 299 300 302 303 307 308 309 309 310 317 324 325 328 329 327 325 328 332 333 336 337 338
281 282 291 292 291 289 283 280 284 279 278 275 279 283 288 291 294 296 296 297 297 299 300 302 304 305 308 307 307 307 312 312 323 325 327 327 327 325 328 332 335 337 336 338
285 280 288 291 291 290 286 289 278 277 274 273 277 279 281 287 290 294 293 295 298 299 300 301 303 305 308 307 307 308 315 311 320 322 323 324 328 328 329 333 335 336 336 338
287 283 284 287 285 283 283 281 282 280 278 271 273 278 287 289 291 292 293 296 297 298 300 301 304 306 307 308 308 308 314 313 317 316 321 324 328 329 333 335 337 337 337 338
289 284 280 283 289 291 287 285 284 275 276 279 277 279 291 292 293 294 294 297 298 300 301 303 305 307 308 309 310 311 316 312 316 318 321 325 329 333 334 336 337 336 337 338
289 282 278 279 282 287 285 287 286 283 281 281 277 279 292 293 294 295 295 297 299 301 301 304 306 308 309 311 312 321 325 320 321 326 327 330 332 334 335 336 336 337 337 337
295 283 282 277 280 282 283 286 288 287 281 280 281 283 288 291 292 295 296 298 300 302 303 305 305 307 309 312 319 320 325 323 328 332 332 332 334 337 337 336 336 337 337 336
289 282 284 286 288 288 287 287 288 285 286 282 284 284 288 291 292 294 297 299 301 304 302 306 307 307 307 309 317 320 325 329 333 334 334 334 335 334 334 335 336 336 336 335
287 281 285 284 288 288 286 288 288 288 288 288 288 286 292 292 293 294 296 297 299 301 302 306 306 307 307 310 315 321 324 329 335 334 332 333 332 333 333 333 335 334 332 333
285 283 282 280 286 286 281 286 288 289 290 288 284 289 292 292 293 294 295 297 298 301 302 302 304 305 307 310 320 318 323 323 330 332 333 332 332 331 331 332 331 330 329 329
283 282 283 281 284 277 285 292 292 289 290 291 290 292 293 293 294 296 298 297 300 299 300 300 302 304 306 311 320 320 322 323 322 329 331 332 331 330 330 329 328 326 325 325
289 287 284 281 276 282 286 290 288 286 286 292 291 293 294 294 294 294 298 301 300 300 300 301 303 304 307 309 314 321 319 322 322 325 330 330 330 329 328 326 325 324 323 322
291 290 286 283 278 271 280 291 294 291 283 291 291 291 292 293 287 291 295 298 299 301 301 301 303 304 305 308 313 322 320 320 319 326 331 331 330 328 325 323 322 320 323 320
287 286 283 283 280 281 289 294 294 282 282 292 296 293 292 291 294 297 299 299 301 300 301 302 303 302 305 309 314 320 320 317 321 322 327 329 328 325 323 322 322 320 321 320
284 283 282 283 281 278 294 293 286 289 294 296 296 296 295 296 297 297 298 299 300 300 301 302 301 303 306 310 315 320 319 322 321 319 329 327 324 325 324 322 321 322 321 319
283 287 286 286 284 290 293 293 296 297 297 298 297 297 297 295 295 297 297 298 299 300 301 302 302 303 306 310 317 319 319 318 322 325 326 325 325 325 323 322 321 320 321 320
290 292 285 285 289 291 295 297 299 301 300 299 298 296 296 295 296 297 297 298 299 300 301 303 303 304 305 310 317 319 323 323 326 325 325 325 324 322 323 324 323 321 320 321
288 289 286 286 291 293 295 297 298 298 298 297 297 296 295 296 296 297 297 300 299 300 302 304 303 304 307 311 317 321 326 327 325 325 326 324 323 321 313 306 311 320 319 320
289 287 286 285 292 293 295 298 298 295 294 294 294 295 297 297 297 299 299 301 302 302 303 303 304 305 308 311 317 321 323 327 325 323 324 322 320 317 314 313 309 295 295 300

GFSCGP_sfc_thetae_078.txt.gz
Theta_e
290 286 282 286 287 287 287 285 284 287 291 290 288 290 291 294 293 293 295 296 297 299 303 305 307 305 307 307 312 315 317 320 332 332 330 331 332 334 335 337 337 337 337 337
286 283 289 290 289 288 286 284 284 288 292 290 289 289 292 293 293 294 295 295 296 297 297 301 304 306 305 305 307 310 315 318 324 334 333 334 335 336 337 338 338 339 338 338
283 287 292 290 288 287 285 284 286 286 290 290 287 285 287 291 293 294 294 295 295 295 297 302 305 306 304 305 306 307 309 316 320 331 334 332 333 333 333 335 337 339 340 339
285 289 289 286 286 288 283 291 289 288 284 278 287 277 284 288 289 291 292 292 294 299 302 303 304 304 304 306 308 307 305 310 317 327 334 334 333 332 335 336 337 338 340 341
286 286 285 285 287 291 286 291 288 287 283 280 282 278 281 287 286 288 290 295 298 299 300 301 302 303 304 306 306 308 308 308 314 321 335 334 333 335 333 331 333 334 336 340
287 290 288 288 292 291 292 287 284 282 280 275 280 279 278 282 286 289 293 297 299 299 300 300 302 303 303 305 306 309 308 309 311 318 327 335 334 331 328 329 331 332 335 338
285 285 291 293 286 288 286 280 274 273 273 274 282 279 282 288 291 291 294 296 298 298 298 298 300 301 303 305 307 309 309 308 310 316 322 333 336 333 330 331 329 332 333 337
278 278 288 292 287 283 282 281 274 270 273 273 282 277 281 289 292 296 298 298 298 297 298 300 301 302 303 305 307 308 308 307 309 312 318 325 334 335 332 331 330 333 335 337
281 281 290 291 290 288 281 279 282 277 277 273 277 281 287 290 290 295 295 296 295 297 299 300 301 303 305 307 307 308 308 308 309 313 316 323 329 332 330 329 332 333 336 338
285 280 288 290 290 289 285 287 277 275 273 272 276 278 279 285 288 290 293 294 295 297 298 300 302 304 306 309 309 308 310 309 309 313 315 323 327 330 329 330 332 334 336 339
286 282 283 286 284 282 282 280 281 279 275 270 272 276 286 287 289 290 292 294 294 297 297 300 302 305 308 309 310 311 312 312 312 314 314 323 325 327 327 330 333 336 337 339
288 282 279 283 287 289 286 283 282 275 275 278 278 279 290 289 290 293 293 296 296 298 299 301 303 306 308 309 309 309 313 319 323 321 316 321 325 327 329 331 334 336 337 339
288 281 277 279 281 285 283 286 285 282 280 279 278 279 291 291 291 293 294 295 298 299 300 301 301 302 307 308 308 308 311 315 322 324 316 321 326 328 329 331 335 336 337 338
294 282 281 277 279 281 280 285 285 283 281 280 281 283 288 290 291 292 294 296 296 299 301 302 303 304 307 307 307 307 311 313 322 326 318 322 328 330 331 333 335 336 338 337
290 282 283 285 286 287 286 286 287 284 285 282 284 284 288 291 292 293 295 296 297 298 300 301 304 305 306 305 306 308 311 313 323 329 326 325 329 332 334 335 335 337 337 337
285 282 283 282 286 287 285 287 287 287 287 286 287 286 293 294 294 293 294 296 297 298 300 303 303 304 303 305 305 308 310 315 324 332 331 333 334 335 335 335 335 336 336 335
285 285 283 279 284 284 280 285 286 287 288 286 283 288 292 292 294 294 293 296 296 298 301 300 301 303 303 305 306 307 310 318 323 331 332 332 333 333 333 334 335 334 334 334
284 283 283 280 282 274 283 290 291 288 290 290 290 292 293 293 295 295 296 295 297 298 300 300 301 302 303 306 307 308 311 320 322 327 331 333 333 332 334 335 333 333 332 332
289 285 283 280 278 282 284 288 286 285 285 290 290 292 294 294 294 295 298 299 298 299 300 301 302 303 303 304 306 308 311 321 321 319 330 331 332 331 331 331 329 330 329 327
290 289 284 284 276 272 282 289 293 290 281 291 290 291 292 293 288 292 298 299 300 300 301 301 302 303 303 304 305 307 312 319 318 319 331 329 330 329 328 327 326 329 327 323
286 285 282 282 280 281 288 293 293 281 281 290 293 294 294 293 294 297 299 299 300 300 300 302 302 301 302 304 306 307 313 318 319 322 322 330 329 326 326 325 325 325 323 321
285 283 282 283 280 277 294 291 286 288 292 295 295 297 297 297 297 298 298 297 299 299 300 301 301 301 303 304 306 308 317 319 321 320 323 328 326 326 325 323 323 323 321 318
281 288 285 286 281 291 292 292 294 294 294 295 298 299 298 296 296 297 297 297 298 298 299 301 300 301 303 305 307 309 317 321 320 321 324 325 325 325 324 323 322 321 320 318
287 290 284 284 289 289 291 294 295 296 296 298 298 296 294 292 294 294 296 297 298 299 300 301 301 301 302 306 308 312 317 321 320 318 325 325 323 322 324 323 323 322 320 319
288 288 285 284 288 291 293 295 297 297 298 296 295 294 293 295 295 296 296 298 299 300 302 303 302 302 303 306 309 312 318 323 319 317 325 324 322 321 312 307 315 323 322 320
289 288 286 286 292 291 293 298 299 298 295 294 293 294 296 296 296 296 296 298 299 300 301 302 303 304 305 307 310 315 320 321 319 318 322 322 320 317 314 314 310 295 298 299

GFSCGP_sfc_thetae_081.txt.gz
Theta_e
296 294 291 293 294 293 292 290 290 293 296 295 294 294 296 299 299 300 301 302 303 304 305 307 312 316 316 319 321 322 323 332 329 334 340 341 341 342 342 343 342 342 343 342
293 290 294 294 293 292 291 290 290 293 296 294 294 293 296 298 299 300 302 302 303 302 303 308 312 314 315 316 318 321 321 326 326 325 337 340 343 344 344 345 345 344 342 339
290 292 294 293 292 291 291 290 290 289 293 295 293 290 293 297 299 300 302 302 302 302 304 309 310 311 313 314 316 318 321 322 323 327 329 338 343 343 342 343 343 345 344 343
292 294 292 292 290 293 288 295 292 290 289 284 292 283 290 294 295 298 299 301 302 305 307 308 309 310 312 312 314 316 319 322 322 326 327 336 333 334 341 343 345 346 346 346
290 291 291 290 291 295 290 295 292 291 289 288 287 285 289 293 292 295 299 300 304 306 307 307 308 310 312 313 314 315 319 320 322 323 324 325 335 337 343 344 349 349 348 349
293 295 294 293 295 295 295 292 290 289 288 282 286 286 287 290 293 295 299 301 304 306 306 308 310 311 312 314 315 317 317 320 320 321 322 326 332 339 339 340 339 340 342 345
290 291 296 296 292 293 292 289 283 281 281 281 288 285 288 293 296 297 298 300 305 306 306 307 308 309 311 313 315 317 318 317 319 320 321 322 328 336 341 342 341 344 343 344
286 284 292 295 292 290 290 289 283 275 278 281 286 282 288 295 298 299 301 304 305 305 306 307 309 310 311 312 315 317 317 317 319 320 320 322 326 327 337 343 343 343 344 348
287 286 293 294 294 294 288 286 289 284 284 281 284 288 293 296 296 298 300 302 302 304 306 307 309 310 311 313 315 316 317 318 320 321 322 322 325 329 335 344 348 343 349 347
291 285 291 293 294 293 291 293 285 286 277 276 282 284 285 291 293 297 298 300 302 304 305 307 308 310 312 313 315 316 317 317 318 321 325 324 325 328 335 341 345 345 349 348
293 290 288 291 290 289 289 288 289 287 286 279 278 283 293 293 295 296 299 301 301 302 304 306 307 309 311 312 312 315 315 315 316 319 322 328 330 329 334 340 342 344 349 348
294 291 285 288 293 293 292 290 290 284 282 285 284 284 296 296 297 299 299 300 302 303 306 306 307 308 310 311 311 312 313 314 315 318 321 323 330 331 334 338 340 345 346 347
295 289 282 284 288 291 289 290 291 290 288 284 280 284 296 298 298 299 299 301 302 304 305 305 307 308 309 310 310 311 312 313 314 317 317 319 327 331 334 338 340 342 345 346
297 291 286 281 285 289 286 289 291 290 284 285 285 287 292 295 297 299 300 302 303 303 304 305 306 307 308 309 308 308 310 312 314 316 314 318 327 332 333 338 341 345 345 345
295 287 290 289 290 290 289 289 289 288 289 284 287 288 292 296 297 299 301 301 301 302 302 304 305 307 307 308 308 307 310 312 313 314 313 317 332 332 333 337 340 344 345 345
294 287 289 286 289 289 287 289 289 290 290 290 290 290 297 299 300 299 300 300 300 301 303 304 305 306 306 307 307 307 309 311 313 312 311 317 335 330 334 338 341 343 343 344
291 289 286 282 287 286 282 287 289 290 292 292 288 293 298 297 298 299 300 300 300 302 303 304 305 306 307 307 308 306 310 312 310 310 311 322 334 331 334 338 340 341 342 343
289 288 287 282 285 276 288 294 294 292 294 295 294 296 298 298 300 301 302 302 301 303 303 304 305 306 307 308 307 308 309 309 309 309 313 325 332 332 335 336 336 336 338 340
291 288 283 280 281 285 288 292 292 290 290 296 295 296 298 300 300 299 304 305 304 304 305 306 306 306 306 306 307 307 306 307 307 311 322 329 333 332 331 333 333 335 337 338
290 290 285 284 280 278 288 293 297 296 287 297 296 297 298 299 290 295 304 305 305 306 306 306 306 305 305 306 308 306 306 307 309 320 322 330 333 334 333 335 336 338 338 336
286 285 282 283 283 287 293 295 297 284 288 297 298 299 299 296 299 302 304 304 305 304 304 305 304 304 305 307 307 305 306 307 314 324 323 328 334 335 335 334 334 334 332 334
286 284 285 285 282 280 297 295 289 296 299 299 299 300 299 301 300 300 302 302 301 300 302 303 302 303 306 307 307 306 308 313 318 324 323 329 332 331 331 331 332 332 332 328
285 289 286 288 289 297 299 297 299 300 298 300 300 301 301 299 299 300 299 299 299 298 301 302 302 303 307 309 309 309 311 314 318 322 322 326 328 328 329 329 327 328 329 326
290 294 288 289 292 294 296 299 299 299 299 301 302 302 301 299 299 298 298 297 298 299 300 302 303 303 305 309 310 312 313 315 319 322 323 325 326 327 329 329 328 328 329 328
291 292 290 290 293 295 296 297 299 300 302 302 303 302 300 299 298 297 297 297 298 298 300 302 302 302 304 308 310 313 314 316 320 322 325 324 325 326 320 314 325 330 331 326
292 289 286 285 291 291 293 298 301 301 301 302 300 299 299 299 297 297 296 297 297 298 300 301 302 304 307 310 311 314 315 316 321 319 324 323 320 320 319 320 315 296 299 298

GFSCGP_sfc_thetae_084.txt.gz
Theta_e
301 298 295 297 298 298 296 295 294 296 299 298 298 298 301 303 304 303 303 304 306 307 309 311 316 318 320 323 325 327 328 333 332 329 336 338 342 345 346 348 349 349 347 347
297 294 298 298 298 297 296 294 294 297 299 298 297 297 301 302 303 305 305 304 306 307 307 311 315 317 317 320 323 325 327 329 330 328 334 335 338 340 345 348 353 351 349 349
295 296 299 297 296 295 295 294 294 294 297 299 297 295 298 301 303 305 306 307 308 307 307 311 313 316 318 319 321 322 325 327 329 332 330 331 336 341 340 345 347 352 352 349
296 298 296 295 294 296 293 297 295 293 293 289 296 287 295 298 299 301 304 306 307 308 310 310 311 314 316 317 320 322 326 328 327 331 330 333 329 328 332 340 345 349 353 352
294 295 295 294 295 297 294 297 295 295 293 292 292 289 294 297 296 300 302 304 307 308 310 310 312 313 316 318 320 322 325 328 329 330 331 328 329 327 330 334 350 358 358 355
297 300 297 297 298 298 298 296 296 296 293 286 292 290 292 295 297 299 302 304 305 308 309 311 312 314 315 317 319 322 324 326 328 329 330 330 330 330 329 333 336 340 346 351
296 296 298 300 296 298 297 293 287 285 286 286 292 289 293 298 299 300 300 301 304 308 308 309 311 312 315 316 318 318 320 322 325 327 328 329 330 331 331 333 332 339 340 344
290 288 295 299 296 294 294 293 287 280 282 287 292 286 293 299 300 301 302 304 306 307 308 310 311 313 314 316 317 318 320 320 321 323 326 330 332 329 328 334 335 336 342 345
291 290 297 298 298 297 293 290 295 289 289 286 289 292 296 299 299 300 301 304 305 307 308 309 310 313 314 315 317 318 319 320 322 323 325 327 331 333 332 336 342 338 348 343
295 289 296 297 298 298 296 297 288 289 281 281 287 288 291 295 296 299 300 301 304 307 307 309 310 312 314 315 317 318 318 318 320 322 323 324 329 333 336 335 338 343 348 351
298 294 293 296 294 292 293 291 292 292 291 284 283 289 298 297 298 299 301 304 305 306 308 309 310 312 313 314 315 317 318 318 319 320 322 324 326 331 333 336 338 340 348 349
298 294 289 291 296 297 296 294 294 288 286 289 288 288 300 300 301 301 303 305 306 308 309 309 310 310 311 312 314 315 316 315 317 318 320 322 326 329 331 334 339 340 343 345
297 292 287 288 293 295 293 294 295 295 293 288 286 289 300 301 302 303 303 305 306 308 308 309 309 309 310 311 312 313 314 314 315 317 319 320 324 326 329 333 339 340 341 343
299 294 290 285 288 292 289 291 293 292 288 289 289 291 296 299 300 302 304 306 306 307 308 308 308 309 310 311 311 312 312 313 315 317 317 319 323 326 328 332 339 340 340 341
297 291 292 291 292 292 291 291 292 290 291 287 291 292 296 299 301 303 304 305 305 306 307 308 308 309 311 312 312 313 312 313 314 315 316 319 322 325 327 329 340 340 342 343
298 289 291 289 291 291 289 292 292 292 293 293 293 293 299 301 303 302 304 305 304 305 306 307 309 309 310 312 312 312 312 312 313 314 314 318 320 322 325 330 341 339 341 346
293 290 288 285 290 289 285 290 291 293 295 294 290 296 301 300 300 302 304 305 304 305 307 308 309 310 311 312 312 312 312 312 311 313 315 317 318 319 322 332 339 338 346 353
291 289 289 286 287 279 290 296 296 295 297 298 298 299 301 300 302 304 306 305 306 307 307 308 309 310 311 312 312 312 312 311 312 313 314 314 314 317 321 336 337 344 349 353
296 292 286 283 283 287 290 294 294 294 294 299 299 299 301 302 303 303 306 307 305 307 307 307 309 309 310 310 312 311 311 309 310 309 310 313 316 317 325 336 339 346 349 351
293 293 288 286 281 280 290 296 300 299 290 300 300 300 300 301 295 299 306 305 307 307 307 307 308 307 307 309 309 308 309 308 308 308 311 313 313 320 331 336 341 344 347 345
287 286 283 284 284 289 296 298 300 286 290 300 302 301 300 297 301 304 306 307 307 306 306 306 306 304 306 307 309 308 309 308 309 310 311 312 316 330 335 336 338 339 339 339
287 287 286 287 284 282 299 298 290 298 301 301 302 301 300 301 304 305 305 305 304 303 304 303 302 303 306 307 307 308 308 310 312 312 313 318 329 333 335 335 336 336 336 335
288 291 288 290 291 300 301 300 302 302 297 297 298 301 303 303 304 305 303 303 303 303 301 302 302 303 306 307 307 308 311 313 313 314 320 323 330 331 334 333 332 332 334 334
293 296 291 292 294 296 299 301 303 303 302 303 302 303 304 303 303 302 302 302 303 301 300 301 301 302 305 308 309 311 313 315 315 316 323 325 327 328 331 332 332 332 336 334
292 293 288 291 295 295 298 299 301 301 302 301 302 302 302 302 301 302 301 301 300 300 300 300 301 302 304 305 309 315 316 317 317 316 323 325 325 326 326 326 331 333 335 330
291 289 286 285 291 289 291 299 301 299 299 300 301 301 302 301 298 299 298 299 299 299 299 298 300 302 304 306 310 316 317 318 317 316 322 321 321 324 328 328 319 296 302 300

GFSCGP_sfc_thetae_087.txt.gz
Theta_e
305 300 297 299 302 300 299 298 297 300 303 300 300 302 304 308 307 306 307 309 310 310 314 314 317 319 320 325 327 331 331 337 338 337 335 339 342 350 348 349 355 353 353 353
300 296 301 302 301 299 298 297 297 300 302 301 300 300 303 306 306 307 307 308 309 310 311 313 317 318 319 321 325 328 331 334 332 331 336 339 337 339 347 351 354 354 354 354
297 300 302 299 298 297 298 296 297 297 300 302 299 297 300 304 306 306 307 308 309 310 311 312 315 317 318 319 321 323 327 334 335 334 333 338 340 340 339 337 350 355 355 355
299 302 298 298 296 298 294 300 299 297 295 291 300 290 298 301 302 304 305 306 307 310 312 313 314 316 317 318 320 321 325 329 331 334 331 340 331 328 332 338 345 351 356 357
297 297 297 296 297 299 296 300 298 298 295 295 295 292 296 301 300 301 304 307 308 311 312 313 313 315 316 318 319 322 326 327 330 333 333 330 333 329 332 332 345 353 358 360
299 303 300 299 300 299 301 298 298 297 295 288 293 293 294 298 300 302 305 306 308 309 311 313 314 315 316 317 319 321 324 325 327 330 331 332 332 332 329 331 333 335 341 349
298 298 301 301 297 300 299 295 288 287 287 287 296 293 295 300 302 303 303 306 307 309 311 311 312 313 315 316 318 319 321 322 325 326 327 329 332 335 333 334 330 333 333 338
292 290 298 301 298 296 296 295 288 282 283 286 295 289 294 302 304 304 304 305 306 307 310 310 311 313 314 315 317 319 319 320 323 324 326 328 330 328 330 335 334 331 332 337
293 292 300 300 302 300 296 292 297 290 291 288 291 295 300 301 301 302 303 305 306 308 310 310 312 312 313 316 317 318 319 320 321 322 325 327 329 331 331 339 342 333 339 339
298 291 298 300 301 300 298 299 290 291 283 281 287 289 290 297 299 301 302 304 306 308 309 311 311 313 314 316 317 319 319 319 321 322 323 324 327 328 332 336 338 343 343 344
300 296 294 298 296 295 294 293 294 293 291 284 283 288 299 299 301 301 303 304 307 308 309 311 312 313 314 315 315 317 318 319 319 320 321 324 324 326 330 333 336 337 341 343
300 296 290 293 299 300 299 295 295 288 287 290 289 288 300 302 303 303 303 306 308 309 310 311 312 313 313 313 314 315 317 317 317 318 318 319 323 325 329 330 333 338 340 345
300 294 288 290 295 298 295 296 296 295 294 289 286 289 302 303 303 305 305 306 307 309 310 311 312 312 312 313 313 313 314 315 316 316 316 318 323 325 328 331 334 333 338 341
301 295 292 287 289 293 290 294 295 293 289 289 290 291 295 298 301 304 305 306 308 308 309 310 311 311 312 313 314 314 315 316 316 315 314 316 319 325 326 329 332 332 335 337
299 291 293 293 295 294 293 293 294 293 293 289 292 292 296 299 301 303 305 306 306 307 309 309 310 311 312 313 314 315 315 316 317 315 314 316 319 323 324 326 329 332 335 335
298 291 292 291 293 293 291 293 293 293 293 293 293 292 300 302 303 302 303 305 305 306 308 309 310 311 312 313 313 315 315 316 316 315 314 314 314 317 322 325 328 331 332 336
294 292 290 286 292 292 288 291 292 293 295 294 289 294 300 299 300 303 305 306 306 306 308 309 311 311 313 314 316 315 316 316 315 314 313 313 313 315 318 320 325 328 332 338
292 292 292 287 289 281 293 298 297 295 296 298 298 299 300 301 304 305 307 306 305 307 309 310 310 311 312 313 315 316 316 315 313 313 312 312 313 314 317 320 320 327 332 339
296 293 288 284 285 289 292 295 294 294 293 299 297 301 301 302 303 302 306 306 308 308 310 310 311 310 311 312 313 312 313 313 312 310 310 313 313 312 312 315 321 324 331 339
295 297 288 287 282 281 292 297 302 301 290 302 302 301 300 300 294 299 307 309 309 309 310 310 310 309 309 309 312 310 309 309 308 310 312 311 311 311 313 315 317 322 333 340
288 288 286 287 285 289 297 300 302 287 291 301 301 302 302 299 302 306 308 307 308 309 310 310 308 307 308 309 309 306 308 307 310 312 314 312 312 312 316 316 317 326 337 341
290 288 287 288 284 283 299 299 291 298 303 303 303 302 301 302 303 305 305 305 307 309 308 308 306 307 307 308 308 307 307 311 312 313 315 315 315 317 320 319 320 331 339 341
289 293 291 291 292 301 301 301 304 303 300 301 301 302 302 301 302 303 303 305 306 306 306 307 306 306 306 307 308 305 307 311 311 311 312 314 317 318 317 317 326 333 334 335
295 299 293 293 297 298 300 303 303 303 302 304 304 301 300 299 300 301 302 304 304 305 304 305 304 303 303 305 307 309 309 312 311 310 310 310 310 311 316 334 332 333 333 333
293 296 291 293 296 297 300 301 302 302 304 302 303 301 300 301 300 300 300 301 301 301 302 303 303 303 304 305 307 309 310 310 311 313 316 323 325 327 326 322 331 334 334 334
296 290 287 287 294 291 292 299 303 301 300 299 299 299 299 298 296 297 297 298 299 299 300 302 302 303 304 304 306 310 311 313 315 316 316 321 323 323 324 319 312 297 303 302

GFSCGP_sfc_thetae_090.txt.gz
Theta_e
304 299 296 298 300 300 299 297 296 299 304 301 301 301 303 306 307 306 309 312 312 313 316 320 321 323 324 328 331 329 334 339 340 337 330 338 345 350 353 350 351 351 352 349
300 297 302 303 301 300 299 296 296 300 302 301 300 299 303 305 306 308 309 309 311 313 313 317 320 322 324 330 329 328 328 334 337 339 335 334 332 334 337 342 350 351 351 352
297 299 303 301 299 297 297 295 295 295 299 301 299 297 299 303 306 307 309 311 312 311 312 315 317 321 323 325 325 330 331 331 331 338 337 340 335 335 334 334 334 354 351 351
299 302 300 299 296 298 293 299 299 297 295 290 300 289 298 301 303 305 307 308 309 310 313 314 316 319 322 323 327 331 333 333 332 334 336 336 335 331 331 332 335 340 353 350
297 299 298 296 297 299 295 300 298 297 295 294 294 291 295 300 299 302 305 307 309 311 311 314 315 318 319 323 324 331 334 331 332 332 334 331 330 333 334 331 332 335 338 354
299 304 301 299 301 300 301 297 297 297 294 287 292 291 292 296 299 303 305 306 308 309 311 313 316 317 319 319 321 327 329 332 333 332 329 332 331 330 329 329 331 332 332 334
298 299 301 302 297 300 298 294 286 285 286 285 294 292 295 301 303 304 304 305 308 310 311 312 313 313 315 317 321 322 325 327 330 331 330 331 330 333 332 332 330 331 330 330
291 290 298 302 298 295 296 294 287 281 283 286 293 288 294 302 305 306 306 307 308 308 310 311 312 314 316 317 321 323 324 326 327 328 330 333 332 329 328 330 333 333 332 334
292 292 302 301 302 300 295 292 298 290 291 287 290 294 299 302 302 303 303 304 305 307 309 310 311 315 315 317 321 322 324 324 326 327 329 332 332 331 328 331 333 331 335 333
297 291 298 300 301 301 297 299 290 290 282 280 287 288 289 297 299 301 301 302 305 308 308 310 312 315 316 318 322 323 322 322 323 326 327 326 329 330 331 332 331 332 333 336
299 296 294 298 295 294 295 293 294 293 291 284 282 286 298 298 301 302 302 304 305 307 308 310 311 314 315 317 316 323 323 322 323 327 326 325 326 325 327 327 327 329 333 336
300 295 290 293 299 300 298 295 295 289 286 289 288 288 301 302 301 304 303 305 306 308 309 309 311 312 314 315 315 317 322 319 319 321 320 322 324 324 323 322 326 329 328 332
299 294 288 290 294 298 294 295 295 294 294 288 285 288 302 302 302 303 304 305 307 309 309 309 310 311 312 314 315 315 317 316 318 318 317 321 323 324 322 321 327 329 328 329
301 294 291 285 289 293 290 291 294 292 286 289 289 291 296 299 299 301 302 305 305 304 309 309 309 310 313 314 314 314 315 317 317 317 318 319 322 322 322 322 322 325 325 325
299 289 292 292 293 293 293 292 293 290 290 287 291 291 295 299 301 303 304 304 304 306 306 309 310 312 313 313 315 316 315 316 319 318 317 319 322 321 319 318 319 321 322 325
299 289 293 290 293 292 290 293 293 293 293 293 294 292 299 302 303 302 303 304 305 307 307 308 310 312 312 314 315 315 316 317 318 316 316 317 317 317 317 317 317 317 321 324
294 291 290 285 291 290 287 292 293 294 295 294 290 296 301 299 302 303 304 305 305 306 307 308 310 313 314 314 314 313 315 316 317 314 314 315 315 315 315 315 315 316 317 322
292 291 292 286 289 279 291 298 297 295 296 297 298 299 300 300 302 304 306 306 306 307 308 309 310 313 314 314 316 315 315 314 313 313 313 313 314 314 314 314 312 315 317 319
297 293 289 284 284 288 291 296 295 294 293 300 299 299 301 301 303 302 306 306 307 309 309 310 311 312 313 313 314 313 312 312 311 310 311 311 311 311 311 310 312 315 315 316
297 298 292 288 282 280 291 296 300 300 289 300 299 298 299 299 293 298 306 307 307 309 310 310 311 312 313 312 313 312 310 309 308 308 309 311 312 311 311 312 312 314 314 314
290 288 285 286 284 289 297 299 302 286 289 300 300 299 299 297 299 303 306 306 307 308 309 311 311 309 311 313 313 310 309 307 308 310 311 310 311 311 312 313 313 313 313 315
290 288 287 288 285 282 297 298 291 297 302 301 300 300 299 301 302 302 304 304 305 306 307 308 307 308 310 311 309 307 305 307 309 310 309 310 310 312 312 312 311 312 314 314
289 292 290 292 292 301 301 300 303 302 299 300 301 302 302 300 300 301 301 302 303 304 304 305 305 306 307 307 307 305 305 307 307 308 308 308 310 310 310 312 312 313 316 316
296 298 292 293 297 297 298 302 302 301 301 301 301 300 299 297 298 298 299 300 300 301 302 303 303 302 302 304 306 305 307 307 307 307 309 309 308 309 311 314 314 315 316 317
294 296 291 292 296 294 297 297 299 300 301 301 300 299 298 296 295 296 297 297 298 299 299 300 300 300 301 303 304 307 307 307 306 307 308 308 309 309 311 312 315 317 319 323
295 291 288 287 292 291 292 295 298 297 298 300 298 297 297 296 294 294 295 296 296 296 297 297 298 299 301 302 305 306 306 307 307 307 310 314 319 315 314 313 312 297 309 305

GFSCGP_sfc_thetae_093.txt.gz
Theta_e
298 291 288 292 294 295 294 292 292 295 299 296 295 295 298 301 300 299 300 301 304 306 310 314 318 319 320 321 322 326 325 326 329 328 325 331 342 342 343 344 346 346 343 345
294 290 297 300 299 297 294 292 291 295 298 297 295 295 297 299 298 299 300 301 305 305 309 314 314 314 316 320 320 321 324 324 326 328 329 329 330 331 338 339 336 345 346 345
291 295 301 299 296 295 293 291 292 292 296 297 294 292 294 299 300 301 302 302 304 306 306 310 312 312 313 316 316 321 322 323 322 325 326 329 331 329 328 326 327 329 338 346
294 298 298 295 294 295 289 296 296 294 291 285 294 284 291 296 297 300 302 302 302 304 307 310 312 312 312 315 317 318 320 322 325 325 324 324 324 323 326 326 328 331 336 345
293 295 294 294 295 297 292 297 294 294 289 287 289 284 289 294 294 297 299 302 301 304 307 308 311 313 314 315 315 319 320 321 322 324 324 323 322 325 327 325 326 329 331 333
295 300 297 296 299 298 299 294 292 290 286 282 287 286 287 291 294 297 301 301 303 303 306 309 311 311 310 312 313 319 317 317 319 319 320 320 322 323 324 324 325 326 327 327
294 295 299 300 294 296 293 285 278 277 278 280 290 287 289 296 299 300 301 300 301 305 306 307 306 308 309 308 310 314 315 315 319 317 318 320 320 323 324 325 325 325 325 325
288 286 295 300 297 292 291 288 283 277 277 281 291 286 289 300 300 303 303 301 302 304 306 306 307 308 308 309 310 313 315 315 319 320 319 321 321 322 320 321 323 324 326 326
288 289 299 300 299 297 291 287 290 287 288 282 284 289 294 300 301 301 301 301 300 301 304 304 305 306 305 305 308 312 313 315 317 315 316 315 319 319 320 320 321 322 324 329
292 286 296 298 299 297 294 296 285 287 278 276 283 284 285 294 296 299 299 296 297 300 301 302 304 305 306 306 308 310 312 312 314 316 317 318 318 320 320 320 321 322 323 325
294 289 290 294 292 289 289 289 290 290 286 278 277 281 293 292 296 297 299 301 298 299 300 302 303 304 305 307 308 310 310 311 313 315 316 317 318 315 315 316 319 319 320 322
295 292 285 288 295 298 297 291 292 285 282 287 283 283 297 295 296 297 299 301 303 302 302 301 303 303 304 305 306 307 308 309 310 314 315 314 313 314 314 312 313 317 319 322
294 287 282 285 289 294 291 293 293 292 290 283 282 283 298 299 298 300 299 301 302 303 303 304 307 303 305 305 306 307 308 310 310 310 311 311 313 313 312 315 315 313 319 322
301 291 287 282 287 290 288 290 292 290 284 283 286 287 292 296 298 299 300 302 302 302 303 304 306 307 304 305 306 307 307 308 309 310 309 308 310 312 313 313 314 316 317 314
293 285 288 290 292 292 290 289 291 289 290 285 287 289 292 295 298 298 299 301 302 302 304 304 305 306 308 305 308 309 309 310 310 311 309 310 312 313 312 313 313 313 313 316
294 285 288 287 291 291 288 290 291 291 291 291 291 290 297 298 299 299 301 302 301 303 304 308 306 310 309 309 307 308 309 309 310 309 309 311 311 311 312 311 312 312 312 311
286 286 284 280 288 288 282 289 291 292 293 292 289 293 297 296 297 297 298 301 302 305 304 304 305 307 307 310 308 306 307 308 310 310 310 310 309 309 309 310 310 310 309 309
286 285 283 278 284 274 287 296 295 292 296 296 295 297 299 297 298 300 302 302 302 302 303 303 303 303 304 306 306 308 309 309 309 307 308 308 308 308 308 308 309 307 306 308
293 287 280 280 276 285 288 293 293 291 291 296 295 297 298 299 298 297 303 304 303 302 303 303 305 305 305 306 307 308 307 306 307 306 306 307 307 307 307 306 306 308 308 308
295 292 283 279 275 275 287 296 299 298 284 296 297 295 295 295 288 292 300 301 301 302 303 302 304 305 305 306 307 306 305 305 304 305 306 307 306 306 305 306 306 307 307 307
287 284 279 283 281 284 294 296 300 285 287 297 297 296 295 292 293 297 299 299 300 300 300 302 301 300 302 303 305 303 304 303 305 306 307 306 306 306 307 307 307 308 308 308
286 283 284 285 281 278 298 297 290 294 295 296 296 296 295 296 297 296 296 295 296 296 298 299 299 299 301 302 302 302 301 303 305 306 305 305 306 307 308 308 309 309 309 309
285 289 282 288 284 294 296 296 297 296 294 295 295 296 297 295 294 295 293 294 294 295 296 298 297 297 299 299 300 299 301 303 304 303 304 306 307 308 308 308 307 308 309 309
292 294 289 287 292 290 293 294 295 295 294 296 297 296 297 294 295 293 293 293 293 294 294 296 296 296 296 298 300 300 302 303 304 304 305 305 305 306 308 309 309 306 306 308
290 291 287 287 290 290 294 293 293 294 296 297 297 297 296 294 294 293 293 292 292 292 294 295 294 294 295 297 298 300 301 302 304 304 304 304 306 306 306 306 306 308 309 309
292 287 286 284 290 289 290 294 295 295 294 295 295 296 296 296 294 293 293 292 291 291 292 293 293 294 295 297 298 300 302 304 304 302 303 305 306 306 308 307 306 296 299 300

GFSCGP_sfc_thetae_096.txt.gz
Theta_e
295 289 286 290 291 292 291 289 288 292 296 293 291 292 295 298 298 300 298 298 300 307 311 313 317 319 320 321 322 322 321 323 326 325 327 330 331 340 341 342 343 342 339 346
291 287 294 296 296 294 292 289 289 293 296 293 292 291 295 296 297 297 298 299 300 303 308 314 315 316 316 317 319 321 322 321 322 323 324 324 328 331 335 333 333 337 343 342
288 293 298 296 294 293 291 289 289 290 294 294 291 289 292 296 297 299 299 299 302 304 307 311 313 314 314 315 315 317 318 319 319 320 322 324 326 324 325 326 329 330 331 332
290 295 296 293 292 292 287 294 294 292 289 282 291 281 289 293 294 297 298 297 298 302 307 311 312 311 315 315 317 317 319 319 319 322 319 318 319 319 324 326 328 329 333 335
291 293 292 291 293 295 290 295 292 292 287 283 286 282 288 291 292 294 297 298 298 299 305 308 309 311 312 313 312 317 318 317 320 320 319 317 316 318 322 324 324 325 329 332
293 297 295 294 297 296 297 292 289 287 284 279 284 283 285 289 291 294 298 300 302 303 303 308 310 311 311 313 312 315 315 315 318 318 318 318 317 317 318 319 322 323 325 326
292 293 297 298 292 295 291 284 278 276 277 279 286 284 287 292 296 298 297 300 302 303 301 306 309 309 310 310 310 316 315 313 315 316 316 316 315 318 317 320 321 321 322 324
286 285 293 298 293 290 289 287 283 275 275 280 288 282 288 297 299 300 301 301 300 300 305 308 308 308 308 309 309 315 311 309 314 314 314 315 315 315 317 319 317 321 321 325
286 287 297 298 297 294 289 285 288 286 288 281 283 287 293 297 297 299 299 300 300 300 303 306 307 308 306 306 308 309 312 311 312 314 314 315 316 316 317 317 317 317 320 323
292 285 294 296 297 295 292 294 285 287 278 278 282 284 285 289 294 296 297 300 301 301 302 302 304 306 306 306 308 309 311 313 312 314 313 314 312 315 317 316 316 318 319 320
292 289 290 293 290 288 289 288 288 286 285 281 277 280 289 291 293 294 296 299 299 301 302 302 301 302 303 303 303 305 308 311 310 312 313 312 313 314 317 318 317 316 315 315
294 289 284 288 293 295 293 289 287 280 279 285 284 284 296 295 296 296 297 301 300 302 301 301 302 302 301 302 304 305 306 309 311 312 313 313 314 314 313 312 311 311 312 315
293 286 281 283 287 291 290 292 290 289 288 283 282 281 297 298 297 298 297 300 300 302 302 302 303 302 303 302 303 303 306 308 309 310 312 312 312 311 311 311 311 311 314 313
298 288 285 281 286 290 288 290 291 289 282 282 284 287 292 295 297 298 298 297 298 302 303 303 302 301 304 304 305 306 304 305 305 306 306 308 309 310 311 311 311 312 312 312
292 286 288 289 291 291 290 289 290 288 288 283 286 288 291 293 295 296 298 300 300 301 303 303 305 304 303 305 308 308 308 308 308 308 307 307 307 308 310 310 311 313 313 314
290 283 287 286 290 290 287 289 289 289 289 288 289 289 294 296 297 297 297 300 299 301 302 304 305 307 308 308 308 308 307 307 307 306 306 308 309 310 311 310 310 311 312 312
285 284 281 278 287 287 281 286 289 290 292 291 286 291 295 294 296 296 296 299 300 302 302 301 302 303 304 305 305 308 307 306 306 306 307 309 309 308 308 310 310 309 308 309
284 282 280 277 281 273 284 294 295 290 291 293 291 294 298 296 296 298 300 298 299 300 301 301 304 302 302 303 304 304 305 307 308 308 309 309 308 307 307 306 305 305 305 306
288 284 279 276 274 282 287 292 290 289 290 295 293 295 296 296 294 294 300 299 298 299 300 300 302 304 303 302 303 303 304 305 306 307 307 307 306 305 305 304 303 303 303 305
291 290 284 276 274 274 285 294 297 296 285 296 295 294 293 293 287 290 296 297 295 295 296 296 297 299 299 299 300 301 302 303 303 304 305 306 306 304 303 303 304 305 305 304
282 283 276 276 278 283 293 295 298 282 284 295 293 292 291 288 291 295 297 295 295 294 295 296 296 295 297 299 299 298 299 299 303 305 306 305 305 305 305 305 305 304 304 305
285 282 280 283 282 278 295 295 288 291 294 294 293 293 292 293 294 294 295 295 294 294 295 295 294 294 296 298 297 297 297 299 301 303 303 303 304 305 305 304 304 306 306 305
284 289 283 283 282 291 294 293 293 294 292 292 293 293 294 293 292 296 294 294 295 294 294 295 293 293 295 296 297 296 297 299 300 301 301 302 303 304 304 304 304 305 306 305
290 291 288 285 288 288 290 292 292 293 292 293 294 295 295 292 294 293 295 295 294 294 294 294 293 292 293 295 295 296 297 298 298 298 299 300 301 302 306 307 306 305 305 305
288 288 285 284 287 290 291 292 293 295 296 295 295 294 294 294 294 292 292 292 291 292 293 292 291 291 292 294 294 296 297 298 298 299 300 302 303 303 303 304 304 304 306 306
290 285 279 280 290 290 291 294 295 294 293 294 292 293 295 294 291 292 289 290 292 290 292 291 292 292 293 294 296 297 299 299 298 298 300 301 302 303 304 304 304 301 301 299

GFSCGP_sfc_thetae_099.txt.gz
Theta_e
293 288 285 288 289 290 289 287 286 290 293 292 290 291 293 295 295 295 296 297 302 307 311 309 311 314 317 317 318 321 324 325 328 325 327 329 339 341 338 342 344 342 341 345
289 286 292 294 293 291 290 287 287 290 294 291 290 290 293 293 294 295 296 296 296 299 301 309 312 315 317 318 318 318 318 321 324 323 322 324 328 330 332 335 340 343 343 342
287 291 296 294 292 291 289 287 288 288 292 291 290 288 290 293 295 297 298 297 297 300 301 306 312 314 316 316 318 318 317 318 319 320 321 323 323 322 323 325 329 332 333 335
289 293 293 291 291 291 285 292 292 291 287 282 289 282 287 290 292 294 296 296 296 297 302 307 310 312 312 316 316 318 318 316 317 319 317 317 317 316 319 321 324 328 331 332
289 291 291 289 291 293 289 294 291 290 286 282 284 280 283 288 289 292 294 296 298 298 299 304 308 312 313 313 314 314 315 315 316 317 315 314 314 316 318 319 320 321 325 329
292 295 293 292 295 294 295 290 287 285 282 277 283 282 282 286 289 291 294 297 299 300 298 302 308 310 310 311 313 315 314 313 316 317 316 315 313 313 314 316 317 318 320 322
290 291 294 296 290 293 289 283 277 276 276 279 285 282 285 289 293 294 296 297 298 299 300 300 303 306 309 310 310 313 312 312 315 315 315 315 315 314 315 314 316 318 319 319
284 284 291 296 292 289 287 285 279 275 275 279 286 280 286 294 297 298 298 298 297 298 299 301 302 308 311 311 310 313 311 311 313 313 313 313 312 313 314 314 317 315 316 318
284 286 295 297 297 295 289 284 286 282 284 278 282 286 292 295 296 297 297 297 296 297 299 300 304 306 309 310 310 313 312 311 313 313 312 312 312 312 313 314 315 314 315 320
290 284 293 295 296 295 292 293 283 283 277 275 281 283 284 290 291 295 296 296 296 298 300 301 301 302 304 306 309 311 313 312 311 313 312 312 313 314 314 314 314 314 315 318
291 287 288 292 290 289 289 288 289 287 284 277 277 280 288 289 292 294 297 297 297 297 299 300 303 301 301 301 302 307 308 309 308 309 311 311 312 312 313 313 314 315 315 316
294 289 284 288 292 296 293 290 290 283 282 285 281 281 294 293 295 297 298 300 300 299 299 303 305 305 303 300 300 301 302 304 307 309 310 310 311 311 310 313 315 316 315 314
295 286 281 284 288 292 290 292 289 286 287 281 277 280 294 297 295 297 299 300 301 301 300 301 301 302 303 304 303 302 302 304 306 308 309 310 310 309 310 312 313 311 312 311
297 289 285 281 285 288 287 289 291 289 283 283 283 285 290 293 293 296 298 299 301 298 299 301 301 300 303 303 304 305 305 303 304 305 306 307 308 310 311 311 311 310 310 310
292 285 288 289 290 291 289 289 289 286 288 284 285 286 289 292 293 295 297 300 301 301 301 301 301 302 304 305 305 305 305 307 306 305 304 304 307 307 307 308 308 309 309 311
290 283 288 286 290 289 287 288 288 289 288 287 287 286 293 296 296 296 297 299 299 300 301 301 301 301 302 303 305 307 306 306 305 304 304 305 306 307 306 307 309 310 310 310
286 284 282 279 285 285 280 284 286 288 290 289 284 289 291 296 296 296 297 298 297 299 300 300 300 301 301 301 302 303 304 305 305 304 305 306 306 307 308 310 309 308 308 309
284 282 281 277 280 273 283 293 293 290 291 293 292 292 295 295 296 297 298 295 296 297 298 297 298 299 299 300 301 302 303 303 304 304 305 307 307 307 308 308 308 308 306 306
288 286 280 275 274 281 285 292 291 290 289 295 294 294 294 295 293 293 300 297 296 295 295 295 295 295 296 297 298 299 300 301 302 303 303 305 306 306 306 305 304 304 302 302
291 291 283 277 276 274 284 293 296 296 285 295 294 293 291 292 285 289 294 296 296 297 295 294 294 295 295 295 296 295 296 297 298 300 302 304 305 304 304 303 301 301 301 303
283 283 282 282 280 281 292 294 297 284 281 292 292 291 292 290 292 293 296 295 295 296 295 296 295 294 295 295 295 294 295 295 298 300 301 302 303 303 304 303 302 302 302 303
283 280 275 282 279 275 293 292 284 287 290 291 290 293 292 293 293 294 295 294 295 295 295 296 295 295 295 296 294 293 293 296 297 298 298 299 299 301 302 302 302 302 303 302
281 288 280 283 280 289 289 291 291 291 290 291 292 293 294 292 292 292 293 294 295 295 295 296 295 293 295 296 295 293 294 296 297 297 297 298 299 300 301 300 301 301 302 301
288 289 288 285 287 287 290 291 291 292 293 295 295 295 294 291 292 293 293 291 291 292 292 291 291 292 293 294 294 294 294 295 295 295 295 296 296 297 298 300 301 302 301 301
287 287 283 283 286 289 289 290 294 294 295 295 294 293 293 293 293 293 291 291 292 291 290 292 291 291 292 293 293 295 296 296 295 295 296 296 298 299 299 301 301 301 303 303
288 285 279 280 288 290 288 293 294 293 292 293 293 293 294 294 293 291 290 291 290 289 290 290 291 290 291 292 293 295 296 297 296 296 297 297 298 299 300 301 301 300 300 300

GFSCGP_sfc_thetae_102.txt.gz
Theta_e
291 287 284 287 288 288 287 285 285 288 292 289 289 289 292 294 294 294 295 295 296 297 304 308 310 311 314 316 320 325 330 337 339 339 340 339 339 340 341 341 341 340 343 345
288 285 290 291 291 289 288 285 285 289 292 289 289 288 291 293 293 294 295 295 296 297 298 301 307 311 314 316 317 321 325 329 338 338 330 331 333 336 336 337 339 340 340 341
285 289 294 292 290 289 287 285 286 287 290 290 287 285 289 292 293 295 296 296 296 297 298 301 304 309 311 314 316 319 323 324 325 325 324 323 324 324 328 329 334 337 338 339
288 291 291 289 289 289 284 291 290 289 286 281 287 281 285 289 290 293 295 294 295 296 297 300 303 307 311 314 316 316 317 320 322 322 321 321 319 318 321 323 327 331 334 333
289 288 288 288 290 291 288 291 289 289 284 281 283 279 283 287 288 290 292 294 295 297 297 298 300 305 309 313 314 316 316 316 317 319 320 319 317 317 319 321 323 324 328 331
290 293 292 291 293 293 293 289 285 283 281 276 282 281 281 285 289 290 293 295 296 297 299 299 300 302 307 310 312 314 315 314 315 316 315 315 315 315 316 317 318 320 322 324
289 290 292 294 289 292 288 283 277 276 276 279 285 280 285 288 292 292 293 295 296 298 298 300 301 301 305 308 311 314 314 313 315 316 315 315 314 314 315 315 316 318 320 320
282 283 290 294 290 289 285 284 279 275 274 280 285 278 284 291 294 296 296 296 297 297 298 300 303 302 301 308 311 315 314 313 315 315 315 316 315 314 314 315 316 317 317 319
282 284 294 295 294 292 286 282 286 281 281 278 281 285 291 294 294 295 296 296 296 297 298 301 302 304 304 307 310 314 314 313 314 314 314 315 314 312 314 315 316 317 317 320
289 283 292 295 295 295 292 294 285 284 278 274 279 281 283 289 291 295 295 295 296 297 299 299 300 303 303 304 307 311 312 314 314 315 316 313 313 313 314 314 315 316 317 319
292 287 288 291 289 289 289 288 289 288 286 280 279 280 288 289 291 293 294 296 297 297 298 299 300 303 303 304 307 307 308 309 311 311 312 312 312 314 314 314 315 316 317 317
293 290 285 288 292 295 294 290 291 284 282 284 279 282 293 291 293 295 295 297 298 300 300 300 300 303 305 306 304 305 306 306 308 310 310 310 311 312 313 314 316 316 316 317
293 287 283 284 288 292 291 292 291 289 286 281 279 282 293 294 294 296 295 297 299 302 301 302 301 301 302 304 306 306 305 305 306 308 309 310 310 310 311 313 315 316 316 317
296 288 285 282 285 289 287 290 291 288 283 280 282 285 289 292 294 295 295 296 299 300 302 301 300 300 303 305 305 306 307 307 306 306 307 308 309 310 311 313 314 315 315 316
293 284 287 289 290 289 288 288 289 286 287 283 284 284 288 290 292 293 296 297 300 300 301 301 301 301 302 302 305 307 307 307 307 307 306 306 308 309 310 311 312 313 313 313
290 282 286 285 288 288 287 288 287 288 288 286 287 286 290 292 295 297 295 297 297 298 299 300 301 301 301 301 302 303 303 305 306 305 305 306 307 307 307 309 311 311 311 312
285 283 282 279 285 284 280 284 286 286 288 287 283 287 290 292 294 295 295 297 296 297 297 298 298 298 298 298 300 299 301 303 303 304 305 307 308 307 308 309 309 309 310 311
283 282 282 278 281 274 283 293 292 289 291 293 292 293 294 295 294 294 296 295 295 295 295 295 296 296 297 296 297 298 299 299 300 300 303 305 306 307 308 308 308 309 309 309
288 285 279 277 276 281 285 291 290 288 287 293 293 294 294 293 292 292 297 296 295 295 295 295 297 296 296 297 297 297 297 297 297 297 299 301 304 304 306 306 307 308 308 308
289 290 284 279 275 275 281 293 295 294 283 293 293 291 290 290 285 289 293 295 295 296 296 295 296 297 296 296 297 296 296 295 295 296 298 300 301 302 303 304 305 306 305 307
284 285 278 281 280 283 290 293 295 281 280 289 290 289 288 288 290 293 295 294 295 296 295 297 296 296 297 297 297 295 295 294 296 297 298 298 299 300 301 302 304 304 304 305
282 282 276 281 279 275 290 290 283 285 288 289 290 291 291 292 293 294 295 294 294 293 296 296 294 294 295 296 297 294 294 296 297 297 296 296 297 298 299 300 301 303 304 303
282 286 280 282 280 288 289 289 291 290 290 290 292 294 294 293 293 292 292 292 294 295 293 294 293 293 294 294 293 291 294 297 296 295 295 296 297 298 299 299 299 299 300 300
287 289 285 285 286 287 289 290 291 291 293 294 294 294 293 291 291 291 293 293 294 293 291 293 293 291 290 292 294 295 295 296 294 293 294 294 294 295 296 297 297 297 298 299
286 286 283 283 285 287 289 290 291 292 294 294 294 293 293 293 292 290 289 290 291 290 291 292 290 289 290 292 293 294 294 294 293 294 295 295 296 296 296 297 297 298 299 299
286 284 280 280 287 286 287 290 292 291 292 294 293 293 294 294 290 290 289 290 291 290 289 289 289 289 290 291 292 293 294 294 294 294 294 295 296 297 298 298 298 297 297 297

GFSCGP_sfc_thetae_105.txt.gz
Theta_e
298 295 292 295 296 294 293 292 292 295 299 296 297 298 300 303 303 304 305 306 307 309 312 313 316 320 323 329 333 338 342 348 347 345 343 343 342 344 343 345 348 348 349 351
295 292 297 296 295 294 293 292 292 296 298 296 297 297 300 302 302 304 304 306 307 309 311 313 315 317 323 325 332 334 339 345 347 347 348 346 346 345 343 343 348 348 347 349
293 295 297 295 295 293 293 292 293 293 296 296 296 294 297 300 302 303 305 306 307 307 308 310 312 316 320 324 327 331 336 340 346 350 349 343 347 347 346 345 346 346 345 345
295 298 295 294 293 295 291 296 296 294 292 289 295 287 295 298 299 301 304 305 307 307 310 310 312 315 318 321 325 328 332 338 340 344 343 344 341 340 344 344 346 345 347 345
294 294 293 293 295 296 294 296 295 294 293 291 292 289 293 296 296 299 303 305 306 308 308 308 310 313 315 317 321 326 329 330 336 340 344 343 344 346 340 344 341 345 346 346
297 298 297 297 297 297 298 295 293 292 291 286 292 290 291 294 297 300 303 304 305 306 308 310 313 315 315 318 319 324 327 329 331 336 338 340 342 335 333 337 336 335 338 341
295 296 299 298 295 298 296 293 286 285 285 285 294 290 293 298 300 302 301 303 306 308 308 309 310 312 315 317 318 320 324 326 329 330 335 335 337 335 335 333 331 332 331 332
290 289 295 298 296 295 295 294 287 281 283 286 291 287 292 299 302 302 303 305 306 307 309 310 311 314 315 317 317 318 320 323 327 328 330 331 331 330 330 331 328 328 330 332
288 289 297 299 300 298 295 290 296 289 289 286 289 293 298 300 300 301 303 305 305 307 309 310 311 312 314 317 319 319 320 321 325 326 327 327 328 328 326 329 331 328 331 328
295 288 296 297 298 297 295 298 290 291 282 281 288 288 290 296 298 300 302 303 304 307 308 310 310 312 313 315 318 320 321 321 323 325 326 326 326 326 325 327 328 329 330 329
296 292 292 296 294 293 294 292 293 293 291 284 283 288 298 297 299 300 301 302 303 305 308 309 310 311 314 315 314 317 319 319 320 322 323 324 324 322 324 325 327 329 331 330
297 294 288 291 298 297 296 294 294 289 286 289 288 288 300 299 300 301 301 302 304 307 308 309 309 310 311 312 312 314 315 315 318 320 318 319 322 322 322 323 326 329 329 329
296 291 286 288 293 295 293 295 294 293 290 287 284 288 299 300 300 301 301 302 303 306 307 308 308 308 309 310 312 314 316 315 316 315 314 317 321 321 322 323 325 327 328 328
297 292 289 284 288 292 289 291 293 291 286 287 287 290 294 296 297 299 302 303 304 306 305 306 306 306 306 308 309 309 310 310 312 315 315 316 316 318 320 321 324 325 326 326
294 287 289 290 291 291 289 289 289 288 289 286 289 289 293 296 297 300 302 302 302 303 303 304 304 305 305 304 306 307 307 308 307 308 309 312 314 315 316 317 319 322 323 325
295 288 289 286 289 289 287 289 289 289 290 290 290 289 297 298 300 300 300 299 298 301 302 303 302 302 302 303 305 305 306 306 307 305 305 308 310 312 315 316 316 318 320 322
291 289 286 282 287 287 284 288 289 290 291 291 288 293 298 298 299 299 299 299 298 300 302 301 301 301 302 302 302 303 304 305 305 305 304 306 308 308 311 313 314 317 318 320
290 289 288 283 285 278 289 296 295 292 294 296 296 297 298 297 298 299 300 299 300 302 301 301 301 302 302 303 303 304 304 304 304 303 304 304 304 306 308 310 311 314 317 318
293 289 284 282 282 286 288 293 292 290 290 296 296 296 297 296 296 297 300 301 300 301 301 302 302 302 302 302 303 303 303 303 303 302 303 303 304 304 305 306 309 311 312 315
291 292 287 283 280 278 288 295 297 296 286 293 293 292 293 294 286 292 299 299 299 300 301 300 301 301 301 302 303 302 301 301 301 302 303 303 303 303 303 304 306 308 310 310
285 286 283 284 283 287 293 295 297 285 288 294 295 294 294 291 293 296 298 298 300 300 299 300 300 300 301 301 301 299 299 299 302 302 302 302 302 302 303 303 305 306 307 308
287 285 284 285 282 280 294 294 288 294 296 295 296 295 295 296 297 297 297 297 298 296 298 298 297 297 299 300 299 298 297 298 299 299 300 300 301 301 301 302 303 304 305 306
286 291 289 289 289 294 296 295 297 297 295 296 296 297 295 293 295 295 295 296 295 296 294 295 296 297 297 297 298 296 296 297 298 297 298 299 298 298 298 300 301 302 303 303
292 294 291 290 292 293 295 296 297 297 296 297 297 296 295 294 295 295 296 295 294 295 293 294 293 293 294 295 295 295 296 297 296 295 296 297 296 298 299 299 300 300 300 301
292 293 290 291 293 294 294 296 296 296 297 296 297 296 295 295 295 295 295 294 293 294 293 293 292 292 292 294 294 295 295 296 295 295 295 296 296 297 297 298 298 298 300 301
294 292 291 289 294 293 294 297 297 295 295 296 294 294 296 296 296 296 296 294 294 293 292 292 292 292 292 292 292 293 294 295 293 293 294 296 295 296 296 296 297 296 295 295

GFSCGP_sfc_thetae_108.txt.gz
Theta_e
305 300 297 300 301 300 297 296 296 299 302 301 301 302 304 307 308 307 308 310 311 312 315 317 320 323 325 330 335 343 347 355 355 352 351 350 347 349 348 348 351 350 351 350
300 296 301 300 299 298 297 296 297 300 302 300 301 300 304 306 307 308 308 309 310 312 314 316 318 320 323 328 332 336 342 350 355 353 353 351 350 349 349 347 349 349 349 354
297 299 301 299 298 296 298 297 297 296 300 302 300 298 301 305 306 307 309 310 311 311 312 314 315 318 322 324 328 332 338 342 350 355 354 352 352 352 349 347 346 348 349 348
299 302 298 298 297 299 295 300 299 298 297 293 300 291 299 302 303 306 307 309 310 311 312 314 315 317 320 322 325 329 334 339 343 351 353 357 348 346 348 350 348 349 350 348
297 298 297 296 298 301 297 300 299 298 297 296 296 293 298 303 300 303 306 308 311 312 313 313 315 317 319 321 323 326 332 335 339 347 352 351 352 347 349 347 355 356 355 351
300 303 300 300 301 301 301 299 299 300 297 291 296 295 295 299 301 304 307 308 310 310 312 315 317 318 319 321 322 325 329 333 336 338 343 348 353 352 345 349 348 349 350 351
299 300 303 303 299 302 300 297 291 290 291 289 299 295 298 303 305 305 306 307 310 312 313 314 316 317 320 322 324 325 326 328 333 335 337 340 347 354 354 352 346 348 344 344
293 291 300 303 300 298 300 299 292 286 288 292 296 291 298 303 306 307 307 309 310 311 313 314 315 317 317 320 323 325 326 327 328 330 334 337 340 342 347 348 345 343 341 342
294 293 300 300 302 301 298 295 301 294 295 291 294 298 303 305 305 305 306 308 309 310 312 313 315 316 318 319 321 323 325 327 328 329 331 334 337 341 343 345 344 340 345 338
298 292 300 300 301 302 299 302 294 295 286 285 291 293 295 299 302 305 305 306 308 310 310 312 314 316 317 319 321 322 323 326 328 328 330 331 335 337 338 338 337 337 336 333
300 295 296 300 296 295 297 296 297 297 294 288 287 292 302 302 303 303 306 307 308 308 309 311 313 314 316 317 318 320 321 322 325 327 329 330 331 331 331 331 331 332 336 332
299 296 292 295 301 301 299 296 296 290 290 294 291 292 305 305 305 304 305 305 307 308 309 311 313 313 314 316 317 318 322 320 320 322 325 325 327 327 328 328 329 332 332 331
299 293 289 292 296 300 297 298 297 298 296 292 289 292 303 304 304 305 303 304 307 308 310 311 312 312 312 314 315 315 316 317 321 320 320 320 321 323 326 328 329 330 330 331
298 295 292 287 291 294 292 295 297 295 289 292 291 295 298 302 300 302 303 306 307 307 308 309 310 311 312 312 312 313 314 314 315 315 316 317 320 321 322 324 326 329 329 329
295 290 292 292 293 293 292 292 293 292 293 288 293 294 298 299 300 302 305 306 305 305 305 306 307 309 309 309 310 311 311 311 313 313 313 310 313 318 320 321 321 323 324 326
296 290 292 289 292 292 289 292 292 293 293 294 294 293 300 302 303 303 304 302 304 305 305 306 308 308 308 308 308 309 309 309 311 311 311 311 310 311 314 316 319 321 321 323
293 292 289 285 289 289 286 291 292 293 295 294 291 296 302 301 301 302 303 304 303 304 305 306 307 308 309 308 309 308 309 310 309 309 310 310 310 309 309 312 314 316 318 323
293 292 290 286 288 280 292 298 297 295 295 298 298 300 299 299 302 303 304 303 303 304 305 306 307 307 308 309 309 309 308 309 308 308 308 309 309 309 309 311 313 318 319 319
297 292 287 285 285 289 292 295 295 294 294 299 298 299 300 301 301 301 304 304 304 304 304 304 304 305 306 306 307 306 307 308 307 307 307 308 309 309 309 309 310 315 314 317
296 295 289 288 282 281 292 297 300 299 290 300 298 298 298 299 293 297 304 304 304 305 304 303 305 305 304 305 306 305 306 305 305 305 306 307 309 308 308 309 310 311 312 313
289 289 287 287 285 290 297 298 300 286 291 300 300 300 299 297 299 302 303 303 304 303 303 302 301 300 302 303 303 300 302 301 304 305 306 306 308 308 309 309 309 309 309 310
288 287 286 288 284 282 299 297 291 298 301 301 300 300 299 300 300 301 301 301 302 302 301 302 298 299 301 301 300 300 300 302 303 302 302 303 304 305 305 306 307 307 308 307
289 293 291 292 293 298 302 300 303 302 299 299 299 300 299 298 296 297 299 301 300 300 301 300 298 297 298 299 298 296 298 299 299 298 298 299 300 301 302 302 302 302 304 304
295 298 294 293 296 298 299 300 301 301 299 300 300 300 299 297 298 299 299 299 299 300 299 300 298 296 296 296 297 298 298 299 297 297 297 298 299 299 300 301 301 300 300 301
294 296 294 294 297 298 298 300 300 300 300 299 300 299 299 297 297 299 299 298 298 298 298 298 296 297 295 295 296 298 297 297 295 296 297 297 298 298 298 298 299 300 303 302
297 295 292 292 297 297 298 301 302 299 298 298 298 297 298 299 298 297 297 297 295 296 295 296 295 293 293 294 294 296 296 296 295 294 295 295 295 296 297 298 299 296 295 295

GFSCGP_sfc_thetae_111.txt.gz
Theta_e
307 301 299 302 304 304 302 301 300 303 306 303 303 303 305 309 309 309 310 311 313 314 317 319 321 323 324 327 332 340 348 362 360 354 352 352 350 352 353 354 360 360 361 360
304 299 304 305 304 302 300 299 299 302 305 304 303 303 306 308 308 310 310 311 312 314 316 317 319 322 323 326 330 334 340 352 356 355 358 355 355 351 352 354 358 359 360 359
300 302 304 302 301 299 300 298 299 299 303 304 302 300 302 306 309 310 311 313 313 313 314 316 317 319 321 324 328 330 334 341 352 360 358 358 357 357 350 351 351 355 355 354
302 305 302 300 299 300 296 302 301 300 298 294 303 293 302 305 306 308 309 310 311 313 314 316 317 318 320 321 324 327 333 336 339 352 350 356 349 345 346 348 350 353 356 354
300 301 300 299 300 302 299 303 301 301 299 298 298 295 299 305 303 306 309 310 312 313 315 315 315 317 320 322 323 326 332 333 338 343 352 345 350 347 347 349 355 359 359 357
302 306 303 302 303 303 304 301 301 301 299 292 297 297 298 301 304 306 309 310 312 313 313 315 317 319 320 322 323 327 329 337 336 338 342 350 352 352 346 350 347 347 350 354
301 301 304 305 301 304 302 299 292 291 292 291 301 298 300 306 307 308 308 310 312 314 314 315 316 318 320 321 323 325 327 329 332 333 335 339 345 352 352 354 347 348 345 349
295 293 301 303 300 298 301 300 293 288 290 294 301 296 301 308 309 309 310 311 312 313 314 315 316 317 318 320 322 323 324 326 329 331 332 338 341 335 339 347 348 345 346 347
295 295 304 305 305 303 298 295 302 296 298 293 296 301 306 308 308 309 309 310 311 312 313 314 315 317 318 319 321 322 323 325 328 330 333 334 336 340 339 346 351 345 350 348
301 294 302 303 305 304 302 304 294 296 288 287 293 296 297 303 304 307 308 309 311 312 313 313 314 315 317 318 320 321 323 323 325 328 331 331 333 334 340 344 347 349 350 347
303 298 299 302 300 299 299 297 299 298 295 289 289 294 304 305 306 306 307 309 310 311 311 312 312 314 316 317 318 320 320 322 322 324 327 331 332 332 335 336 339 343 346 341
301 299 294 297 303 305 303 299 299 294 292 296 294 295 306 307 309 307 308 309 310 309 309 310 312 313 314 315 316 318 320 321 321 323 323 326 327 327 326 327 333 335 335 335
301 295 291 293 299 302 299 301 300 299 298 293 290 293 306 306 306 307 308 307 307 308 310 311 312 312 312 314 314 315 317 318 318 319 322 323 323 324 325 327 330 331 332 331
300 298 292 289 293 296 294 297 299 297 291 293 293 296 301 302 303 306 306 306 307 308 309 309 311 311 311 311 311 313 315 316 317 317 318 319 322 322 322 323 325 328 329 330
297 291 294 295 296 297 295 295 296 294 296 291 294 294 298 301 303 304 306 306 306 307 307 308 308 310 309 310 312 312 313 314 315 315 315 317 318 319 318 317 320 323 325 327
298 291 294 291 295 294 292 295 295 295 295 294 295 295 302 304 304 304 305 305 303 304 305 307 309 308 309 310 310 312 312 313 314 313 312 314 315 316 316 316 316 318 320 322
293 293 291 289 293 292 289 293 294 295 296 295 291 295 302 301 302 304 305 305 304 306 307 307 308 309 310 311 311 311 311 313 312 311 312 312 312 313 314 315 315 315 319 320
292 293 292 289 291 282 293 300 299 296 298 299 298 300 302 303 304 304 306 305 305 306 307 307 308 309 309 310 310 311 311 310 310 310 310 311 311 311 313 313 313 316 315 316
297 294 289 287 287 291 293 296 297 295 295 301 299 300 301 302 303 302 306 307 306 307 307 308 309 309 308 308 308 308 307 306 307 308 309 310 311 310 311 311 316 318 317 316
298 297 290 289 284 283 293 299 301 300 291 302 301 300 300 301 295 299 306 306 306 307 308 308 308 307 306 306 307 305 305 304 304 306 308 310 309 309 309 313 316 317 317 316
291 291 289 289 287 291 299 300 302 289 291 301 302 302 301 298 301 304 305 305 305 306 306 308 307 305 306 306 305 303 302 302 302 304 306 307 308 309 311 313 316 315 314 314
289 289 289 290 287 284 301 299 293 298 303 303 302 301 300 301 301 302 303 303 304 305 305 305 303 303 304 305 304 301 300 303 301 301 303 302 303 304 305 307 307 308 309 311
290 294 291 292 292 301 303 301 303 304 301 301 301 301 301 300 300 301 301 302 303 304 304 304 302 302 304 304 303 301 300 301 300 300 299 300 300 301 303 303 303 304 306 306
295 299 293 294 297 298 300 301 302 303 302 303 302 302 301 299 300 301 301 302 303 302 301 302 300 299 299 302 301 300 300 300 299 297 297 298 299 299 301 301 300 300 301 302
295 297 295 294 298 300 301 302 302 303 304 302 302 301 300 301 300 300 301 301 300 300 301 299 297 296 295 297 298 299 298 298 297 297 297 298 298 298 298 300 301 300 301 300
298 296 294 294 300 299 299 302 303 300 301 301 300 299 301 301 300 301 298 298 299 297 296 295 294 294 294 294 296 296 297 296 295 295 296 297 297 297 297 297 297 296 295 296

GFSCGP_sfc_thetae_114.txt.gz
Theta_e
306 300 298 301 303 303 302 301 300 303 306 304 303 303 305 308 309 308 310 311 313 315 318 323 328 328 327 332 340 343 353 366 363 359 356 355 354 355 354 354 356 357 360 357
303 298 303 305 304 302 301 299 299 303 305 304 303 301 305 307 308 309 310 312 313 315 316 319 326 328 330 333 336 341 345 355 360 359 359 356 355 354 355 355 354 357 357 357
299 302 305 303 302 300 300 298 299 299 302 304 302 299 302 306 309 310 311 313 314 314 315 319 320 328 330 330 337 336 342 346 354 357 357 357 357 355 351 352 354 354 355 356
302 306 303 301 299 300 296 302 300 299 298 293 302 291 301 304 305 308 309 311 312 314 317 318 322 327 327 328 330 339 340 340 344 351 348 348 350 347 348 351 351 354 355 352
299 301 300 299 300 302 298 302 301 300 297 297 297 293 298 304 302 306 309 311 312 314 315 315 317 321 324 328 331 335 340 343 345 348 350 343 343 343 348 350 351 357 353 353
301 306 304 302 303 303 303 301 300 300 297 291 296 295 295 299 304 306 309 311 312 312 314 317 319 322 324 326 328 336 338 342 344 344 345 345 344 341 343 343 344 346 345 351
299 300 303 304 300 303 301 297 290 289 289 288 298 295 298 305 307 308 309 310 312 314 314 315 317 317 323 325 329 327 332 333 337 339 340 341 343 345 341 341 342 343 342 346
294 293 301 304 301 297 298 298 290 285 287 291 300 295 299 309 311 311 311 312 313 313 314 315 316 318 317 323 326 327 329 330 331 332 336 339 340 335 336 339 340 338 340 343
295 295 304 305 306 303 298 294 300 293 295 291 295 300 306 309 309 309 309 310 311 314 314 313 314 316 319 323 327 329 329 328 330 332 335 339 337 337 336 339 340 338 343 342
301 294 303 304 306 306 301 303 293 294 286 285 292 295 296 304 304 307 308 309 311 314 313 313 314 317 318 319 327 329 328 325 323 330 333 330 337 334 336 334 337 339 342 342
303 299 298 302 299 299 299 297 298 297 294 288 288 293 304 304 307 308 308 310 311 311 311 311 311 313 314 315 316 325 324 322 322 325 320 328 330 331 330 331 331 332 336 340
302 299 293 296 303 305 303 300 299 293 291 295 294 293 307 307 307 308 307 310 311 311 310 310 310 312 314 315 316 318 322 319 320 321 322 321 329 329 329 329 330 331 328 330
302 297 290 292 298 301 298 300 301 301 301 293 290 292 306 306 306 307 307 309 310 309 309 309 311 310 311 314 314 315 316 316 318 319 317 321 321 324 326 326 326 328 324 324
302 297 293 288 293 297 293 295 297 297 292 292 294 295 301 303 303 305 307 308 308 308 309 309 309 309 311 312 313 313 314 315 315 316 316 317 317 323 324 324 323 322 321 320
300 292 294 294 296 296 295 295 296 294 296 291 295 295 300 302 302 304 308 307 306 306 307 307 308 310 312 313 314 313 313 313 314 314 314 315 317 317 321 320 320 321 319 319
300 290 293 291 294 295 293 295 296 295 296 296 295 295 302 304 304 304 305 305 305 305 306 308 309 310 311 311 313 314 313 313 315 314 313 313 314 315 315 319 319 320 319 318
293 292 290 286 293 293 290 294 295 296 297 296 292 297 301 301 303 304 304 304 304 305 306 306 308 310 312 312 313 312 313 313 312 312 312 312 312 312 313 313 318 318 318 316
292 290 289 287 291 282 294 301 299 297 297 299 299 300 301 303 304 304 304 303 304 305 306 307 307 309 310 311 312 313 311 310 310 309 308 309 310 310 311 312 312 316 318 316
295 291 288 286 286 291 294 297 297 294 295 301 300 300 301 302 302 301 305 306 306 306 306 307 308 309 310 310 311 310 309 308 308 307 307 306 307 305 305 307 312 313 316 316
296 295 289 289 284 282 294 299 302 300 289 301 301 300 299 300 293 297 305 305 304 306 306 306 306 308 308 310 310 309 307 306 305 305 305 306 305 305 304 304 305 310 311 314
290 289 285 286 285 290 299 301 302 288 292 302 302 301 300 297 299 303 304 304 305 305 306 306 307 307 308 309 309 306 305 304 305 305 305 305 305 304 305 304 303 304 308 309
290 289 288 290 286 284 301 300 293 298 302 302 301 300 299 300 300 301 302 303 304 304 304 304 305 305 306 307 306 304 304 306 305 304 302 303 303 302 302 303 302 303 304 304
290 293 289 290 292 301 303 302 303 303 301 301 301 301 301 300 299 300 301 302 303 303 303 305 303 303 304 304 303 301 302 303 302 301 301 302 301 300 301 300 300 301 301 300
295 300 294 294 298 299 300 304 303 303 302 303 303 302 301 299 299 299 301 301 301 303 301 302 300 299 298 299 299 298 298 299 299 298 298 299 298 299 299 299 299 299 299 299
295 297 295 295 298 300 300 301 301 302 303 302 302 300 300 299 299 299 299 300 299 299 299 298 296 295 295 296 296 296 296 296 295 296 296 297 297 297 297 298 299 298 300 300
298 296 293 292 299 299 298 301 302 301 300 299 299 299 299 299 299 298 296 298 298 295 295 294 293 292 292 293 294 295 296 295 295 294 294 294 295 296 296 296 297 296 295 295

GFSCGP_sfc_thetae_120.txt.gz
Theta_e
298 291 289 292 293 294 293 291 291 294 297 295 293 294 298 300 298 298 300 300 301 303 307 308 311 316 323 326 332 335 339 343 347 347 346 344 343 344 345 347 343 344 344 342
294 290 295 298 298 296 295 292 291 295 298 294 293 294 298 300 299 299 300 300 302 302 305 308 310 314 315 316 319 324 333 342 345 347 347 346 344 347 346 347 346 347 348 346
292 296 301 298 296 295 295 292 292 293 296 296 293 290 294 298 299 300 301 301 302 303 303 305 310 310 312 316 317 318 320 331 338 340 337 337 338 340 339 343 344 345 345 349
295 300 299 297 296 296 290 296 296 295 291 285 292 282 289 294 296 298 299 300 301 303 304 305 308 308 313 315 316 317 322 323 325 328 328 328 329 328 333 336 341 340 343 345
294 296 295 294 295 297 293 297 295 294 289 285 287 283 287 292 293 295 298 299 300 303 305 304 305 310 310 314 317 319 320 322 323 323 322 321 319 323 327 327 329 331 334 337
296 301 298 296 299 298 299 294 291 288 285 280 286 286 285 290 292 295 299 301 302 302 302 305 307 312 314 315 318 319 319 319 320 321 322 323 322 323 323 322 323 327 328 331
294 295 300 301 295 296 293 285 279 278 279 280 288 286 287 293 299 300 301 302 301 302 305 308 308 310 310 312 312 313 314 315 317 318 317 319 321 322 321 321 322 322 322 325
289 288 297 301 297 290 290 287 280 275 277 280 290 285 289 301 303 304 305 303 304 304 306 304 305 307 308 309 311 311 311 313 312 313 313 319 321 320 319 321 322 322 323 325
289 291 302 304 304 300 295 289 291 285 284 281 285 290 296 303 303 304 304 304 302 302 304 304 303 304 306 308 309 310 310 312 313 313 316 318 320 321 319 321 319 321 321 323
296 290 300 301 303 303 299 300 289 286 279 277 284 286 287 296 299 301 303 302 301 300 300 301 302 302 303 305 307 310 311 310 311 313 314 315 316 318 318 317 318 317 318 319
297 293 294 297 295 293 293 292 293 292 290 280 281 287 299 299 301 300 301 304 304 303 301 300 301 304 305 306 308 307 307 308 310 312 311 311 311 316 317 316 317 316 316 316
297 293 288 292 298 300 296 291 291 285 286 287 283 284 301 301 302 304 301 306 306 305 302 300 301 304 305 307 308 309 308 308 307 309 308 309 311 313 312 313 313 314 314 314
296 289 283 286 290 296 293 294 293 291 291 289 286 287 302 301 301 303 303 305 306 305 306 303 304 303 305 304 306 306 307 306 308 308 307 307 306 307 308 311 313 313 313 314
298 289 286 281 286 291 289 292 293 291 287 289 290 292 296 298 300 300 301 303 303 303 305 303 302 303 302 303 304 305 306 306 306 306 305 304 304 305 305 307 308 310 312 313
292 284 288 288 291 291 290 290 291 290 290 287 289 291 294 298 299 300 301 301 302 303 303 301 300 300 301 301 302 304 304 305 305 305 304 304 305 305 306 306 307 307 309 310
296 285 287 286 290 290 289 292 291 291 291 291 292 291 298 302 299 300 302 300 300 300 300 301 301 302 302 301 303 305 305 306 306 305 305 305 305 306 305 305 305 305 307 308
292 289 286 282 288 287 282 289 292 292 293 293 289 292 296 296 297 298 295 296 297 298 299 299 299 300 300 301 302 301 303 304 306 304 304 305 305 305 304 303 303 301 301 303
289 290 287 283 283 276 287 297 298 295 297 297 295 295 295 294 294 295 295 294 296 296 296 296 297 297 297 299 299 300 302 303 304 304 304 305 305 304 303 301 300 299 298 298
294 291 285 281 281 287 290 295 294 293 293 298 295 297 296 297 295 293 297 297 295 295 296 296 296 296 296 297 298 298 299 300 301 302 303 304 304 303 302 300 299 298 298 297
294 293 287 284 278 279 291 299 301 299 287 299 297 293 291 292 286 289 295 296 296 295 295 295 296 296 295 295 297 296 297 297 297 300 301 301 301 300 299 299 297 297 296 297
288 287 283 283 281 284 296 300 301 286 287 298 297 293 291 289 291 293 294 295 295 294 296 295 294 292 293 295 294 293 294 294 296 298 299 299 299 299 299 299 298 297 298 298
286 285 284 285 282 279 298 298 292 295 299 297 295 293 291 291 293 293 293 293 294 293 293 294 292 291 292 293 293 292 291 294 295 295 295 295 296 296 297 297 298 298 299 298
285 291 287 288 287 296 300 299 301 301 298 296 292 293 292 291 291 292 292 292 291 292 292 292 290 290 291 292 292 290 291 292 292 292 292 292 294 294 295 294 296 297 298 297
293 296 290 290 296 297 297 299 300 300 299 298 295 293 292 290 291 290 289 290 290 291 290 291 289 289 289 290 291 290 291 291 291 290 290 291 291 293 293 294 296 297 297 296
292 293 291 291 295 297 298 298 299 300 297 296 296 295 293 290 288 290 290 290 290 289 289 289 288 287 288 289 288 290 290 290 289 289 289 289 291 292 293 294 294 295 296 296
294 292 288 287 294 292 292 293 295 293 293 294 293 292 290 291 289 289 288 288 287 287 287 287 287 286 286 287 287 288 289 289 288 287 288 288 290 290 292 293 294 294 293 293